GFSSE_con_sbcape_000.txt.gz
CAPE
435 555 764 1131 1168 1045 905 799 764 816 840 786 761 641 624 610 647 700 769 945 846 548 548 541 561 602 617 655 799 926 1100 1145 1342 1372 1616 1272 1045 1181 1159 1291 1314 1004 1371
652 663 899 1100 1214 1144 1044 907 928 966 912 700 728 723 654 578 593 653 595 464 353 200 178 206 238 253 355 433 643 787 865 929 1067 1055 1121 1047 889 1070 1159 1235 1068 1367 1498
811 902 871 984 1146 1269 1139 1075 1196 1098 796 769 809 793 629 538 527 483 409 447 229 103 86 55 68 103 130 189 298 390 437 486 488 690 703 116 210 904 1357 1200 1256 1368 1408
945 970 990 985 1125 1283 1242 1278 1231 1057 874 854 894 773 600 521 401 300 278 325 97 46 31 21 4 1 4 8 29 29 33 41 122 155 0 13 97 711 1279 1223 1221 1197 1062
866 910 1069 1138 1253 1363 1374 1332 1293 1284 1216 1129 982 709 593 463 303 138 118 43 16 9 2 0 0 0 0 0 0 0 2 7 19 0 0 0 312 622 1149 1283 1304 1244 1202
740 771 949 1201 1330 1388 1422 1458 1445 1336 1189 1119 993 671 556 375 192 59 24 0 0 0 0 0 0 0 0 0 0 0 0 11 0 0 0 0 57 823 1349 1209 1345 1369 1053
846 922 1047 1331 1399 1461 1495 1488 1391 1150 958 1026 937 721 526 363 194 42 0 0 0 0 0 0 0 0 0 0 0 0 0 0 0 0 0 0 23 1078 1306 1287 1326 977 1000
983 1227 1240 1351 1315 1297 1344 1302 1121 953 928 998 881 682 495 387 223 27 0 0 0 0 0 0 0 0 5 2 15 50 3 19 0 0 0 0 75 1006 951 716 1310 819 685
1278 1334 1253 1299 1248 1215 1096 1002 961 932 945 925 870 726 590 449 249 60 7 37 26 5 24 41 119 96 69 92 99 61 25 8 0 0 0 0 204 815 818 756 1124 1276 1021
717 866 865 1061 1270 903 836 873 802 743 759 805 805 654 434 309 259 205 202 60 215 184 156 221 203 212 198 162 126 107 66 0 0 0 0 0 188 488 626 551 674 783 687
747 774 833 803 829 679 572 660 734 761 686 673 666 548 348 50 10 53 157 310 290 294 271 313 364 321 250 144 69 83 60 0 0 0 0 0 35 45 129 446 694 716 517
680 631 553 537 502 393 591 491 349 353 335 312 364 270 129 64 49 149 129 266 451 463 576 552 517 505 338 23 0 4 0 0 0 0 0 0 0 12 30 130 549 434 329
634 527 315 243 191 249 373 202 53 96 77 89 118 74 82 130 81 71 84 19 8 111 59 10 15 13 0 0 0 0 0 0 0 0 0 0 0 15 22 0 185 256 225
260 269 183 51 40 26 0 24 2 38 35 84 148 159 121 50 10 0 0 0 0 0 0 0 0 0 0 0 0 0 0 0 0 0 0 0 0 0 0 0 16 296 283
82 50 13 0 0 0 3 1 0 40 108 118 168 172 3 0 0 0 0 0 0 0 0 0 0 0 0 0 0 0 0 0 0 0 0 0 0 0 0 0 0 71 309
20 19 5 0 0 0 0 0 0 2 65 185 133 7 0 0 0 0 0 0 0 0 0 0 0 0 0 0 0 0 0 0 0 0 0 0 0 0 0 0 1 31 58
0 0 0 0 0 0 0 0 0 0 0 2 0 0 0 0 0 0 0 0 0 0 0 0 0 0 0 0 0 0 0 0 0 0 0 0 0 0 0 0 0 0 0
0 58 26 37 23 0 0 0 0 0 0 0 0 0 0 0 0 0 0 0 0 0 0 0 0 0 0 0 0 0 0 0 0 0 0 0 0 0 0 0 0 0 0
122 56 36 9 0 0 0 0 0 0 0 0 0 0 0 0 0 0 0 0 0 0 0 0 0 0 0 0 0 0 0 0 0 0 0 0 0 0 0 0 0 0 0
0 0 0 0 0 0 0 0 0 0 0 0 0 0 0 0 0 0 0 0 0 0 0 0 0 0 0 0 0 0 0 0 0 0 0 0 0 0 0 0 0 0 0
0 0 0 0 0 0 0 0 0 0 0 0 0 0 0 0 0 0 0 0 0 0 0 0 0 0 0 0 0 0 0 0 0 0 0 0 0 0 0 0 0 0 0
0 0 0 0 0 0 0 0 0 0 0 0 0 0 0 0 0 0 0 0 0 0 0 0 0 0 0 0 0 0 0 0 0 0 0 0 0 0 0 0 0 0 0
0 0 0 0 0 0 0 0 0 0 0 0 0 0 0 0 0 0 0 0 0 0 0 0 0 0 0 0 0 0 0 0 0 0 0 0 0 0 0 0 0 0 0
0 0 0 0 0 0 0 0 0 0 0 0 0 0 0 0 0 0 0 0 0 0 0 0 0 0 0 0 0 0 0 0 0 1 0 0 0 0 0 0 0 0 0
0 0 0 0 0 0 0 0 0 0 0 0 0 0 0 0 0 0 0 0 0 0 0 0 0 0 0 0 0 0 0 0 0 1 0 0 1 0 0 0 0 0 0
0 0 0 0 0 0 0 0 0 0 0 0 0 0 0 0 0 0 0 0 0 0 0 0 0 0 0 0 0 0 0 0 0 3 1 0 0 0 0 0 0 0 0

GFSSE_con_sbcape_003.txt.gz
CAPE
620 681 772 662 869 888 838 758 735 752 844 882 821 617 576 583 603 639 649 758 616 246 187 230 271 283 371 437 498 521 572 618 659 834 995 1123 934 963 1047 692 909 544 1224
885 834 774 802 841 987 916 851 850 950 977 814 754 629 576 566 636 574 390 483 439 75 54 81 110 94 100 118 156 177 217 250 317 415 383 360 387 796 1144 833 1177 597 1250
1092 1027 800 682 881 1080 1024 1083 1131 1138 888 778 803 691 563 548 505 421 328 534 280 58 34 11 0 0 0 0 5 3 6 10 68 65 66 213 307 628 1207 1181 1197 1244 1058
1211 1084 729 709 941 1156 1109 1291 1229 1134 903 913 871 675 580 470 381 351 325 423 111 27 3 0 0 0 0 0 0 0 0 12 0 0 0 65 535 778 1040 1018 1035 887 796
1229 1095 871 788 902 1119 1233 1115 1324 1321 1291 1306 927 657 549 392 213 188 115 126 4 0 0 0 0 0 0 0 0 0 0 11 0 0 3 231 808 794 1127 1204 870 828 819
1037 970 812 786 944 1059 1238 1516 1471 1380 1303 1246 1004 683 524 324 151 66 13 0 0 0 0 0 0 0 0 0 0 5 4 9 0 0 0 16 477 1080 1169 1020 846 862 912
1040 1135 1095 940 954 1099 1410 1568 1428 1239 1098 1127 994 766 519 339 144 17 0 0 0 0 0 0 0 0 1 49 71 60 8 38 0 0 0 0 127 940 882 876 962 691 696
1095 1143 1108 1067 1133 1347 1421 1342 1105 953 978 978 907 687 496 384 164 18 24 5 0 0 13 14 0 21 72 142 152 176 102 31 0 0 0 0 145 732 894 803 1246 1175 1082
1412 1441 1413 1401 1470 1185 1137 1102 985 867 915 879 804 707 535 372 228 121 121 185 198 100 143 182 155 182 188 283 246 202 201 2 0 0 0 0 29 267 540 722 857 917 628
1613 1448 1377 1539 1454 1469 1513 1064 988 911 815 781 699 593 374 335 292 277 269 133 321 395 327 401 362 360 343 370 224 133 155 2 0 0 0 0 16 29 40 390 557 447 347
1177 1297 1319 1184 1373 1601 1533 1223 871 783 716 694 588 485 329 348 323 339 211 323 487 397 463 608 572 490 387 276 122 112 62 12 15 0 0 0 0 24 41 153 736 611 237
949 959 976 981 1187 1145 1104 1055 872 663 476 449 428 533 520 547 533 467 463 343 463 445 627 496 380 336 318 267 168 14 0 0 0 0 0 0 0 0 15 272 506 636 595
751 746 766 871 980 985 910 762 563 399 378 388 483 461 553 598 820 788 727 596 531 197 116 11 16 51 123 68 0 0 0 0 0 0 0 0 0 0 0 11 342 498 556
861 789 903 654 644 536 422 407 234 228 288 380 505 618 761 703 467 146 77 22 14 7 11 0 0 0 0 0 0 0 0 0 0 0 0 0 0 0 3 43 67 184 426
611 581 362 207 181 119 117 138 144 232 384 504 620 766 757 546 185 33 0 0 0 0 0 0 0 0 0 0 0 0 0 0 0 0 0 0 0 0 0 6 18 56 101
364 324 130 30 38 52 55 102 98 1 16 198 278 8 13 74 21 0 0 0 0 0 0 0 0 0 0 0 0 0 0 0 0 0 0 0 0 0 0 0 0 0 4
207 153 75 43 95 94 84 134 20 0 0 0 0 0 0 0 0 0 0 0 0 0 0 0 0 0 0 0 0 0 0 0 0 0 0 0 0 0 0 0 0 0 0
171 206 68 140 50 0 0 0 0 0 0 0 0 0 0 0 0 0 0 0 0 0 0 0 0 0 0 0 0 0 0 0 0 0 0 0 0 0 0 0 0 0 0
386 272 187 1 0 0 0 0 0 0 0 0 0 0 0 0 0 0 0 0 0 0 0 0 0 0 0 0 0 0 0 0 0 0 0 0 0 0 0 0 0 0 0
374 108 0 0 0 0 0 0 0 0 0 0 0 0 0 0 0 0 0 0 0 0 0 0 0 0 0 0 0 0 0 0 0 0 0 0 0 0 0 0 0 0 0
120 4 0 0 0 0 0 0 0 0 0 0 0 0 0 0 0 0 0 0 0 0 0 0 0 0 0 0 0 0 0 0 0 0 0 0 0 0 0 0 0 0 0
300 183 4 0 0 0 0 0 0 0 0 0 0 0 0 0 0 0 0 0 0 0 0 0 0 0 0 0 0 0 0 0 0 0 0 0 0 0 0 0 0 0 0
0 0 0 0 0 0 0 0 0 0 0 0 0 0 0 0 0 0 0 0 0 0 0 0 0 0 0 0 0 0 0 0 1 0 0 0 0 0 0 0 0 0 0
0 0 0 0 0 0 0 0 0 0 0 0 0 0 0 0 0 0 0 0 0 0 0 0 0 0 0 0 0 0 0 2 0 0 0 0 0 0 0 9 0 0 3
0 0 0 0 0 0 0 0 0 0 0 0 0 0 0 0 0 0 0 0 0 0 0 0 0 0 0 0 0 0 0 0 0 1 0 0 0 0 2 1 8 0 0
0 0 0 0 0 0 0 0 0 0 0 0 0 0 0 0 0 0 0 0 0 0 0 0 0 0 0 0 0 0 0 0 0 6 5 0 0 0 0 0 1 0 0

GFSSE_con_sbcape_006.txt.gz
CAPE
756 644 817 941 986 985 829 774 753 780 849 907 823 576 512 490 513 417 331 476 383 99 82 127 150 121 90 94 83 90 112 120 231 275 292 459 520 811 794 390 887 308 929
913 733 650 804 892 965 877 880 933 974 1022 797 712 570 507 505 398 262 290 358 272 35 21 5 0 0 0 0 0 0 0 1 3 49 104 306 663 737 904 490 1074 491 874
1032 918 522 783 978 998 991 1112 1129 1163 885 788 685 538 471 388 310 287 250 304 71 7 0 0 0 0 0 0 0 0 0 0 0 0 23 89 310 922 765 775 1047 819 659
1140 1154 691 680 890 1109 1174 1187 1173 1116 949 894 668 523 407 313 278 271 150 160 4 0 0 0 0 0 0 0 0 0 0 1 0 2 0 85 421 653 523 422 616 668 525
1134 1000 901 803 873 766 1090 1019 1095 1277 1375 993 713 527 385 222 192 116 36 0 0 0 0 0 0 0 0 0 0 0 0 8 14 4 0 22 249 806 635 567 650 745 663
1105 1190 521 642 631 602 946 1037 1489 1457 1344 1110 882 548 365 205 59 1 0 0 0 0 0 0 0 0 0 40 34 0 0 0 1 0 0 0 138 892 863 785 605 475 891
827 1160 894 693 597 698 1023 1356 1488 1333 1228 1041 755 576 393 170 0 0 0 0 0 0 0 0 0 15 46 97 98 87 22 0 0 0 0 0 4 579 816 637 320 425 383
1122 1129 923 746 824 776 1035 1216 1081 1005 1024 922 735 554 384 144 35 30 18 14 29 20 26 22 26 65 107 136 132 91 137 0 0 0 0 0 62 213 520 705 621 416 371
1399 1315 1061 998 952 1077 1024 926 808 851 900 829 696 556 339 176 128 110 143 203 187 104 112 167 156 227 237 257 177 107 91 17 0 0 0 0 24 37 44 393 587 456 277
1323 1371 1357 1244 1230 1168 1246 946 853 807 802 768 568 419 309 301 231 264 123 240 288 307 327 362 494 551 444 432 202 105 72 101 0 0 0 0 1 30 52 69 406 287 166
1274 1249 1006 1085 1106 1037 1070 1114 802 768 676 545 466 351 206 262 297 201 164 273 492 516 545 624 486 362 332 363 87 26 46 0 0 0 0 0 0 7 19 48 162 202 156
1235 1181 1234 1205 1054 1113 814 761 538 322 192 175 352 581 407 810 823 601 407 456 477 326 472 58 7 63 131 17 0 0 0 0 0 0 0 0 0 13 58 20 403 592 568
771 962 907 944 922 867 620 386 112 68 216 474 724 853 894 1038 1079 735 431 290 326 50 91 6 4 0 17 0 0 0 0 0 0 0 0 0 0 0 3 60 121 191 364
805 943 801 622 711 641 203 137 258 317 571 692 946 1090 1196 1117 1115 481 301 198 208 59 9 1 0 0 0 0 0 0 0 0 0 0 0 0 0 0 0 9 21 36 77
526 643 596 481 426 325 316 464 587 726 854 961 1140 1212 890 319 331 401 300 79 1 0 0 0 0 0 0 0 0 0 0 0 0 0 0 0 0 0 0 0 0 0 0
536 563 412 248 358 587 769 867 429 286 311 618 952 575 194 180 35 117 27 0 0 0 0 0 0 0 0 0 0 0 0 0 0 0 0 0 0 0 0 0 0 0 0
603 493 392 487 666 489 344 303 182 57 70 145 388 418 150 83 8 0 0 0 0 0 0 0 0 0 0 0 0 0 0 0 0 0 0 0 0 0 0 0 0 0 0
642 573 375 436 445 276 93 0 0 6 25 18 5 0 0 0 0 0 0 0 0 0 0 0 0 0 0 0 0 0 0 0 0 0 0 0 0 0 0 0 0 0 0
681 650 602 437 76 0 16 0 0 0 0 0 0 0 0 0 0 0 0 0 0 0 0 0 0 0 0 0 0 0 0 0 0 1 17 12 3 2 0 0 0 0 0
849 813 598 353 287 402 157 0 0 0 0 0 0 0 0 0 0 0 0 0 0 0 0 0 0 0 0 0 0 0 3 0 0 8 28 25 12 12 3 5 3 0 0
979 850 670 458 307 364 76 39 0 0 0 0 0 0 0 0 0 0 0 0 0 0 0 0 0 0 0 0 0 0 0 0 2 18 34 15 10 8 2 3 1 2 0
767 701 598 456 377 46 9 0 0 0 0 0 0 0 0 0 0 0 0 0 0 0 0 0 0 0 0 5 12 0 0 0 0 9 6 3 7 18 3 0 3 0 0
961 927 615 215 1 0 0 0 0 0 0 0 0 0 0 0 0 0 0 0 0 0 0 0 0 0 0 0 10 7 0 0 0 0 4 0 2 0 1 0 0 0 0
1004 500 26 0 0 0 0 0 0 0 0 0 0 0 0 0 0 0 0 0 0 0 1 4 0 0 0 0 1 0 1 0 5 0 1 10 0 0 0 0 9 0 0
0 0 0 0 0 0 0 0 0 0 0 0 0 0 0 0 0 0 0 0 0 0 7 10 3 0 0 0 1 0 0 0 2 6 5 7 4 3 1 2 5 10 2
0 0 0 0 0 0 0 0 0 0 0 0 0 0 0 0 0 0 0 0 8 15 30 6 0 0 1 0 1 1 2 5 7 11 11 8 4 0 7 9 11 9 7

GFSSE_con_sbcape_009.txt.gz
CAPE
634 328 838 990 985 896 756 678 661 692 836 801 687 524 473 414 289 377 447 406 327 87 23 1 0 0 0 0 0 0 0 0 0 38 97 286 506 842 537 727 1205 115 768
720 366 703 979 1060 809 669 832 883 1006 977 642 573 509 428 287 261 258 348 375 209 1 0 0 0 0 0 0 0 0 0 0 0 0 73 324 761 854 704 807 1281 378 519
839 528 352 858 1039 962 901 1039 1083 1184 776 657 524 421 303 217 261 237 270 314 23 0 0 0 0 0 0 0 0 0 0 0 0 5 31 213 636 779 464 484 862 576 338
888 475 289 856 1001 1090 1042 973 1026 1018 880 630 472 342 240 202 170 146 121 168 2 0 0 0 0 0 0 0 0 0 0 0 31 187 1 0 540 527 445 485 412 502 435
937 601 484 850 713 858 767 805 803 971 1111 801 605 324 183 119 62 60 0 0 0 0 0 0 0 0 0 30 16 0 0 14 53 17 0 0 94 775 781 564 773 496 851
952 765 466 597 655 862 723 787 889 1239 1057 930 691 300 151 21 0 0 0 0 14 11 0 0 12 27 57 129 100 73 39 87 0 0 0 2 14 678 776 354 444 408 697
578 422 481 379 410 752 809 845 1009 1219 983 837 534 336 109 0 0 0 0 21 27 28 11 15 32 70 107 122 101 82 130 164 0 0 0 0 3 265 839 378 121 105 139
421 467 495 463 636 650 695 936 916 984 868 750 506 288 69 26 42 26 42 67 49 41 73 76 105 171 205 244 196 175 139 181 0 0 0 0 99 84 168 568 338 245 81
46 599 664 771 710 580 669 674 715 788 790 683 472 284 126 120 114 125 186 223 247 181 190 270 308 359 388 351 243 145 93 170 17 0 1 0 33 50 34 81 335 295 76
322 955 1070 1005 1043 1099 952 657 702 699 680 586 405 247 179 216 175 153 118 349 420 420 455 591 577 459 395 407 218 82 90 124 0 2 18 0 40 52 37 49 59 116 105
981 1151 1046 929 907 891 969 835 689 722 635 474 423 257 220 390 272 187 204 345 489 453 461 524 132 72 161 387 430 72 81 0 0 0 3 0 0 62 147 81 89 161 123
904 836 896 936 855 951 568 542 334 107 99 163 428 361 410 505 347 5 140 394 458 308 324 303 73 173 111 3 27 231 0 0 0 0 0 0 0 0 23 149 196 193 340
953 906 832 956 823 635 419 183 51 23 171 506 679 547 760 500 660 437 301 340 368 242 183 78 62 49 23 0 0 0 0 0 0 0 0 0 0 0 0 48 126 168 189
892 893 649 539 590 441 149 56 72 444 525 552 815 814 819 598 565 457 400 480 286 218 90 69 83 22 0 0 0 0 0 0 0 0 0 0 0 0 0 0 0 0 11
532 498 453 440 421 382 337 511 712 946 934 1065 1088 1085 846 503 301 181 212 137 308 68 57 63 57 0 0 0 0 0 0 0 0 0 0 0 0 0 0 0 0 0 0
488 532 386 232 383 619 883 805 470 452 518 470 786 1081 778 452 268 139 95 90 48 47 28 1 0 0 0 0 0 0 0 0 0 0 0 0 0 1 0 0 0 0 0
502 409 399 701 802 752 580 340 226 119 84 217 552 920 1064 679 445 265 8 46 60 0 0 0 0 0 0 0 0 0 0 0 0 0 8 24 13 5 4 1 0 0 0
593 466 606 752 667 462 319 0 56 93 76 40 1 21 0 0 0 0 0 0 0 0 0 0 0 0 0 0 0 0 0 0 0 13 10 26 37 34 11 0 0 0 0
842 668 612 755 549 465 138 174 38 1 0 0 0 0 0 0 0 0 0 0 0 0 0 0 0 0 0 0 0 3 5 0 9 0 0 24 45 38 33 15 43 36 0
936 843 817 681 440 546 550 93 0 0 0 0 0 0 0 0 0 0 0 0 0 0 0 1 0 0 1 12 4 5 5 0 0 1 9 23 23 17 19 24 26 21 77
1131 1086 973 736 636 706 348 108 11 0 0 0 0 0 0 0 0 0 0 0 0 0 1 9 18 24 8 1 0 3 0 0 8 0 4 17 5 4 12 19 14 9 5
1291 1244 1019 826 727 280 76 10 41 16 0 0 0 0 0 0 0 0 0 0 1 0 2 10 25 19 1 0 0 5 0 0 0 0 0 0 13 2 12 2 5 3 8
1217 1060 924 700 273 23 5 0 0 0 0 0 0 0 0 0 0 0 0 0 0 2 0 10 7 16 5 0 0 0 1 1 2 0 3 2 30 9 13 4 2 1 6
1191 984 525 144 3 0 0 0 0 2 2 0 0 0 0 0 0 0 0 0 0 0 1 3 6 12 11 7 9 5 10 13 9 5 1 4 15 14 69 21 6 1 0
882 530 46 0 0 0 0 0 0 0 0 0 0 0 0 0 0 0 0 0 0 0 2 11 29 27 21 31 24 12 2 2 2 12 16 13 16 23 20 58 17 15 10
111 2 0 0 0 0 0 0 0 0 0 0 0 0 0 0 0 0 0 0 0 0 10 30 34 30 33 19 11 12 14 18 16 25 33 26 55 18 12 34 73 56 53

GFSSE_con_sbcape_012.txt.gz
CAPE
144 408 753 843 812 713 615 559 616 701 824 887 745 611 473 346 457 451 375 291 176 10 0 0 0 0 0 0 0 0 0 0 0 0 65 324 553 510 585 1099 750 89 982
159 293 676 786 745 720 706 773 876 946 955 816 669 491 397 394 436 434 349 237 85 0 0 0 0 0 0 0 0 0 0 0 46 93 30 382 662 623 555 1037 1060 520 990
152 311 349 731 757 791 918 1077 1081 1107 913 698 492 389 344 234 193 293 262 102 39 0 0 0 0 0 0 0 0 0 0 33 129 246 239 231 316 496 330 1055 914 843 885
262 165 318 766 710 846 966 1041 952 1085 748 596 428 283 282 164 90 130 138 110 117 0 0 0 0 0 0 0 15 3 57 109 123 146 0 107 281 750 476 789 825 473 886
252 163 576 749 512 604 819 800 835 962 773 578 418 213 73 26 1 0 215 200 56 0 0 0 0 19 62 253 234 187 159 93 59 36 0 24 27 653 448 448 427 463 813
623 330 429 362 327 528 584 888 1001 900 686 544 448 295 9 0 0 0 234 183 19 24 19 16 32 99 304 258 205 167 150 98 73 0 0 19 55 731 572 187 628 622 626
160 152 223 166 370 537 575 1045 953 873 681 543 454 257 89 0 0 32 205 182 37 42 43 56 84 272 348 324 250 185 123 84 0 0 0 0 63 393 481 493 607 634 308
172 192 137 203 325 296 656 799 746 700 620 528 423 217 138 219 232 272 341 340 324 328 398 415 426 439 397 333 228 122 62 85 0 2 0 1 307 116 32 200 778 694 392
327 244 118 256 622 516 475 479 529 571 533 521 407 257 287 323 340 404 477 467 465 495 568 649 602 524 463 390 255 164 73 56 0 7 8 6 307 120 49 51 311 419 399
53 163 185 285 200 674 457 399 419 430 409 404 298 220 239 280 323 360 442 503 485 401 397 468 226 128 231 278 213 266 120 33 0 0 0 34 197 113 157 82 228 503 474
43 256 270 404 624 771 572 432 445 501 386 380 230 218 92 161 214 287 355 365 338 134 139 221 60 69 141 183 304 428 305 0 0 0 0 23 58 0 52 148 253 534 649
138 375 467 625 588 632 348 388 204 152 67 184 205 209 341 595 58 32 313 345 438 178 196 252 203 255 156 0 8 121 0 0 0 0 0 0 0 0 0 48 117 176 199
478 602 668 698 791 636 387 305 86 193 304 679 631 761 717 780 671 523 477 541 385 251 220 157 134 53 17 0 0 0 0 0 0 0 0 0 0 0 0 0 0 2 6
691 702 710 636 420 227 86 53 150 347 609 639 801 675 793 888 701 480 239 52 61 109 133 131 58 22 0 0 0 0 0 0 0 0 0 0 0 0 0 0 0 0 0
504 371 357 434 433 471 392 691 846 834 914 951 960 928 801 546 303 152 88 91 145 96 35 0 0 0 0 0 0 0 0 0 0 0 0 0 0 0 2 0 0 0 0
320 395 414 312 526 712 918 586 544 532 539 530 884 1031 781 555 312 130 64 0 1 0 0 0 0 0 0 0 0 0 0 0 0 0 0 2 14 23 8 7 0 0 0
405 341 252 400 1075 812 657 499 289 0 115 390 596 640 620 5 1 0 0 0 0 0 0 0 0 0 0 0 0 0 0 0 0 0 0 0 20 47 33 3 0 0 0
308 295 419 698 774 496 58 9 78 289 116 0 0 0 0 0 0 0 0 0 0 0 0 0 0 0 0 0 0 0 0 0 0 0 1 0 0 13 15 6 0 0 0
318 468 759 791 532 97 254 191 289 70 0 0 0 0 0 0 0 0 0 0 0 0 0 0 0 0 0 0 0 0 0 0 0 0 0 0 1 13 6 59 39 43 1
496 508 810 731 624 338 504 78 6 0 0 0 0 0 0 0 0 0 0 0 0 0 0 0 0 0 1 0 0 0 0 0 0 0 0 0 0 0 0 0 0 0 8
832 665 763 697 571 604 318 1 0 0 0 0 0 0 0 0 0 0 0 0 0 0 0 0 0 0 0 0 0 0 0 0 0 0 0 0 0 0 0 0 0 0 0
1010 873 884 688 657 682 182 44 59 0 0 0 0 0 0 0 0 0 0 0 0 0 0 0 0 0 0 0 0 0 0 0 0 0 0 0 0 0 0 0 0 0 0
1058 1043 988 630 719 127 2 0 0 0 0 0 0 0 0 0 0 0 0 0 0 0 0 0 0 0 0 0 0 0 0 0 0 0 0 0 0 0 0 0 0 0 0
996 997 788 620 5 0 0 0 0 0 0 0 0 0 0 0 0 0 0 0 0 0 0 0 0 0 0 0 0 0 0 0 0 0 0 0 0 0 0 0 0 0 0
806 1007 556 0 0 0 0 0 0 0 0 0 0 0 0 0 0 0 0 0 0 0 0 0 7 2 0 0 0 0 0 0 0 0 0 0 0 0 0 2 0 0 0
818 448 1 0 0 0 0 0 0 0 0 0 0 0 0 0 0 0 0 0 0 0 0 4 0 0 0 0 0 1 0 0 0 0 0 0 0 0 0 0 0 0 0

GFSSE_con_sbcape_015.txt.gz
CAPE
352 728 831 994 899 690 607 620 702 783 780 666 485 416 362 302 333 276 182 83 20 0 0 0 0 0 0 0 0 0 0 0 0 11 221 469 397 414 328 813 543 337 727
416 624 687 821 788 726 793 825 881 841 761 554 452 417 371 284 267 211 120 59 23 0 0 0 0 0 0 0 0 0 0 31 54 100 128 397 388 236 448 832 920 716 995
306 534 575 658 739 842 1009 1096 981 884 570 360 338 331 264 137 79 150 124 104 65 0 0 0 0 0 0 0 0 4 48 82 131 251 295 209 177 330 589 670 811 764 973
312 312 424 667 743 868 992 1055 863 639 367 388 335 236 223 114 31 134 235 211 189 0 0 0 0 0 0 7 66 105 96 61 235 78 0 0 141 371 347 430 330 268 395
134 292 496 580 544 757 1004 999 785 637 445 370 287 203 102 26 35 78 260 213 172 0 0 0 0 1 29 142 164 150 121 90 21 0 0 49 138 305 206 159 117 72 344
396 408 275 295 345 680 854 840 775 545 378 308 198 173 59 30 67 125 270 230 36 32 30 46 44 90 254 160 198 204 89 95 0 0 0 95 111 440 335 244 603 312 268
102 80 104 172 252 474 753 897 691 511 399 272 190 158 135 113 58 171 339 285 107 102 99 114 152 324 309 234 288 204 97 72 0 0 0 0 67 142 75 258 350 381 234
19 65 110 270 284 303 415 686 543 443 391 227 237 266 226 295 338 394 408 423 356 378 459 441 353 263 271 267 223 202 95 73 0 0 0 0 383 106 67 84 605 556 489
16 2 41 124 56 288 322 398 384 406 310 209 219 293 300 310 396 474 504 521 450 357 300 190 93 86 169 168 203 189 102 87 0 0 0 0 470 165 128 108 275 674 661
6 9 31 147 146 274 291 274 260 223 159 156 179 181 176 242 350 389 384 434 300 119 54 52 12 36 65 105 148 223 184 0 0 0 0 31 176 61 89 108 222 272 450
68 18 87 62 182 234 248 269 237 267 154 135 148 122 90 40 54 191 122 252 147 84 13 25 31 60 78 12 108 127 33 0 0 0 0 39 98 0 58 84 82 62 62
42 12 5 91 301 342 258 164 76 100 39 8 8 21 0 21 8 30 76 184 146 95 70 71 108 128 31 0 0 0 0 0 0 0 0 0 33 0 3 0 0 0 0
160 184 75 277 388 342 170 84 17 2 4 56 47 26 100 73 35 2 1 23 12 53 23 14 0 0 0 0 0 0 0 0 0 0 0 0 0 0 0 0 0 0 0
160 299 281 415 430 134 236 75 2 8 154 207 228 177 192 34 0 0 0 0 0 0 0 0 0 0 0 0 0 0 0 0 0 0 0 0 0 0 0 8 7 6 0
481 461 252 27 49 0 84 235 246 262 359 484 383 233 70 0 0 0 0 0 0 0 0 0 0 0 0 0 0 0 0 0 0 0 0 0 2 12 13 30 24 3 0
179 89 8 24 94 191 34 8 6 1 19 212 335 180 4 0 0 0 0 0 0 0 0 0 0 0 0 0 0 0 0 0 0 0 0 0 13 50 33 15 6 2 0
53 7 5 28 104 38 12 0 0 0 1 2 0 0 0 0 0 0 0 0 0 0 0 0 0 0 0 0 0 0 0 0 0 0 0 0 1 30 40 2 0 0 0
3 0 0 427 112 4 0 0 0 0 0 0 0 0 0 0 0 0 0 0 0 0 0 0 0 0 0 0 0 0 0 0 0 0 0 0 0 0 13 12 5 0 0
0 3 286 75 0 0 0 0 0 0 0 0 0 0 0 0 0 0 0 0 0 0 0 0 0 0 0 0 0 0 0 0 0 0 0 0 0 0 0 41 26 10 0
22 213 256 23 0 0 6 0 0 0 0 0 0 0 0 0 0 0 0 0 0 0 0 0 0 0 0 0 0 0 0 0 0 0 0 0 0 0 0 0 0 0 0
159 402 308 124 0 16 0 0 0 0 0 0 0 0 0 0 0 0 0 0 0 0 0 0 0 0 0 0 0 0 0 0 0 0 0 0 0 0 0 0 0 0 0
258 420 259 200 69 81 0 0 0 0 0 0 0 0 0 0 0 0 0 0 0 0 0 0 0 0 0 0 0 0 0 0 0 0 0 0 0 0 0 0 0 0 0
332 351 324 185 86 14 0 0 0 0 0 0 0 0 0 0 0 0 0 0 0 0 0 0 0 0 0 0 0 0 0 0 0 0 0 0 0 0 0 0 0 0 0
368 439 391 275 0 0 0 0 0 0 0 0 0 0 0 0 0 0 0 0 0 0 0 0 0 0 0 0 0 0 0 0 0 0 0 0 0 0 0 0 0 0 0
698 518 378 0 0 0 0 0 0 0 0 0 0 0 0 0 0 0 0 0 0 0 0 0 0 0 0 0 0 0 0 0 0 0 0 0 0 0 0 0 0 0 0
500 43 0 0 0 0 0 0 0 0 0 0 0 0 0 0 0 0 0 0 0 0 0 0 0 0 0 0 0 0 0 0 0 0 0 0 0 0 0 0 0 0 0

GFSSE_con_sbcape_018.txt.gz
CAPE
768 833 800 809 736 641 665 784 743 615 509 432 403 325 232 152 125 71 39 19 48 0 0 0 0 0 0 0 0 0 0 0 0 200 585 505 273 376 276 384 507 343 531
625 724 654 714 693 720 957 895 822 673 577 444 404 316 214 143 123 100 65 115 43 0 0 0 0 0 0 0 0 4 0 0 124 309 590 338 286 493 333 419 694 403 421
656 640 543 553 693 896 1075 971 774 613 377 229 189 223 154 55 85 161 159 181 191 16 0 0 0 0 0 0 75 108 294 430 342 502 481 4 5 356 296 296 513 350 427
487 461 392 575 755 1055 1012 888 550 367 253 245 174 97 130 75 95 274 239 243 278 42 6 0 0 0 0 63 151 105 194 105 165 208 0 25 36 139 133 47 0 0 51
207 236 416 593 859 1074 909 686 492 471 368 317 221 105 109 130 108 199 304 330 249 46 26 10 4 0 82 169 148 41 56 10 0 0 0 38 67 91 117 89 50 0 0
234 317 386 536 960 899 838 652 537 395 288 238 192 208 217 145 164 345 358 329 92 52 29 27 23 53 184 205 187 62 47 0 0 0 0 40 60 213 58 139 84 41 78
202 154 157 297 397 436 632 632 494 350 261 195 156 263 293 287 230 398 369 353 234 103 106 93 103 249 182 305 239 94 57 0 0 0 0 0 87 100 47 58 79 73 51
118 113 145 223 181 231 358 489 375 329 237 160 180 304 344 333 345 423 446 452 434 378 286 182 123 127 112 177 214 113 3 0 0 0 0 0 371 125 103 139 279 624 351
10 31 20 28 69 184 226 294 340 269 175 198 223 267 295 312 359 425 454 459 346 210 54 20 31 41 64 95 168 135 0 0 0 0 0 0 542 138 118 187 270 341 372
7 22 11 3 1 105 254 272 212 208 149 182 224 221 210 265 350 385 326 279 185 4 0 3 29 19 46 150 137 53 0 0 0 0 0 0 173 0 0 93 51 5 23
9 7 0 17 132 136 236 192 201 182 108 124 169 148 54 42 49 66 32 60 39 3 0 8 33 77 0 15 27 0 0 0 0 0 0 25 28 0 0 20 0 0 0
0 2 15 5 144 160 176 120 46 58 24 8 5 6 0 0 0 10 55 25 23 35 47 12 41 0 0 0 0 0 0 0 0 0 0 0 14 0 0 0 5 0 0
0 0 0 22 86 127 72 21 10 1 0 0 0 0 2 0 0 0 0 0 0 0 0 0 0 0 0 0 0 0 0 0 0 0 0 0 7 0 0 1 16 14 4
34 5 0 36 231 123 23 0 0 0 5 17 14 15 0 0 0 0 0 0 0 0 0 0 0 0 0 0 0 0 0 0 0 0 0 0 0 0 6 13 36 17 3
184 123 8 103 267 30 11 0 0 28 132 123 145 36 0 0 0 0 0 0 0 0 0 0 0 0 0 0 0 0 0 0 0 0 0 0 5 9 26 59 22 0 0
303 286 187 166 3 0 1 5 0 68 57 69 9 0 0 0 0 0 0 0 0 0 0 0 0 0 0 0 0 0 0 0 0 0 0 0 0 8 27 14 1 0 0
319 118 0 0 3 0 0 0 0 13 0 0 0 0 0 0 0 0 0 0 0 0 0 0 0 0 0 0 0 0 0 0 0 0 0 0 0 1 11 0 0 0 0
114 0 5 156 0 0 0 0 0 0 0 0 0 0 0 0 0 0 0 0 0 0 0 0 0 0 0 0 0 0 0 0 0 0 0 0 0 0 0 6 0 0 0
13 0 185 4 0 0 0 0 0 0 0 0 0 0 0 0 0 0 0 0 0 0 0 0 0 0 0 0 0 0 0 0 0 0 0 0 0 0 0 0 0 0 0
0 16 125 0 0 0 0 0 0 0 0 0 0 0 0 0 0 0 0 0 0 0 0 0 0 0 0 0 0 0 0 0 0 0 0 0 0 0 0 0 0 0 0
0 211 62 0 0 0 0 0 0 0 0 0 0 0 0 0 0 0 0 0 0 0 0 0 0 0 0 0 0 0 0 0 0 0 0 0 0 0 0 0 0 0 0
139 277 37 0 0 0 0 0 0 0 0 0 0 0 0 0 0 0 0 0 0 0 0 0 0 0 0 0 0 0 0 0 0 0 0 0 0 0 0 0 0 0 0
286 277 93 0 0 0 0 0 0 0 0 0 0 0 0 0 0 0 0 0 0 0 0 0 0 0 0 0 0 0 0 0 0 0 0 0 0 0 0 0 0 0 0
366 340 202 70 0 0 0 0 0 0 0 0 0 0 0 0 0 0 0 0 0 0 0 0 0 0 0 0 0 0 0 0 0 0 0 0 0 0 0 0 0 0 0
277 213 129 18 0 0 0 0 0 0 0 0 0 0 0 0 0 0 0 0 0 0 0 0 0 0 0 0 0 0 0 0 0 0 0 0 0 0 0 0 0 0 0
153 260 152 0 0 0 0 0 0 0 0 0 0 0 0 0 0 0 0 0 0 0 0 0 0 0 0 0 0 0 0 0 0 0 0 0 0 0 0 0 0 0 0

GFSSE_con_sbcape_021.txt.gz
CAPE
674 753 782 742 697 739 728 570 392 362 356 310 208 86 85 43 57 107 97 24 8 0 0 0 0 0 0 0 0 0 0 35 404 518 599 409 324 223 219 298 271 139 290
621 707 733 677 735 881 826 663 518 487 386 242 210 106 82 96 114 161 97 107 104 0 0 0 0 0 0 24 200 222 66 185 519 495 272 374 298 199 214 174 442 179 329
665 663 604 620 831 966 939 753 611 453 332 133 106 112 80 121 175 184 195 198 143 70 0 0 0 0 0 60 467 604 512 521 530 389 112 0 0 41 0 0 0 0 65
768 622 435 670 920 989 808 664 508 310 165 189 98 69 115 98 155 259 278 232 200 97 1 0 0 0 0 85 166 243 313 150 166 21 0 0 11 55 42 2 0 0 0
636 483 568 794 877 976 706 497 410 401 332 226 151 128 117 148 112 192 325 288 219 22 25 11 7 10 81 62 118 108 55 0 0 0 0 0 0 11 42 0 0 0 0
408 414 458 858 906 876 712 621 545 410 261 194 238 309 274 269 134 297 330 279 59 32 41 48 25 167 171 38 79 42 0 0 0 0 0 0 0 46 0 0 0 0 44
183 208 358 665 672 582 725 604 474 382 281 263 359 414 462 456 296 408 323 306 226 79 64 48 153 245 170 23 35 28 0 0 0 0 0 0 2 59 20 80 85 97 90
10 3 128 291 257 224 467 475 359 339 298 340 411 447 486 462 433 425 409 404 370 307 256 160 86 186 253 67 0 11 0 0 0 0 0 0 328 95 96 158 207 207 119
3 3 6 6 4 20 239 270 224 267 279 366 398 404 400 368 365 379 404 372 298 179 114 73 90 144 277 59 0 0 0 0 0 0 0 0 217 0 6 18 0 18 71
2 3 1 1 50 133 173 166 154 180 229 287 351 307 279 308 351 322 289 251 109 41 61 79 150 48 297 3 0 0 0 0 0 0 0 0 47 5 9 2 0 0 0
5 4 3 0 0 47 120 172 199 199 207 243 233 225 128 86 64 15 87 33 10 1 22 94 18 0 0 0 0 0 0 0 0 0 0 0 0 1 0 0 0 0 0
12 8 0 0 2 165 310 173 77 73 72 49 37 15 2 0 2 0 40 33 30 17 17 0 0 0 0 0 0 0 0 0 0 0 0 0 0 0 0 15 0 0 0
5 0 11 27 95 203 130 36 5 3 0 0 0 0 0 0 0 0 0 0 0 0 0 0 0 0 0 0 0 0 0 0 0 0 0 0 0 0 0 14 17 8 0
1 19 12 32 153 145 35 9 3 0 0 0 0 0 0 0 0 0 0 0 0 0 0 0 0 0 0 0 0 0 0 0 0 0 0 0 5 4 6 41 52 10 0
2 15 4 0 194 106 0 0 0 0 9 29 1 0 0 0 0 0 0 0 0 0 0 0 0 0 0 0 0 0 0 0 0 0 0 0 2 14 6 69 43 14 4
75 18 0 9 210 12 0 0 0 8 43 43 14 0 0 0 0 0 0 0 0 0 0 0 0 0 0 0 0 0 0 0 0 0 0 0 2 59 57 30 11 5 12
191 170 148 132 52 0 0 0 0 32 4 0 0 0 0 0 0 0 0 0 0 0 0 0 0 0 0 0 0 0 0 0 0 0 0 0 0 1 0 0 0 2 4
304 184 2 137 0 0 0 0 0 0 0 0 0 0 0 0 0 0 0 0 0 0 0 0 0 0 0 0 0 0 0 0 0 0 0 0 0 0 0 0 0 0 0
273 3 5 2 0 0 0 0 0 0 0 0 0 0 0 0 0 0 0 0 0 0 0 0 0 0 0 0 0 0 0 0 0 0 0 0 0 0 0 0 0 0 0
83 0 13 0 0 0 0 0 0 0 0 0 0 0 0 0 0 0 0 0 0 0 0 0 0 0 0 0 0 0 0 0 0 0 0 0 0 0 0 0 0 0 0
0 48 0 0 0 0 0 0 0 0 0 0 0 0 0 0 0 0 0 0 0 0 0 0 0 0 0 0 0 0 0 0 0 0 0 0 0 0 0 0 0 0 0
0 76 0 0 0 0 0 0 0 0 0 0 0 0 0 0 0 0 0 0 0 0 0 0 0 0 0 0 0 0 0 0 0 0 0 0 0 0 0 0 0 0 0
0 82 0 0 0 0 0 0 0 0 0 0 0 0 0 0 0 0 0 0 0 0 0 0 0 0 0 0 0 0 0 0 0 0 0 0 0 0 0 0 0 0 0
4 100 87 0 0 0 0 0 0 0 0 0 0 0 0 0 0 0 0 0 0 0 0 0 0 0 0 0 0 0 0 0 0 0 0 0 0 0 0 0 0 0 0
14 77 119 0 0 0 0 0 0 0 0 0 0 0 0 0 0 0 0 0 0 0 0 0 0 0 0 0 0 0 0 0 0 0 0 0 0 0 0 0 0 0 0
21 80 66 0 0 0 0 0 0 0 0 0 0 0 0 0 0 0 0 0 0 0 0 0 0 0 0 0 0 0 0 0 0 0 0 0 0 0 0 0 0 0 0

GFSSE_con_sbcape_024.txt.gz
CAPE
679 851 763 808 779 660 490 413 391 370 320 237 177 109 50 12 75 26 57 56 93 61 0 0 0 44 114 117 31 27 274 378 502 601 442 143 109 236 142 150 149 132 236
771 808 724 791 781 678 519 456 402 360 268 229 160 112 94 125 89 122 142 141 143 123 4 7 52 180 347 264 111 277 357 407 350 249 122 4 5 0 0 0 42 2 98
827 767 638 754 868 779 660 579 463 354 267 152 140 144 195 196 209 240 167 168 178 158 3 0 46 279 374 425 531 569 345 247 286 228 0 0 0 2 0 0 0 0 0
835 651 585 952 935 766 647 556 401 258 200 218 176 179 277 226 228 302 207 180 205 187 0 0 0 26 86 332 432 333 286 169 93 0 0 0 0 0 0 0 0 0 0
784 500 704 927 841 801 655 479 370 315 258 237 224 201 253 247 184 253 283 263 311 255 3 2 0 4 56 111 126 165 27 8 0 0 0 0 0 0 0 0 0 0 0
679 458 591 702 798 761 681 593 475 344 254 251 309 349 373 320 186 390 323 303 264 173 20 12 0 13 150 44 48 27 0 0 0 0 0 0 0 0 1 1 1 2 2
204 135 341 422 539 649 825 674 488 353 330 408 466 455 456 487 428 463 393 419 333 226 166 85 126 40 102 44 51 14 0 0 0 0 0 0 1 23 38 80 20 4 2
1 1 45 225 244 344 549 475 378 409 469 565 581 601 618 531 499 486 487 437 352 256 236 300 270 75 52 102 36 0 0 0 0 0 0 0 86 8 7 49 55 43 30
2 3 3 3 25 163 276 318 318 380 475 551 555 524 512 475 437 440 404 392 342 282 217 257 437 130 12 4 10 0 0 0 0 0 0 0 62 2 0 0 16 33 44
2 4 3 1 8 61 145 222 239 283 338 377 408 372 303 337 388 314 278 312 237 197 243 170 222 32 0 0 0 0 0 0 0 0 0 0 46 16 0 0 0 0 0
4 1 5 5 17 1 148 223 250 300 264 275 255 237 99 85 72 1 61 86 82 64 121 40 0 0 0 0 0 0 0 0 0 0 0 8 20 20 17 0 0 0 0
6 2 0 0 0 0 212 145 46 93 68 72 72 46 24 5 0 3 24 91 64 47 0 0 0 0 0 0 0 0 0 0 0 0 0 13 0 1 28 17 21 21 21
5 1 7 1 0 0 165 88 36 13 1 3 5 0 0 0 0 0 0 0 0 0 0 0 0 0 0 0 0 0 0 0 0 0 0 1 7 5 22 53 41 24 16
0 0 0 0 69 113 15 0 0 0 0 0 0 0 0 0 0 0 0 0 0 0 0 0 0 0 0 0 0 0 0 0 0 0 0 0 13 9 4 73 51 30 5
5 0 2 0 58 72 0 0 0 0 0 0 0 0 0 0 0 0 0 0 0 0 0 0 0 0 0 0 0 0 0 0 0 0 0 0 31 22 21 74 27 15 14
18 5 0 0 90 34 0 0 0 0 0 0 0 0 0 0 0 0 0 0 0 0 0 0 0 0 0 0 0 0 0 0 0 0 0 0 0 0 2 5 0 6 16
0 0 0 0 63 3 0 0 0 0 6 0 0 0 0 0 0 0 0 0 0 0 0 0 0 0 0 0 0 0 0 0 0 0 0 0 0 0 0 0 0 1 1
54 59 3 52 30 0 0 0 0 0 0 0 0 0 0 0 0 0 0 0 0 0 0 0 0 0 0 0 0 0 0 0 0 0 0 0 0 0 0 0 0 0 0
170 148 33 39 0 0 0 0 0 0 0 0 0 0 0 0 0 0 0 0 0 0 0 0 0 0 0 0 0 0 0 0 0 0 0 0 0 0 0 0 0 0 0
162 19 17 1 0 0 0 0 0 0 0 0 0 0 0 0 0 0 0 0 0 0 0 0 0 0 0 0 0 0 0 0 0 0 0 0 0 0 0 0 0 0 0
17 0 4 0 0 0 0 0 0 0 0 0 0 0 0 0 0 0 0 0 0 0 0 0 0 0 0 0 0 0 0 0 0 0 0 0 0 0 0 0 0 0 0
18 0 0 0 0 0 0 0 0 0 0 0 0 0 0 0 0 0 0 0 0 0 0 0 0 0 0 0 0 0 0 0 0 0 0 0 0 0 0 0 0 0 0
6 0 0 0 0 0 0 0 0 0 0 0 0 0 0 0 0 0 0 0 0 0 0 0 0 0 0 0 0 0 0 0 0 0 0 0 0 0 0 0 0 0 0
0 0 6 0 0 0 0 0 0 0 0 0 0 0 0 0 0 0 0 0 0 0 0 0 0 0 0 0 0 0 0 0 0 0 0 0 0 0 0 0 0 0 0
6 0 0 0 0 0 0 0 0 0 0 0 0 0 0 0 0 0 0 0 0 0 0 0 0 0 0 0 0 0 0 0 0 0 0 0 0 0 0 0 0 0 0
0 6 1 0 0 0 0 0 0 0 0 0 0 0 0 0 0 0 0 0 0 0 0 0 0 0 0 0 0 0 0 0 0 0 0 0 0 0 0 0 0 0 0

GFSSE_con_sbcape_027.txt.gz
CAPE
633 449 860 929 802 692 626 555 470 415 351 248 167 126 137 110 94 135 179 171 185 204 52 129 159 171 102 287 247 44 246 371 458 357 268 15 1 0 0 0 45 57 228
773 482 796 915 850 764 659 540 466 378 312 248 204 208 155 155 182 246 227 239 240 227 201 290 322 260 284 385 366 274 160 295 322 201 102 1 1 0 0 0 0 0 0
859 565 741 871 833 751 693 593 450 366 327 265 290 256 244 294 258 263 254 256 258 325 377 512 449 392 456 433 519 319 153 141 199 111 19 0 0 0 0 0 0 0 0
851 563 493 846 711 728 645 532 428 358 276 288 340 320 382 389 368 308 290 278 267 272 259 324 504 579 525 413 449 345 165 100 44 0 0 0 0 0 0 0 0 0 0
889 616 672 873 757 808 600 414 314 280 258 322 363 412 475 430 431 414 373 327 333 251 65 112 186 232 220 283 284 182 37 0 0 0 0 0 4 8 7 4 2 2 1
964 770 678 651 649 799 648 468 309 273 233 277 346 450 527 461 478 500 420 379 355 228 0 36 89 96 169 141 122 56 18 0 0 0 0 4 6 11 17 17 36 15 18
813 799 587 489 473 611 824 514 321 272 306 346 424 473 526 533 523 513 414 383 349 298 126 42 119 139 139 163 85 11 0 2 0 0 0 5 18 13 12 32 31 34 38
231 208 284 257 130 143 471 304 318 403 466 451 487 575 682 615 514 446 350 278 299 382 360 142 159 191 178 93 7 9 4 0 0 0 0 4 29 9 7 17 45 59 56
7 2 1 9 2 65 235 278 356 512 502 558 564 590 579 471 433 392 330 263 261 325 418 186 60 171 119 0 0 0 0 0 0 0 0 2 35 4 2 1 0 1 22
7 6 5 2 3 15 93 309 402 387 431 461 495 399 311 359 346 337 260 243 228 216 359 109 37 20 0 0 0 0 0 0 0 0 0 11 42 8 0 0 0 13 18
8 9 6 15 1 17 138 334 407 410 402 367 308 273 146 129 91 38 71 128 191 73 78 51 0 0 0 0 0 0 0 0 0 0 0 27 17 23 19 16 19 27 34
9 12 10 2 0 0 56 133 232 268 201 176 152 136 96 117 75 42 85 154 38 0 0 0 0 0 0 0 0 0 0 0 0 0 0 9 0 12 38 35 34 32 28
4 4 3 0 0 0 0 46 122 144 121 134 116 107 92 117 19 14 0 0 0 0 0 0 0 0 0 0 0 0 0 0 0 0 0 0 0 0 52 43 24 10 1
13 17 4 0 0 2 8 165 72 56 71 99 41 97 153 18 0 0 0 0 0 0 0 0 0 0 0 0 0 0 0 0 0 0 0 13 1 0 24 59 16 8 6
16 15 6 0 0 104 165 111 38 32 37 52 73 134 75 0 0 0 0 0 0 0 0 0 0 0 0 0 0 0 0 0 0 0 0 0 17 15 46 43 15 13 10
5 15 5 29 108 234 210 39 4 26 43 38 76 85 0 0 0 0 0 0 0 0 0 0 0 0 0 0 0 0 0 0 0 0 0 0 0 0 5 3 1 15 21
2 7 6 14 204 388 183 6 4 1 57 106 94 0 0 0 0 0 0 0 0 0 0 0 0 0 0 0 0 0 0 0 0 0 0 0 0 0 0 0 0 0 0
13 20 22 10 131 427 143 0 2 57 260 253 62 0 0 0 0 0 0 0 0 0 0 0 0 0 0 0 0 0 0 0 0 0 0 0 0 0 0 0 0 0 0
124 99 67 92 192 360 166 1 35 199 243 102 22 0 0 0 0 0 0 0 0 0 0 0 0 0 0 0 0 0 0 0 0 0 0 0 0 0 0 0 0 0 0
148 187 143 133 217 262 70 7 25 54 6 2 1 0 0 0 0 0 0 0 0 0 0 0 0 0 0 0 0 0 0 0 0 0 0 0 0 0 0 0 0 0 0
254 256 248 235 246 149 29 45 57 124 0 0 0 0 0 0 0 0 0 0 0 0 0 0 0 0 0 0 0 0 0 0 0 0 0 0 0 0 0 0 0 0 0
367 376 354 320 225 149 138 44 37 2 0 0 0 0 0 0 0 0 0 0 0 0 0 0 0 0 0 0 0 0 0 0 0 0 0 0 0 0 0 0 0 0 0
449 482 434 360 232 176 101 0 0 0 0 0 0 0 0 0 0 0 0 0 0 0 0 0 0 0 0 0 0 0 0 0 0 0 0 0 0 0 0 0 0 0 0
422 455 405 226 97 61 0 0 0 0 0 0 0 0 0 0 0 0 0 0 0 0 0 0 0 0 0 0 0 0 0 0 0 0 0 0 0 0 0 0 0 0 0
440 421 461 253 101 34 0 0 0 0 0 0 0 0 0 0 0 0 0 0 0 0 0 0 0 0 0 0 0 0 0 0 0 0 0 0 0 0 0 0 0 0 0
481 478 494 346 182 60 0 0 0 0 0 0 0 0 0 0 0 0 0 0 0 0 0 0 0 0 0 0 0 0 0 0 0 0 0 0 0 0 0 0 0 0 0

GFSSE_con_sbcape_030.txt.gz
CAPE
590 477 909 1066 1135 1098 966 835 696 515 397 205 145 194 202 153 180 187 214 235 287 314 159 185 219 363 46 11 260 252 253 348 324 220 178 2 0 0 0 40 96 65 192
703 347 873 953 1093 1082 918 724 552 411 276 204 252 181 178 261 290 269 324 323 421 367 270 245 374 250 30 36 115 144 110 197 223 221 195 0 0 0 0 0 0 1 5
667 315 782 908 977 936 852 669 491 356 290 332 226 230 321 373 369 365 344 480 765 921 486 301 369 196 57 82 242 199 94 110 132 0 2 0 0 0 0 0 10 1 2
713 453 235 956 922 866 709 574 456 374 397 312 318 416 444 462 481 426 406 459 872 1031 766 449 376 184 131 295 330 224 65 38 0 0 0 4 0 5 4 2 1 5 5
1040 533 687 872 842 851 676 542 352 323 379 360 507 579 567 555 561 537 471 362 618 780 540 521 276 142 256 298 221 121 19 13 0 9 6 25 26 25 17 23 39 23 6
1174 800 678 749 852 830 688 486 353 358 333 418 538 590 632 657 665 612 541 400 365 419 221 222 34 100 211 183 153 49 28 0 0 2 11 22 26 24 23 30 34 32 40
1184 1062 975 697 817 741 649 485 422 417 353 464 499 494 619 730 743 729 530 451 296 345 245 151 88 193 221 133 12 7 5 0 0 0 11 18 28 17 16 18 48 52 39
1061 877 581 565 397 438 437 384 385 388 465 535 519 572 661 651 574 515 487 533 410 263 332 278 246 185 77 0 0 0 0 0 0 0 3 9 18 4 8 7 21 26 28
477 129 44 0 0 35 206 300 419 495 527 587 628 591 480 442 361 380 363 411 425 261 205 282 254 66 0 0 0 0 0 0 0 0 0 11 0 2 2 1 2 8 8
4 5 3 1 0 0 117 340 430 444 488 505 500 344 335 291 332 325 302 351 473 276 159 169 71 0 0 0 0 0 0 0 0 0 0 11 26 0 0 0 7 6 4
6 9 5 1 7 35 104 261 452 572 441 339 342 280 145 44 28 59 183 293 339 160 43 1 0 0 0 0 0 0 0 0 0 0 0 23 27 23 10 9 21 22 20
7 9 5 8 14 5 85 143 349 384 228 261 226 138 107 194 62 34 153 123 29 2 0 0 0 0 0 0 0 0 0 0 0 0 0 0 0 41 33 33 33 23 11
12 13 6 2 2 1 0 77 227 197 253 266 197 122 154 206 139 165 132 4 0 0 0 0 0 0 0 0 0 0 0 0 0 0 0 0 0 4 53 32 24 27 23
11 13 12 0 0 0 0 49 84 104 125 151 147 162 227 148 166 93 50 3 0 0 0 0 0 0 0 0 0 0 0 0 0 0 0 0 14 0 114 38 18 19 19
13 15 0 0 0 0 6 11 79 151 123 62 87 112 97 46 115 36 3 0 0 0 0 0 0 0 0 0 0 0 0 0 0 0 0 0 1 29 72 51 37 23 13
14 8 0 2 0 28 77 122 57 80 30 69 221 354 292 84 65 0 0 0 0 0 0 0 0 0 0 0 0 0 0 0 0 0 0 0 0 0 0 3 20 32 12
39 12 3 41 88 20 150 254 10 75 39 130 380 516 368 89 6 0 0 0 0 0 0 0 0 0 0 0 0 0 0 0 0 0 0 0 0 0 0 0 0 0 0
60 22 35 71 149 176 267 206 0 53 117 290 511 592 323 76 0 0 0 0 0 0 0 0 0 0 0 0 0 0 0 0 0 0 0 0 0 0 0 0 0 0 0
19 12 44 117 214 441 587 187 10 142 425 702 742 597 295 42 0 0 0 0 0 0 0 0 0 0 0 0 0 0 0 0 0 0 0 0 0 0 0 0 0 0 0
131 166 200 299 447 687 619 228 42 329 646 853 778 541 171 7 0 0 0 0 0 0 0 0 0 0 0 0 0 0 0 0 0 0 0 0 0 0 0 0 0 0 0
434 303 289 303 425 749 647 171 92 439 663 825 765 456 113 0 0 0 0 0 0 0 0 0 0 0 0 0 0 0 0 0 0 0 0 0 0 0 0 0 0 0 0
423 532 524 517 605 766 501 156 176 375 623 819 575 355 105 0 0 0 0 0 0 0 0 0 0 0 0 0 0 0 1 0 0 0 0 0 0 0 0 0 0 0 0
366 476 544 630 710 711 479 250 437 555 298 473 187 120 110 0 0 0 0 0 0 0 0 0 0 0 0 0 0 0 0 0 0 0 0 0 0 0 0 0 0 0 0
658 594 647 615 723 805 749 522 411 459 525 432 204 147 16 0 0 0 0 0 0 0 0 0 0 0 0 0 0 0 0 0 0 0 0 0 1 0 1 0 0 1 0
1001 885 1035 984 902 840 847 650 582 688 746 683 117 11 0 0 0 0 0 0 0 0 0 0 0 0 0 0 0 0 0 0 0 0 0 0 0 0 0 2 3 0 0
1303 1164 1096 1213 1099 920 944 862 844 861 888 388 18 0 0 0 0 0 0 0 0 0 0 0 0 0 0 0 0 0 0 0 0 0 0 0 0 0 0 0 2 4 7

GFSSE_con_sbcape_033.txt.gz
CAPE
797 912 1356 1509 1410 1323 1204 1026 812 594 437 316 307 356 296 221 220 346 362 387 439 453 281 342 66 70 134 94 128 160 180 278 231 204 118 8 1 0 0 52 23 31 155
932 962 1230 1463 1476 1425 1253 965 709 506 418 425 480 372 294 320 401 449 494 553 626 582 473 181 0 0 7 48 89 129 91 158 265 222 41 0 1 2 3 0 1 8 10
867 1040 1374 1354 1418 1321 1131 879 642 475 509 540 442 442 465 450 539 575 701 737 772 773 477 122 0 0 21 68 165 119 44 52 4 111 101 0 3 10 6 19 43 2 6
755 996 1434 1235 1197 1094 906 724 565 578 570 498 536 576 544 606 599 764 1100 1140 945 937 493 137 60 53 91 147 154 137 58 0 9 150 23 11 3 21 23 9 0 21 14
554 746 1297 1036 1003 977 793 638 547 638 467 525 646 720 705 630 602 702 1065 1165 1136 1079 444 135 102 91 137 223 180 79 27 59 32 21 4 11 12 22 18 23 40 30 32
290 625 881 899 907 890 794 639 634 460 470 623 691 761 768 673 661 525 647 919 1147 974 180 140 67 48 212 199 98 9 0 20 124 30 14 9 8 17 22 26 38 54 43
298 1174 1048 865 896 910 778 694 614 500 641 702 699 714 744 722 696 531 416 571 657 556 263 111 52 93 132 55 0 0 4 3 1 15 11 7 11 10 10 13 16 5 4
1076 925 816 961 836 689 591 577 500 571 672 690 730 837 903 753 638 618 418 450 542 395 348 286 213 106 0 0 0 0 0 0 0 11 13 4 21 8 7 10 8 8 9
311 179 256 345 443 344 273 316 389 529 658 717 754 640 460 397 411 413 341 296 355 348 350 239 114 13 0 0 0 0 0 0 0 0 10 2 0 2 6 10 12 8 7
58 1 1 2 42 384 328 351 431 520 611 572 439 353 330 340 382 367 348 294 298 363 310 94 9 0 0 0 0 0 0 0 0 0 0 9 20 7 12 15 15 11 9
3 4 0 0 5 64 180 427 562 610 424 373 334 237 146 121 108 151 324 360 249 196 130 25 0 0 0 0 0 0 0 0 0 0 0 28 18 17 13 22 23 23 17
5 4 7 2 0 0 0 2 49 77 143 220 137 221 140 270 299 133 223 206 94 7 0 0 0 0 0 0 0 0 0 0 0 0 0 10 23 41 35 32 27 21 17
12 16 6 0 0 0 0 0 84 167 243 301 373 311 361 371 283 277 97 9 0 0 0 0 0 0 0 0 0 0 0 0 0 0 0 0 0 33 38 29 19 20 14
14 12 12 24 1 0 0 29 121 105 186 249 265 311 457 401 488 442 219 47 13 0 0 0 0 0 0 0 0 0 0 0 0 0 0 0 0 0 51 25 22 20 10
6 1 1 0 0 0 0 0 75 103 139 163 292 306 286 370 445 272 207 62 2 0 0 0 0 0 0 0 0 0 0 0 0 0 0 0 1 11 59 37 22 17 7
4 4 0 0 0 0 1 2 67 185 96 167 248 252 208 212 418 216 161 14 1 0 0 0 0 0 0 0 0 0 0 0 0 0 0 0 0 0 0 12 26 21 8
0 2 0 0 0 20 16 2 33 61 140 177 167 599 370 173 314 232 146 42 0 0 0 0 0 0 0 0 0 0 0 0 0 0 0 0 0 0 0 0 0 0 0
0 0 0 0 13 16 49 88 141 126 123 107 302 604 586 402 330 243 142 42 0 0 0 0 0 0 0 0 0 0 0 0 0 0 0 0 0 0 0 0 0 0 0
0 1 18 73 13 73 242 214 120 181 194 237 748 909 686 475 284 261 152 32 0 0 0 0 0 0 0 0 0 0 0 0 0 0 0 0 0 0 0 0 0 0 0
76 30 86 183 158 149 356 344 109 15 126 358 712 777 765 504 274 260 130 0 0 0 0 0 0 0 0 0 0 0 0 0 0 0 0 0 0 0 0 0 0 0 0
120 67 55 110 193 377 402 285 49 15 163 551 784 845 697 464 254 197 79 8 0 0 0 0 0 0 0 0 0 0 0 0 0 0 0 0 0 0 0 0 0 0 0
267 283 220 189 301 379 258 258 30 64 163 547 1029 793 708 577 226 144 109 0 0 0 0 0 0 0 0 0 0 0 1 0 0 0 0 0 0 0 0 0 0 0 0
451 397 400 397 434 548 427 280 39 40 360 482 690 778 755 534 244 95 63 0 1 0 0 0 0 0 0 0 0 0 0 4 0 0 0 0 0 0 0 0 0 0 0
456 585 535 504 485 532 531 333 107 228 294 561 691 702 602 538 290 77 13 3 0 0 0 0 0 0 0 0 0 0 0 0 0 0 0 0 0 0 0 1 0 0 0
571 564 728 609 627 649 728 640 463 438 477 538 691 730 561 597 227 48 0 1 0 0 0 0 0 0 0 0 0 0 10 0 0 0 0 0 0 0 0 1 3 1 0
766 1002 1040 710 639 715 861 942 1264 886 768 769 1171 703 573 259 12 0 0 0 0 0 0 0 0 0 0 0 0 0 0 0 0 0 2 0 0 0 0 0 0 0 2

GFSSE_con_sbcape_036.txt.gz
CAPE
1051 1327 1393 1388 1355 1211 1114 948 797 625 476 462 428 361 312 410 539 569 541 519 680 564 31 94 2 0 0 0 0 15 179 173 82 18 7 7 0 0 0 47 19 10 193
1230 1626 1435 1423 1508 1413 1196 935 729 569 583 606 528 393 476 587 576 650 665 644 831 326 0 0 0 0 0 0 27 139 151 208 59 38 27 11 11 21 19 2 20 4 14
1248 1808 1686 1450 1543 1458 1169 929 746 711 772 660 538 539 622 687 747 800 751 772 829 306 0 0 0 0 0 0 79 58 47 100 155 165 24 0 16 21 18 30 41 13 13
1440 1754 1696 1369 1315 1233 1015 794 754 826 795 686 712 728 799 867 1022 976 897 834 739 405 0 0 0 0 0 44 103 87 100 91 118 84 1 0 4 39 39 23 30 25 21
1215 1501 1465 1212 1126 1081 874 743 750 756 688 738 780 917 884 1110 1360 1268 992 950 821 484 68 0 0 0 7 52 29 21 28 47 26 0 0 0 3 20 20 30 29 35 35
318 1221 942 971 931 899 827 892 801 677 720 744 811 869 863 1151 1376 1305 1126 1068 830 447 83 0 0 0 60 11 0 28 43 50 21 0 0 0 0 20 21 16 16 23 20
20 939 734 723 743 874 976 928 785 836 817 855 878 812 784 834 976 1062 1129 945 491 419 126 12 0 5 13 0 0 0 3 20 0 0 0 0 0 13 18 12 8 7 6
125 518 552 831 775 719 800 770 766 820 862 907 894 916 933 685 627 798 777 566 448 370 306 211 145 14 0 0 0 0 0 8 6 0 0 0 10 6 9 9 7 6 6
1 109 166 291 568 490 465 552 617 692 807 883 863 709 605 461 394 558 651 516 441 340 240 175 66 0 0 0 0 0 0 5 0 0 0 0 12 12 16 16 14 10 9
17 59 28 78 227 296 365 434 524 610 569 418 397 332 298 338 350 348 389 419 391 282 172 32 0 0 0 0 0 0 0 0 0 0 0 1 20 11 13 8 12 13 12
5 4 0 9 102 150 187 335 361 483 349 284 247 234 113 89 58 174 291 394 371 221 93 0 0 0 0 0 0 0 0 0 0 0 0 28 22 16 15 16 7 6 13
6 3 1 0 0 10 51 122 169 205 161 99 64 136 149 192 168 253 253 272 229 133 30 0 0 0 0 0 0 0 0 0 0 0 0 0 23 26 26 23 11 8 13
6 2 0 0 0 0 0 0 0 44 173 203 226 205 270 217 209 198 88 38 3 1 0 0 0 0 0 0 0 0 0 0 0 0 0 0 2 27 26 18 19 20 12
9 6 11 0 0 0 0 0 0 23 129 299 252 361 415 355 299 149 76 51 0 0 0 0 0 0 0 0 0 0 0 0 0 0 0 0 0 18 38 28 29 18 8
6 6 3 0 0 0 0 0 1 46 125 170 333 371 403 336 394 235 167 64 0 8 0 0 0 0 0 0 0 0 0 0 0 0 0 0 1 83 52 40 40 17 6
1 2 0 1 0 0 33 45 16 73 72 135 284 330 359 389 365 334 313 216 89 0 0 0 0 0 0 0 0 0 0 0 0 0 0 0 0 4 27 33 43 26 11
1 0 0 0 0 0 0 2 17 43 2 58 220 296 321 162 231 351 153 166 91 3 1 0 0 0 0 0 0 0 0 0 0 0 0 0 0 0 0 0 0 0 0
0 0 0 0 0 0 0 0 0 5 87 154 160 370 365 321 360 480 285 150 57 0 0 0 0 0 0 0 0 0 0 0 0 0 0 0 0 0 0 0 0 0 0
0 0 0 0 0 0 0 0 4 56 211 214 158 569 555 551 379 348 283 158 39 0 0 0 0 0 0 0 0 0 0 0 0 0 0 0 0 0 0 0 0 0 0
0 0 0 0 0 0 0 0 4 24 81 54 129 465 423 442 402 343 380 129 0 0 0 0 0 0 0 0 0 0 0 0 0 0 0 0 0 0 0 0 0 0 0
0 0 0 0 0 18 15 7 109 0 2 11 331 483 494 490 327 328 286 39 0 0 0 0 0 0 0 0 0 0 0 0 0 0 0 0 0 0 0 0 0 0 0
0 0 0 3 5 8 18 122 103 0 0 21 472 521 376 333 242 294 246 34 8 0 0 0 0 0 0 0 0 0 0 0 0 0 0 0 0 0 0 0 0 0 0
32 7 52 116 95 67 118 181 153 10 3 2 565 650 564 476 447 157 142 79 27 5 0 0 0 0 0 0 0 0 0 0 0 0 0 0 0 0 0 0 0 0 0
205 130 89 41 45 98 173 88 134 0 0 56 532 581 586 646 493 247 150 115 44 2 1 0 0 0 0 0 0 0 0 0 0 0 0 0 0 0 0 0 0 0 0
388 346 278 263 244 270 345 368 247 12 3 35 512 558 624 553 498 211 174 19 4 0 0 0 0 0 0 0 0 0 0 0 0 0 0 0 0 0 0 0 0 0 0
405 517 588 459 442 376 449 411 494 84 191 346 489 575 510 357 453 234 27 0 0 0 0 0 0 0 0 0 0 0 0 0 0 0 0 0 0 0 0 0 0 0 0

GFSSE_con_sbcape_039.txt.gz
CAPE
388 1440 1469 1547 1475 1309 1041 808 662 580 545 487 421 529 719 862 748 752 719 352 403 251 0 0 0 0 0 0 0 4 40 35 14 1 16 14 4 2 3 0 4 9 54
0 783 1402 1509 1483 1335 1074 790 602 625 590 500 558 732 813 811 737 869 560 315 309 148 0 0 0 0 0 0 27 146 65 45 29 52 17 11 22 25 12 9 17 6 18
0 6 1273 1456 1578 1378 1040 806 748 766 629 632 761 782 865 909 851 957 455 254 234 123 0 0 0 0 0 0 32 83 119 35 41 26 0 7 8 30 40 23 31 15 15
0 0 970 1392 1493 1260 877 804 779 756 718 833 883 925 986 1011 986 1019 394 287 285 128 0 0 0 0 0 10 32 34 36 22 10 0 0 0 16 39 35 42 40 36 24
233 921 1193 1193 1276 1031 824 816 690 708 779 887 962 1141 1141 1157 1186 1024 498 414 402 153 0 0 0 0 0 14 17 22 27 6 0 0 0 0 6 22 34 34 37 46 42
477 835 830 956 1000 982 896 877 762 757 760 849 996 1350 1476 1457 1314 1031 633 608 415 85 0 0 0 0 0 0 11 10 8 0 0 0 0 0 0 17 18 21 21 21 17
318 735 558 698 674 887 1068 959 893 772 818 857 1121 1421 1533 1472 1394 1130 671 562 298 143 6 0 0 0 0 0 14 10 8 0 0 0 0 0 0 10 15 15 13 14 14
242 124 37 358 684 755 762 763 947 917 837 828 911 1126 1391 1405 1328 942 623 485 321 247 131 31 0 0 0 0 1 0 0 0 0 0 0 0 16 15 15 14 12 11 11
200 370 132 232 476 196 87 528 731 791 810 851 726 701 740 834 857 702 608 492 336 237 125 20 0 0 0 0 0 0 0 0 0 0 0 0 21 17 19 12 12 13 13
93 63 144 82 90 227 284 422 572 603 455 339 324 229 237 474 630 510 400 342 242 184 86 0 0 0 0 0 0 0 0 0 0 0 0 0 15 22 28 22 22 16 14
52 54 75 49 46 66 131 368 493 456 229 178 136 56 8 31 112 212 325 308 227 112 34 0 0 0 0 0 0 0 0 0 0 0 0 26 20 19 24 18 16 15 19
28 11 1 2 19 9 50 98 145 78 18 11 4 7 1 40 84 205 278 258 186 97 37 12 0 0 0 0 0 0 0 0 0 0 0 19 26 25 26 21 21 18 13
2 1 0 0 0 0 2 12 22 21 9 22 39 46 74 99 74 66 93 77 49 10 0 0 0 0 0 0 0 0 0 0 0 0 0 2 27 24 23 15 21 19 16
1 1 0 0 0 0 0 0 0 19 28 36 88 103 93 98 58 47 13 0 0 0 0 0 0 0 0 0 0 0 0 0 0 0 0 0 1 12 19 19 17 12 7
3 4 0 0 0 0 0 0 0 7 31 60 143 153 172 117 66 42 10 0 0 0 0 0 0 0 0 0 0 0 0 0 0 0 0 0 0 36 33 37 16 16 6
4 3 5 0 0 0 0 0 0 26 25 14 120 156 186 148 100 48 47 0 0 0 0 0 0 0 0 0 0 0 0 0 0 0 0 0 1 47 49 45 25 11 3
3 3 4 3 0 0 0 1 1 31 15 8 5 148 137 160 140 173 47 19 0 0 0 0 0 0 0 0 0 0 0 0 0 0 0 0 0 0 10 32 1 0 0
0 0 0 0 0 0 0 0 2 0 0 0 0 63 100 37 43 62 16 9 0 0 0 0 0 0 0 0 0 0 0 0 0 0 0 0 0 0 0 0 0 0 0
0 0 0 0 0 0 0 0 0 0 0 0 0 0 83 147 63 119 44 4 0 0 0 0 0 0 0 0 0 0 0 0 0 0 0 0 0 0 0 0 0 0 0
0 0 0 0 0 0 0 0 0 0 0 0 10 91 161 175 153 110 69 13 0 0 0 0 0 0 0 0 0 0 0 0 0 0 0 0 0 0 0 0 0 0 0
0 0 0 0 0 0 0 0 0 0 0 1 0 196 198 178 250 65 55 8 0 0 0 0 0 0 0 0 0 0 0 0 0 0 0 0 0 0 0 0 0 0 0
0 0 0 0 0 0 0 0 0 0 0 0 0 61 187 241 160 51 0 0 0 0 0 0 0 0 0 0 0 0 0 0 0 0 0 0 0 0 0 0 0 0 0
0 0 0 0 0 0 0 0 0 0 0 0 0 39 156 47 0 42 0 0 0 0 0 0 0 0 0 0 0 0 0 0 0 0 0 0 0 0 0 0 0 0 0
0 0 0 0 0 0 0 0 0 0 0 0 0 109 73 67 13 55 2 0 0 0 0 0 0 0 0 0 0 0 0 0 0 0 0 0 0 0 0 0 0 0 0
0 0 0 0 0 0 0 0 0 0 0 0 0 139 115 92 117 38 0 0 0 0 0 0 0 0 0 0 0 0 0 0 0 0 0 0 0 0 0 0 0 0 0
0 0 0 0 0 0 0 0 3 0 0 0 0 214 179 160 94 6 6 0 0 0 0 0 0 0 0 0 0 0 0 0 0 0 0 0 0 0 0 0 0 0 0

GFSSE_con_sbcape_042.txt.gz
CAPE
981 1129 1332 1362 1545 1370 867 695 603 552 590 640 841 845 965 889 591 540 516 362 275 137 0 0 3 3 1 1 0 3 13 10 17 28 26 12 11 18 20 21 56 36 72
393 1066 992 1138 1391 1149 895 700 683 578 676 923 981 931 1083 810 647 611 420 317 170 34 1 5 6 3 4 3 35 57 58 46 18 19 29 27 17 16 14 14 31 27 56
386 1105 877 678 1252 1130 906 833 722 701 956 1099 997 972 1177 794 650 546 397 208 56 6 0 3 3 5 20 36 109 65 39 13 8 20 10 0 8 27 32 21 38 22 36
248 616 450 531 967 1027 886 769 658 887 1026 1121 1084 1106 1265 815 684 537 360 177 41 0 0 0 0 0 0 6 11 53 0 0 0 0 0 1 21 43 44 40 38 26 19
2 45 461 594 584 939 943 704 662 846 939 1013 1085 1300 1409 884 794 623 361 214 86 2 0 0 0 0 0 0 0 8 6 0 0 0 0 0 1 11 36 33 29 35 35
386 501 816 614 747 843 675 795 840 889 809 906 1049 1375 1455 971 885 676 366 243 73 0 0 0 0 0 1 26 21 10 0 0 0 0 0 0 0 17 22 20 13 18 17
581 584 655 476 347 521 337 730 973 890 912 1010 1142 1265 1302 1050 965 706 334 154 40 0 0 0 0 0 0 27 10 0 0 0 0 0 0 0 4 24 22 18 18 17 18
236 471 629 748 548 321 205 795 758 847 1100 1223 1198 1253 1331 1079 852 638 330 207 131 52 0 0 0 0 0 0 0 0 0 0 0 0 0 0 18 15 19 16 16 21 21
402 256 229 65 79 245 149 450 524 700 824 1045 1136 1183 1173 699 679 555 399 256 79 34 0 0 0 0 0 0 0 0 0 0 0 0 0 0 20 21 23 19 18 17 16
203 108 36 97 20 5 58 408 448 457 382 465 644 620 519 536 543 416 209 163 72 27 7 0 0 0 0 0 0 0 0 0 0 0 0 3 23 23 21 21 20 13 13
154 78 1 3 22 12 125 315 296 324 200 209 296 227 134 111 96 22 84 141 63 29 2 0 0 0 0 0 0 0 0 0 0 0 0 19 19 13 12 11 19 13 12
87 53 8 0 38 43 91 66 65 35 1 10 2 0 0 0 31 28 63 64 39 37 20 0 0 0 0 0 0 0 0 0 0 0 0 17 23 18 24 29 9 21 16
1 10 2 4 9 0 20 13 0 0 0 0 0 23 0 25 43 36 29 6 0 11 0 0 0 0 0 0 0 0 0 0 0 0 0 2 25 36 34 21 17 12 10
1 1 4 6 8 9 4 0 0 0 0 0 5 24 4 5 12 4 5 0 0 0 0 0 0 0 0 0 0 0 0 0 0 0 0 0 42 33 31 23 11 11 8
1 0 0 0 0 0 0 0 0 0 2 24 10 3 9 6 3 0 0 0 0 0 0 0 0 0 0 0 0 0 0 0 0 0 0 0 19 29 27 24 17 8 19
3 1 0 0 0 0 0 0 0 0 3 43 10 22 23 10 2 0 0 0 0 0 0 0 0 0 0 0 0 0 0 0 0 0 0 0 0 20 26 27 21 10 7
5 4 1 0 0 0 0 0 0 0 0 2 1 23 50 32 28 6 0 0 0 0 0 0 0 0 0 0 0 0 0 0 0 0 0 0 0 0 19 36 3 4 0
3 4 2 0 0 0 0 0 0 0 0 0 0 17 55 83 67 31 31 0 0 0 0 0 0 0 0 0 0 0 0 0 0 0 0 0 0 0 0 0 0 0 0
0 1 2 0 0 0 0 0 0 0 0 0 0 2 47 52 30 18 0 0 0 0 0 0 0 0 0 0 0 0 0 0 0 0 0 0 0 0 0 0 0 0 0
0 0 0 0 0 0 0 0 0 0 0 0 0 0 1 18 15 7 0 0 0 0 0 0 0 0 0 0 0 0 0 0 0 0 0 0 0 0 0 0 0 0 0
0 0 0 0 0 0 0 0 0 0 0 0 0 0 21 0 70 0 0 0 0 0 0 0 0 0 0 0 0 0 0 0 0 0 0 0 0 0 0 0 0 0 0
0 0 0 0 0 0 0 0 0 0 0 0 0 0 6 72 37 4 0 0 0 0 0 0 0 0 0 0 0 0 0 0 0 0 0 0 0 0 0 0 0 0 0
0 0 0 0 0 0 0 0 0 0 0 0 0 0 0 40 44 23 0 0 0 0 0 0 0 0 0 0 0 0 0 0 0 0 0 0 0 0 0 0 0 0 0
0 0 0 0 0 0 0 0 0 0 0 0 0 0 0 4 8 0 0 0 0 0 0 0 0 0 0 0 0 0 0 0 0 0 0 0 0 0 0 0 0 0 0
0 0 0 0 0 0 0 0 0 0 0 0 0 0 0 0 0 0 0 0 0 0 0 0 0 0 0 0 0 0 0 0 0 0 0 0 0 0 0 0 0 0 0
0 0 0 0 0 0 0 0 0 0 0 0 0 0 0 0 1 0 0 0 0 0 0 0 0 0 0 0 0 0 0 0 0 0 0 0 0 0 0 0 0 0 0

GFSSE_con_sbcape_045.txt.gz
CAPE
1118 1187 1161 1132 1282 1104 983 933 891 843 805 633 751 997 804 741 628 513 387 243 169 260 52 12 7 5 7 11 20 19 19 36 27 29 36 25 30 23 48 57 61 41 76
1160 1160 1036 621 1058 1095 1117 1019 961 1054 1055 1137 1184 934 841 755 661 524 333 263 390 329 67 39 14 11 8 6 6 7 1 12 28 41 37 22 26 28 22 24 48 49 67
1198 1199 1005 1072 1094 765 887 1017 1133 1269 1253 1372 1127 980 959 727 633 400 255 368 476 437 107 64 29 24 8 59 9 14 7 12 27 27 21 7 1 20 23 23 25 24 36
1248 892 844 1045 917 664 543 733 1166 1367 1295 1460 1203 990 841 676 493 269 197 350 533 440 100 58 30 21 7 16 60 13 1 0 4 3 1 8 26 47 40 37 27 23 25
398 855 578 906 645 378 200 444 1165 1194 1176 1450 1154 1039 812 666 489 239 120 269 503 218 13 0 0 0 26 183 23 9 0 0 0 0 0 0 4 19 40 35 18 16 21
261 346 681 794 562 387 184 219 1089 1139 1026 1311 984 930 814 607 445 242 80 226 458 45 0 0 0 2 21 14 10 0 0 0 0 0 0 2 2 28 23 23 22 22 24
424 152 414 626 444 402 236 253 1089 1008 1023 1072 925 814 675 541 427 166 97 136 50 0 0 0 200 55 9 0 0 0 0 0 0 0 0 0 6 24 28 25 11 9 12
586 461 375 504 436 228 126 140 853 984 984 1020 903 799 778 497 306 150 88 13 0 0 0 0 22 0 0 0 0 0 0 0 0 0 0 0 26 25 27 25 25 22 27
417 686 437 331 258 81 1 39 327 908 855 840 853 783 696 324 181 143 15 0 0 0 0 0 0 0 0 0 0 0 0 0 0 0 0 0 24 25 17 22 25 21 18
222 155 182 91 93 24 30 95 363 757 885 1002 936 614 372 249 137 24 0 0 0 0 0 0 0 6 12 0 0 0 0 0 0 0 0 4 26 19 18 19 14 16 15
161 49 46 105 26 0 0 1 226 724 839 845 567 361 87 0 0 0 0 0 0 0 0 0 0 11 4 0 0 0 0 0 0 0 0 27 16 20 11 14 12 14 14
29 3 0 1 12 16 6 4 120 447 320 312 238 46 0 0 0 0 0 0 0 0 0 0 0 0 0 0 0 0 0 0 0 0 0 21 22 21 25 23 12 14 16
29 2 1 0 0 3 41 65 92 68 54 83 56 0 0 0 0 0 0 0 0 0 0 0 0 0 0 0 0 0 0 0 0 0 0 17 26 21 29 28 11 10 10
3 5 0 6 11 1 0 2 25 47 44 55 0 0 0 0 0 0 0 0 0 0 0 0 0 0 0 0 0 0 0 0 0 0 0 0 42 35 38 27 20 8 9
0 3 1 0 0 12 19 16 0 13 30 0 0 0 0 0 0 0 0 0 0 0 0 0 0 0 0 0 0 0 0 0 0 0 0 0 33 41 32 20 17 11 5
2 1 1 2 0 0 1 0 0 2 0 0 0 0 0 0 0 0 0 0 0 0 0 0 0 0 0 0 0 0 0 0 0 0 0 0 8 29 42 23 20 6 7
5 1 0 0 1 0 0 0 0 0 11 0 0 0 0 0 0 0 0 0 0 0 0 0 0 0 0 0 0 0 0 0 0 0 0 0 0 0 9 29 12 5 0
2 2 0 1 0 0 0 0 0 6 18 11 2 0 0 0 1 0 0 0 0 0 0 0 0 0 0 0 0 0 0 0 0 0 0 0 0 0 0 0 4 0 0
2 2 1 0 0 0 0 0 0 0 0 1 4 7 11 9 23 13 8 0 0 0 0 0 0 0 0 0 0 0 0 0 0 0 0 0 0 0 0 0 0 0 0
0 1 0 0 0 0 0 0 0 0 0 0 0 9 28 22 34 19 0 0 0 0 0 0 0 0 0 0 0 0 0 0 0 0 0 0 0 0 0 0 0 0 0
0 0 1 2 0 0 0 0 0 0 0 0 0 0 0 10 36 2 0 0 0 0 0 0 0 0 0 0 0 0 0 0 0 0 0 0 0 0 0 0 0 0 0
0 0 0 0 0 0 0 0 0 0 0 0 0 0 0 15 13 14 0 0 0 0 0 0 0 0 0 0 0 0 0 0 0 0 0 0 0 0 0 0 0 0 0
0 0 0 0 0 0 0 0 0 0 0 0 0 0 0 0 8 15 0 0 0 0 0 0 0 0 0 0 0 0 0 0 0 0 0 0 0 0 0 0 0 0 0
0 0 0 0 0 0 0 0 0 0 0 0 0 0 0 0 6 43 23 0 0 0 0 0 0 0 0 0 0 0 0 0 0 0 0 0 0 0 0 0 0 0 0
0 0 0 0 0 0 0 0 0 0 0 0 0 0 0 0 0 0 3 0 0 0 0 0 0 0 0 0 0 0 0 0 0 0 0 0 0 0 0 0 0 0 0
0 0 0 0 0 0 0 0 0 0 0 0 0 0 0 0 0 0 0 0 0 0 0 0 0 0 0 0 0 0 0 0 0 0 0 0 0 0 0 0 0 0 0

GFSSE_con_sbcape_048.txt.gz
CAPE
634 30 1507 1371 1256 1128 913 917 981 1113 1303 1319 1159 1235 1036 1010 966 843 544 385 344 346 68 26 24 27 30 27 16 13 20 30 37 47 104 58 67 73 69 64 61 52 93
1084 1320 1436 1437 1326 1057 1113 1032 957 932 1031 1205 1230 1086 1025 959 857 553 402 454 451 327 20 16 16 10 10 12 21 28 33 39 36 42 49 36 38 30 53 46 67 36 64
1261 1122 688 1383 1377 1263 1070 1200 1166 1203 1394 1369 1134 1023 979 889 625 482 520 501 487 419 89 97 71 36 17 11 21 31 24 27 32 19 28 5 8 21 18 13 28 9 20
1297 971 999 1380 1355 1314 1311 1422 1406 1626 1588 1286 1173 1033 943 778 581 674 531 454 516 492 154 178 220 102 26 56 61 24 12 12 12 19 19 38 41 58 47 33 18 16 25
1173 945 1239 1166 946 1073 1192 1396 1462 1607 1375 1204 1183 1013 904 711 754 729 538 469 555 441 149 171 157 73 50 44 21 13 0 0 0 0 0 3 9 30 20 18 18 17 20
621 918 1250 932 911 798 858 1244 1250 1447 1223 1111 1019 951 775 601 746 678 427 453 358 39 0 0 32 166 14 1 1 0 0 0 0 0 0 9 0 27 21 16 16 16 13
391 699 922 810 685 632 565 595 831 1013 1179 981 894 708 564 455 462 516 372 178 14 7 17 111 65 24 0 0 0 0 0 0 0 0 0 0 8 31 16 23 25 22 18
371 210 597 840 754 478 110 35 266 416 805 832 748 631 512 333 342 392 86 0 10 368 337 232 19 0 0 0 0 0 0 0 0 0 0 0 31 22 26 16 19 15 17
505 228 123 479 493 283 14 4 100 313 596 774 674 570 459 296 177 102 1 0 1 189 92 19 0 0 0 0 0 0 0 0 0 0 0 1 32 18 21 17 17 17 16
343 502 105 309 74 0 0 0 10 150 279 656 680 569 359 238 104 0 0 0 0 0 0 7 3 0 0 0 0 0 0 0 0 0 0 8 24 15 16 16 12 11 11
104 178 329 176 0 0 0 0 0 11 310 555 658 400 183 40 0 0 0 0 0 0 0 17 29 2 0 0 0 0 0 0 0 0 0 33 20 15 14 11 11 6 6
23 53 41 30 7 7 17 0 0 4 162 375 355 217 69 0 0 0 0 0 0 0 0 28 28 16 0 0 0 0 0 0 0 0 0 29 28 17 11 7 7 6 5
2 1 0 1 0 1 1 1 0 37 69 225 169 137 19 1 0 0 0 0 0 0 0 0 0 0 0 0 0 0 0 0 0 0 11 28 19 16 13 10 7 11 8
1 3 5 1 0 0 0 45 3 11 15 116 122 56 40 11 0 0 0 0 0 0 0 0 0 0 0 0 0 0 0 0 0 0 1 22 29 20 18 17 16 10 8
1 4 12 5 2 0 0 10 2 8 40 80 79 60 52 7 0 0 0 0 0 0 0 0 0 0 0 0 0 0 0 0 0 0 0 5 29 26 27 25 25 13 9
2 1 3 8 2 8 3 2 2 20 64 62 24 11 10 0 0 0 0 0 0 0 0 0 0 0 0 0 0 0 0 0 0 0 0 0 8 41 48 28 20 14 11
1 2 1 0 8 9 14 13 2 1 0 9 1 0 2 1 0 0 0 0 0 0 0 0 0 0 0 0 0 0 0 0 0 0 0 0 0 8 34 53 18 9 13
1 2 2 6 4 8 4 0 0 0 2 7 13 5 3 0 0 0 0 0 0 0 0 0 0 0 0 0 0 0 0 0 0 0 0 0 0 0 5 22 38 18 2
0 1 3 2 1 1 0 0 0 0 4 7 17 17 3 0 0 0 0 0 0 0 0 0 0 0 0 0 0 0 0 0 0 0 0 0 0 0 0 0 6 5 0
0 0 1 1 0 0 0 0 0 0 0 2 21 45 37 24 15 1 0 0 0 0 0 0 0 0 0 0 0 0 0 0 0 0 0 0 0 0 0 0 0 0 0
1 1 0 1 2 0 0 0 1 5 0 0 0 13 72 61 55 30 8 0 0 0 0 0 0 0 0 0 0 0 0 0 0 0 0 0 0 0 0 0 0 0 0
0 0 0 0 1 1 0 0 0 0 0 0 0 0 13 40 58 36 1 0 0 0 0 0 0 0 0 0 0 0 0 0 0 0 0 0 0 0 0 0 0 0 0
0 0 0 0 0 0 0 0 0 0 0 0 0 0 0 0 8 14 10 1 0 0 0 0 0 0 0 0 0 0 0 0 0 0 0 0 0 0 0 0 0 0 0
1 0 0 0 0 0 0 0 0 0 0 0 0 0 0 0 0 4 3 0 0 0 0 0 0 0 0 0 0 0 0 0 0 0 0 0 0 0 0 0 0 0 0
0 0 0 0 0 0 0 0 0 0 0 0 0 0 0 0 0 0 1 0 0 0 0 0 0 0 0 0 0 0 0 0 0 0 0 0 0 0 0 0 0 0 0
0 0 0 0 0 0 0 0 0 0 0 0 0 0 0 0 0 0 0 0 0 0 0 0 0 0 0 0 0 0 0 0 0 0 0 0 0 0 0 0 0 0 0

GFSSE_con_sbcape_051.txt.gz
CAPE
391 503 1225 1255 1448 1564 1663 1661 1535 1449 1443 1521 1337 1220 1284 1343 1210 1108 1070 952 891 768 217 64 92 75 22 26 34 29 76 172 201 182 148 135 76 72 55 87 79 51 92
191 831 1259 1258 1433 1562 1754 1829 1668 1604 1640 1543 1363 1277 1279 1315 1188 889 748 698 642 505 71 46 38 22 29 22 24 63 62 49 55 75 85 50 50 46 34 34 75 39 36
252 913 1028 1299 1555 1620 1698 1825 1835 1831 1690 1600 1381 1318 1296 1093 804 642 522 412 380 292 23 27 23 26 44 38 101 58 22 13 12 18 29 15 14 17 9 28 28 15 22
824 1351 1292 1414 1345 1611 1603 1579 1619 1841 1767 1532 1428 1268 1162 878 774 688 519 394 397 344 33 36 27 23 37 67 87 53 27 32 35 29 8 10 17 26 23 19 20 20 19
1376 1351 1460 1550 1495 1649 1677 1576 1705 1693 1524 1391 1280 1199 963 900 852 757 567 585 477 336 111 64 49 37 37 62 23 18 14 9 17 14 28 30 23 18 27 18 21 24 23
1058 1382 1460 1480 1537 1739 1809 1721 1733 1497 1325 1184 1126 996 958 1006 956 755 600 497 533 487 355 96 15 10 59 13 14 5 2 2 2 3 6 11 20 25 20 22 23 26 23
908 1560 1351 1099 1156 1671 1862 1866 1725 1422 1255 1100 1036 794 883 987 823 644 517 468 433 404 303 221 4 6 6 0 0 0 0 0 0 2 6 13 22 29 28 24 26 24 13
398 1178 1286 1086 955 1161 1433 1499 1403 1263 1174 1051 839 667 827 753 562 478 253 153 150 286 442 257 60 2 0 0 0 0 0 0 0 3 9 20 30 19 19 16 13 10 10
447 256 719 840 576 352 579 760 827 906 833 753 570 422 461 449 379 202 140 359 333 418 281 150 2 0 0 0 0 0 0 0 0 1 4 8 16 14 16 12 12 10 8
568 317 216 256 558 116 69 33 407 510 317 253 420 258 260 250 150 55 224 474 427 289 190 55 14 1 4 0 0 0 0 0 0 2 4 10 24 20 18 17 11 12 8
211 667 517 666 447 65 1 0 128 358 262 174 325 203 132 118 0 0 54 258 220 109 63 30 14 10 4 0 0 0 0 1 2 5 5 32 28 24 21 14 12 10 7
194 349 247 218 113 3 1 1 41 165 133 123 334 254 97 39 0 0 21 58 85 90 68 55 24 6 0 0 0 0 0 0 1 6 8 34 26 23 18 11 7 7 4
46 17 36 7 2 4 4 0 0 19 59 94 343 159 47 0 0 1 2 14 32 57 52 22 4 0 0 0 0 0 0 0 3 10 16 38 19 15 19 12 7 7 7
3 3 3 5 4 5 7 0 1 29 40 91 310 88 0 10 0 3 2 0 0 9 63 12 0 0 0 0 0 0 0 0 1 8 15 36 37 12 13 9 12 10 7
2 4 2 1 2 3 1 19 11 8 50 93 195 72 6 12 5 0 0 0 0 0 0 0 0 0 0 0 0 0 0 0 1 6 17 22 43 29 20 18 11 13 7
7 9 4 3 1 0 11 3 20 4 33 97 141 79 74 25 6 0 0 0 0 0 0 0 0 0 0 0 0 0 0 0 0 0 6 14 15 37 35 22 22 19 10
5 6 6 10 5 1 9 9 25 9 41 84 90 91 107 17 12 3 0 0 0 0 0 0 0 0 0 0 0 0 0 0 0 0 0 3 10 2 30 37 20 19 13
1 6 5 12 6 1 15 17 32 2 19 33 58 93 49 25 6 0 0 0 0 0 0 0 0 0 0 0 0 0 0 0 0 0 0 0 0 0 2 16 33 33 21
1 1 6 5 6 8 1 12 17 2 12 17 40 74 58 30 3 3 0 0 0 0 0 0 0 0 0 0 0 0 0 0 0 0 0 0 0 0 0 1 10 17 26
2 3 4 7 8 14 6 0 1 11 0 13 52 57 42 43 25 14 1 0 0 3 0 0 0 0 0 0 0 0 0 0 0 0 0 0 0 0 4 23 48 22 3
8 6 6 3 2 2 2 7 6 3 0 8 93 75 77 77 65 58 34 10 0 0 21 2 0 0 0 0 0 0 0 0 0 0 0 0 0 0 0 4 48 21 3
5 4 2 3 2 2 1 1 0 0 0 4 12 57 86 91 64 81 84 53 23 9 13 4 0 0 0 0 0 0 0 0 0 0 0 0 0 0 0 0 0 0 0
4 5 5 2 1 1 6 0 0 0 0 0 0 7 29 71 67 115 146 146 102 114 36 24 3 0 0 0 0 0 0 0 0 0 0 0 0 0 0 0 0 0 0
1 2 2 12 3 2 1 0 0 0 0 0 0 0 0 12 69 116 183 136 90 134 129 98 13 0 0 0 0 0 0 0 0 0 0 0 0 0 0 0 0 0 0
3 3 0 9 12 6 0 0 0 0 0 0 0 0 0 0 6 26 62 111 141 119 112 82 11 0 0 7 0 0 0 0 0 0 0 0 0 0 0 0 0 0 0
1 1 2 7 9 6 3 0 0 0 0 0 0 0 0 0 0 1 7 65 104 114 99 57 42 0 0 0 0 0 0 0 0 0 0 0 0 0 0 0 0 0 0

GFSSE_con_sbcape_054.txt.gz
CAPE
914 906 1242 1557 1903 1819 1625 1542 1484 1482 1514 1556 1337 1317 1235 1267 1246 1121 1005 891 767 761 308 227 101 55 197 145 139 126 184 282 281 371 307 249 155 175 123 277 202 74 98
1101 890 1109 1499 1817 1905 1756 1653 1670 1683 1729 1659 1398 1465 1352 1375 1376 1353 1201 772 768 657 218 77 24 20 50 27 52 183 239 256 235 262 263 97 98 87 49 51 117 39 30
1093 1172 1176 1515 1637 2140 1992 1912 1869 1965 1878 1669 1623 1611 1525 1464 1412 1209 978 789 699 595 126 21 22 26 28 24 75 58 46 61 95 50 83 29 15 29 21 13 29 15 18
907 1259 1035 1560 1579 2131 2110 2030 2010 2127 1965 1710 1785 1664 1512 1244 1065 892 602 459 382 332 26 29 34 25 24 72 78 73 48 1 0 30 15 39 25 25 19 17 15 11 13
1125 1095 928 1526 1744 1826 2123 2121 2056 1948 1812 1694 1674 1536 1349 1199 984 760 417 305 334 223 24 24 38 34 31 40 25 13 16 21 16 10 8 12 21 19 15 12 15 13 12
1517 1405 1384 1385 1640 1736 1945 2021 1997 1819 1601 1458 1398 1303 1309 1274 1038 758 403 387 501 382 68 20 26 26 23 17 12 6 6 0 13 0 2 11 7 13 10 9 7 10 9
805 1690 1477 1311 1529 1321 1072 2009 1891 1676 1463 1415 1251 1217 1240 1228 1021 754 476 514 510 438 78 18 19 5 1 1 0 0 0 0 0 0 3 7 25 21 21 19 8 12 8
919 1785 1549 1444 1290 1153 1275 1168 1482 1369 1129 1264 1189 1216 1263 1107 836 656 597 508 341 331 144 100 23 2 0 0 0 0 0 0 1 1 6 8 27 19 19 10 9 7 7
765 615 1547 1401 1037 946 804 1111 1166 1102 1031 1019 1120 1150 1011 801 641 518 372 368 423 338 175 116 12 0 0 0 0 0 0 3 2 2 2 7 16 19 17 14 12 12 11
1089 280 633 634 866 839 1009 286 697 851 831 778 875 748 569 520 291 300 299 511 497 305 148 111 28 0 0 0 0 0 0 0 4 1 4 10 26 24 23 17 16 12 12
621 717 423 88 78 355 304 245 637 663 561 523 537 390 265 294 192 112 105 413 351 132 101 99 26 0 0 0 0 0 0 1 3 2 6 35 32 23 23 18 16 13 15
366 393 564 17 233 219 109 11 54 215 377 257 112 181 326 335 141 38 347 312 211 100 103 74 22 0 0 0 0 0 3 3 6 5 7 38 28 26 25 19 14 11 11
374 92 582 192 255 61 1 1 7 89 57 33 38 93 238 225 53 243 417 286 173 53 8 9 0 0 0 0 0 0 4 5 10 8 13 39 25 16 20 17 11 6 5
107 139 132 305 178 145 28 27 29 97 64 74 56 94 405 192 169 143 142 156 108 52 34 13 2 0 0 0 0 0 4 7 19 17 16 37 36 19 19 15 13 8 4
6 61 82 32 21 5 5 6 14 43 30 55 85 171 206 147 140 61 107 129 127 141 94 45 17 11 0 0 0 0 2 2 16 15 12 22 31 27 15 17 15 10 4
5 3 4 8 10 9 6 13 11 8 25 67 80 182 104 98 101 24 33 12 29 97 89 23 15 4 0 0 0 0 0 1 4 10 15 19 21 42 40 21 16 10 6
24 7 7 5 4 3 9 13 4 35 33 93 131 184 92 63 79 63 3 6 6 10 18 1 6 0 0 0 0 0 0 0 0 3 6 19 13 19 35 46 22 14 4
10 7 9 11 11 10 14 16 2 45 43 82 139 132 70 16 63 51 9 6 2 2 3 0 3 0 0 0 0 0 0 0 0 0 0 3 25 24 20 41 48 45 9
5 12 6 9 17 19 29 27 10 16 16 46 138 96 60 21 4 26 8 15 28 10 6 0 0 0 0 0 0 0 0 0 0 0 0 0 0 2 50 13 25 25 54
8 8 7 11 16 20 26 44 33 15 8 31 64 122 94 32 41 38 14 34 53 27 27 1 0 0 0 0 0 0 0 0 0 0 0 0 0 0 1 27 45 24 14
15 12 8 6 10 11 13 31 37 17 0 14 5 75 174 58 53 70 32 56 51 73 73 52 27 4 0 0 0 0 0 0 0 0 0 0 0 0 1 2 18 52 22
14 14 17 7 13 9 10 17 18 5 0 0 8 50 135 171 60 88 64 49 46 101 146 128 93 44 22 0 0 17 7 1 0 0 0 0 0 0 0 0 0 4 20
15 21 11 12 6 8 4 10 6 4 6 8 6 68 144 190 114 104 114 103 85 87 127 194 187 164 175 52 40 110 94 49 79 0 0 0 0 0 0 0 0 0 0
5 19 27 13 8 7 7 8 4 0 2 1 0 31 93 168 150 115 133 157 204 151 131 207 215 206 276 198 18 9 102 159 144 93 0 0 0 0 0 0 0 0 0
0 13 13 20 19 6 8 6 0 5 0 0 0 23 113 155 146 107 133 208 274 346 302 354 300 302 289 483 163 159 45 46 26 21 149 32 0 0 0 0 0 0 0
0 6 8 17 23 11 6 9 0 0 3 8 0 0 5 21 132 180 173 268 303 292 361 490 467 398 372 306 388 308 231 149 74 27 14 28 0 0 0 0 0 0 0

GFSSE_con_sbcape_057.txt.gz
CAPE
1226 1320 1340 1643 1981 1660 1649 1476 1450 1452 1521 1476 1373 1340 1482 1336 1250 1052 881 842 890 931 597 515 386 327 330 292 200 248 405 339 284 360 367 358 239 231 164 394 261 42 84
1275 1391 1315 1617 2129 1964 1805 1636 1579 1635 1716 1638 1505 1435 1515 1397 1308 1145 1100 1024 975 816 316 234 312 216 168 147 164 375 334 268 242 309 355 125 85 94 58 179 143 14 9
1346 1544 1183 1444 1784 2089 1960 1798 1789 1843 1856 1720 1592 1603 1618 1489 1406 1290 1057 925 925 697 115 57 163 110 79 48 196 217 224 256 224 93 101 27 21 23 11 10 27 15 19
1313 1611 1194 1549 1636 2081 1969 1819 1819 1850 1875 1772 1699 1745 1650 1405 1287 1214 991 890 815 525 18 17 65 55 8 8 4 21 60 103 143 88 21 15 19 25 12 15 14 17 11
1528 1525 1462 1549 1669 1952 1985 1897 1842 1884 1725 1794 1755 1918 1618 1370 1332 1100 753 686 639 366 51 14 28 17 14 10 0 0 0 0 8 37 10 22 14 20 16 11 11 13 19
1676 1320 1073 1422 1650 1976 1850 1939 1883 1780 1490 1300 1459 1774 1617 1431 1184 885 539 488 478 273 100 70 26 10 0 0 0 0 0 0 43 5 4 15 18 27 17 4 9 8 11
1768 1635 1449 1279 1548 1637 1751 1697 1569 1472 1252 1361 1556 1517 1385 1169 988 686 491 344 337 265 189 50 12 0 0 0 0 0 0 0 1 0 5 10 21 22 18 20 14 15 12
1689 1929 1603 1367 1263 1243 1330 769 677 865 1074 1284 1374 1400 1318 1000 728 667 659 555 266 188 195 95 11 4 6 0 0 0 0 3 7 4 7 11 34 24 21 16 15 16 14
1485 1811 1894 1610 1256 840 610 585 376 915 1097 1203 1171 1142 1031 761 658 669 690 540 257 184 142 31 14 12 0 0 0 0 0 10 4 4 2 7 25 18 20 15 16 13 12
1390 1185 1429 1319 1159 804 1021 280 224 289 569 983 1074 963 872 709 690 585 419 435 251 205 133 34 8 14 0 0 0 0 0 0 5 3 4 12 27 17 15 12 12 13 13
1100 950 340 874 883 751 596 334 372 322 327 766 969 615 473 611 579 320 267 370 227 79 53 3 5 0 0 0 0 0 0 17 19 7 5 35 28 19 14 12 12 12 13
790 870 470 198 440 438 366 61 203 170 213 445 747 621 211 253 322 247 296 265 118 42 0 2 0 0 0 0 0 0 8 29 23 7 10 38 26 21 18 12 9 8 8
549 698 233 104 79 197 54 250 76 861 619 300 83 2 0 198 274 352 430 365 61 1 0 0 0 0 0 0 0 8 10 25 22 7 10 37 27 18 16 9 7 7 6
549 405 297 29 59 75 65 119 79 24 34 11 24 31 58 142 278 443 307 211 22 0 0 0 0 14 0 0 5 13 19 35 22 8 14 32 38 20 18 11 6 3 4
238 350 79 68 190 31 6 33 22 99 36 29 4 32 51 171 241 386 309 221 65 87 1 3 10 5 2 4 9 16 27 38 21 8 10 26 34 30 17 19 9 5 5
26 4 5 3 7 9 7 13 18 50 21 18 0 18 53 183 205 310 319 290 188 170 69 20 32 4 1 3 7 16 22 27 42 13 8 14 27 29 31 9 10 8 2
137 16 5 8 8 2 3 7 14 17 20 3 9 47 126 182 265 393 369 306 256 242 158 57 16 3 0 1 3 3 8 14 17 45 15 12 13 17 35 32 19 4 3
19 7 15 7 3 3 5 9 4 3 12 13 23 113 156 168 224 284 164 130 84 152 83 31 0 1 0 0 1 0 1 3 4 6 34 54 9 22 8 30 36 24 1
8 2 8 15 14 11 12 4 7 9 16 39 63 144 171 126 88 114 28 85 92 81 59 13 9 6 1 0 1 0 0 0 0 0 2 8 56 26 20 0 2 18 23
15 5 8 12 12 16 14 3 9 6 26 46 73 110 79 59 84 117 102 187 77 40 15 6 60 8 10 1 0 0 0 0 0 0 0 0 1 10 72 90 0 1 13
12 22 22 9 16 22 18 9 16 9 13 30 83 89 107 69 72 110 69 190 169 98 69 135 13 3 1 1 0 0 0 0 0 0 0 0 0 3 3 9 90 13 2
9 22 13 7 12 14 24 43 5 1 5 7 15 120 122 145 63 95 110 78 156 151 261 227 168 34 5 2 0 0 0 0 0 0 0 0 1 0 0 9 25 85 70
17 18 12 5 12 14 22 58 33 38 7 13 0 34 108 163 72 78 119 144 167 239 327 333 239 200 92 61 68 70 82 59 92 33 21 0 0 0 0 0 1 3 41
2 11 19 11 6 21 18 17 15 11 13 0 0 0 45 137 114 52 130 253 293 229 352 426 319 297 341 253 157 67 331 261 221 56 38 1 0 0 3 0 0 0 9
24 11 17 11 8 8 15 11 20 19 10 0 0 0 67 130 75 101 193 296 327 314 371 405 440 463 378 367 343 270 229 242 288 206 175 76 10 0 0 0 0 0 20
36 35 16 27 11 7 14 15 17 9 6 3 1 0 48 93 154 125 186 241 346 468 498 437 436 529 549 474 428 351 300 193 181 250 222 203 186 41 0 0 0 0 0

GFSSE_con_sbcape_060.txt.gz
CAPE
1594 1201 1475 1770 1643 1526 1465 1379 1346 1371 1310 1299 1396 1445 1449 1252 930 797 769 681 625 888 635 543 467 374 415 398 349 530 528 449 382 467 468 454 207 217 186 256 119 31 320
1719 1182 1567 1828 1870 1756 1686 1564 1493 1547 1516 1475 1524 1540 1478 1316 1054 943 1001 1044 1091 977 601 513 439 311 302 308 417 453 406 301 261 332 384 203 116 72 31 63 33 10 17
1350 1507 1449 1809 1975 1985 1852 1774 1727 1776 1738 1623 1661 1588 1524 1389 1278 1228 1177 1020 969 969 573 455 299 190 227 234 374 354 329 326 279 162 136 10 11 24 15 14 21 11 17
1181 1495 1522 1520 2011 2042 1849 1762 1767 1859 1848 1741 1767 1679 1556 1505 1492 1268 1062 883 874 780 456 356 241 105 117 258 227 301 252 96 82 70 10 16 15 28 23 21 19 18 14
1303 1735 1487 1413 1579 2035 1857 1764 1628 1653 1619 1605 1709 1807 1659 1648 1396 1053 1028 837 745 576 250 246 108 34 52 56 95 88 120 145 221 10 2 5 14 35 18 11 10 17 20
1552 1721 1074 1316 1440 1692 1891 1719 1634 1452 1427 1477 1556 1634 1685 1610 1422 1175 918 749 614 369 103 122 59 25 27 21 1 0 0 21 38 3 3 21 9 30 16 14 16 19 17
1597 1983 1378 1247 1507 1747 1682 1552 1556 1377 1357 1429 1502 1532 1482 1440 1264 1046 861 734 661 459 200 53 6 1 3 0 0 0 0 9 0 0 0 1 5 14 26 21 20 16 16
1562 1994 1813 1232 1409 1188 1586 1305 944 690 835 1226 1337 1438 1419 1094 907 817 693 627 534 352 191 78 15 1 0 0 0 0 0 43 0 0 0 6 33 27 22 18 12 12 12
1448 1642 1926 1722 1353 711 746 532 219 4 2 727 1185 1116 984 756 724 740 827 582 439 251 144 62 3 0 0 0 0 0 0 31 0 0 1 6 32 23 22 16 14 12 11
1571 1656 1415 1370 1313 643 549 233 7 11 0 6 906 792 552 597 712 761 510 441 317 196 132 41 0 0 0 0 0 0 0 27 0 0 0 11 29 22 19 15 14 11 11
1121 1176 897 1131 1234 870 207 220 10 5 0 58 591 483 312 392 441 414 258 283 212 104 66 10 0 0 0 0 0 0 3 1 0 0 0 37 25 19 14 13 11 9 6
772 1067 635 770 674 306 157 130 6 1 1 105 359 284 324 360 246 235 155 205 158 66 7 0 0 0 0 0 0 0 0 7 0 0 1 38 23 15 13 9 8 6 5
621 877 730 381 446 193 113 116 41 39 124 61 149 153 161 168 205 169 107 74 13 1 0 0 0 0 0 0 0 0 9 6 0 0 12 37 22 12 13 9 8 7 2
494 419 384 297 167 130 184 139 29 10 70 19 0 0 49 32 113 169 108 3 0 0 0 0 0 0 0 0 0 4 13 1 0 0 3 26 30 16 12 7 6 3 2
220 417 185 16 9 120 126 180 79 66 2 0 0 0 0 10 48 115 83 1 0 0 0 0 0 0 0 0 16 14 29 2 0 0 0 17 21 23 10 7 7 5 2
57 51 23 16 78 9 110 78 113 50 2 0 0 0 9 18 25 110 136 22 0 0 0 0 1 0 0 0 4 6 26 8 0 0 0 1 11 20 23 10 5 4 4
47 1 4 1 0 3 37 57 40 38 2 0 0 0 4 1 24 145 151 107 27 6 0 0 5 0 4 2 2 7 3 26 0 0 0 0 0 5 17 18 11 3 1
17 2 2 4 2 3 8 12 22 46 11 2 0 0 0 3 91 136 149 124 64 35 28 35 0 0 1 0 0 0 0 0 13 0 0 0 0 0 5 21 19 9 2
4 5 9 4 3 2 2 4 4 5 2 1 0 0 0 0 78 62 46 60 102 57 35 17 1 0 0 4 0 0 0 0 0 1 4 0 0 0 0 0 0 1 0
0 4 5 11 10 6 5 4 9 3 2 3 0 0 21 21 13 1 26 12 9 15 28 10 5 4 3 2 0 0 0 0 0 0 0 1 0 0 0 0 0 0 0
0 10 3 8 13 7 4 5 2 8 15 11 11 5 27 19 4 29 35 46 31 3 0 23 36 13 7 0 8 0 0 0 0 0 0 0 0 0 3 4 0 0 0
6 4 16 8 14 11 2 2 2 4 2 9 21 0 0 4 7 30 50 60 73 119 102 50 15 25 5 0 0 0 0 0 0 0 0 0 0 0 0 0 0 0 0
20 6 5 9 10 7 9 4 2 2 3 1 1 3 15 14 3 15 58 90 96 118 84 71 73 49 0 0 0 0 0 0 0 0 0 0 0 0 0 0 0 0 0
24 1 4 6 3 7 9 12 1 3 6 0 0 2 25 79 30 32 61 79 70 47 126 140 139 127 104 2 0 0 19 105 65 3 0 0 0 0 0 0 0 0 0
28 1 0 6 4 3 12 11 11 5 1 0 0 0 2 59 121 39 54 100 67 42 43 99 149 165 150 147 45 81 48 86 129 94 6 0 0 0 0 0 0 0 0
15 23 1 10 10 6 3 11 11 7 0 0 0 0 0 4 91 98 49 68 110 122 74 109 155 171 157 205 159 154 134 134 102 103 67 36 0 0 0 0 0 0 0

GFSSE_con_sbcape_063.txt.gz
CAPE
1125 1319 1511 1448 1429 1467 1423 1387 1337 1231 1335 1492 1520 1391 1278 1131 982 848 730 595 533 730 686 686 636 401 493 634 612 720 636 536 491 526 488 417 144 124 90 96 221 110 508
1157 1276 1649 1548 1548 1647 1601 1553 1513 1392 1525 1605 1596 1429 1170 1099 1043 911 803 958 943 956 688 462 416 219 246 459 636 501 434 369 319 321 337 183 76 78 63 38 138 112 250
1105 1353 1704 1783 1672 1713 1666 1690 1714 1661 1671 1711 1675 1488 1233 1225 1168 1158 1234 1190 1219 1181 691 390 482 271 356 493 462 377 254 131 59 45 38 12 30 59 33 25 76 31 25
1259 1276 1641 1922 1806 1811 1700 1764 1805 1835 1799 1856 1779 1566 1408 1515 1499 1353 1203 1176 1233 1093 667 495 336 416 439 415 336 312 131 116 25 31 10 22 39 39 17 15 12 13 14
1123 1212 1575 1880 1898 1861 1770 1807 1832 1799 1695 1800 1727 1685 1678 1706 1604 1429 1156 1179 1148 1158 714 497 255 269 412 328 193 119 126 56 5 5 8 11 9 30 21 15 11 11 17
1087 1326 1381 1608 1899 1894 1860 1823 1696 1696 1479 1615 1619 1681 1805 1748 1577 1316 1024 958 1063 1114 469 215 219 211 60 50 88 67 36 39 0 0 8 16 14 28 11 18 9 17 14
1051 1098 1075 1240 1536 1869 1932 1822 1604 1520 1194 1547 1604 1740 1662 1538 1337 1100 878 855 912 885 526 166 167 68 12 22 0 4 2 0 0 0 0 8 11 16 16 9 14 17 8
1105 1207 1118 1128 1410 1411 1610 1378 1366 1357 948 970 1331 1491 1529 1265 1083 887 788 618 558 465 267 166 57 24 9 0 0 2 9 0 0 0 0 7 19 13 16 16 19 18 13
845 1031 1144 839 982 911 752 617 135 330 21 92 309 1209 1068 844 817 819 840 677 504 270 151 77 41 0 0 0 0 0 0 0 0 0 0 7 18 24 25 21 17 15 15
647 845 865 842 769 303 156 47 10 0 1 0 5 100 546 372 637 675 600 546 362 184 124 82 24 0 0 0 0 0 0 0 0 0 0 8 27 25 21 16 16 15 13
600 440 471 708 658 85 85 14 0 1 0 2 8 0 319 379 376 323 337 337 202 80 49 7 0 0 0 0 0 0 0 0 0 0 0 26 26 23 20 17 15 12 13
292 266 321 320 340 105 96 24 16 2 0 2 11 3 219 265 181 224 186 176 99 40 22 0 0 0 0 0 0 0 0 0 0 0 0 31 26 23 20 13 12 11 12
256 356 171 254 43 42 12 2 16 1 0 0 53 98 176 225 180 61 66 50 20 3 0 0 0 0 0 0 0 0 0 0 0 0 2 27 24 14 16 16 12 9 7
277 374 167 116 26 2 24 3 0 1 12 4 39 84 93 93 47 34 31 26 5 0 0 0 0 0 0 0 0 0 0 0 0 0 2 11 23 15 14 12 8 4 1
153 116 113 48 9 7 15 1 3 35 17 11 27 26 18 35 16 0 2 1 0 0 0 0 0 0 0 0 0 0 0 0 0 0 0 6 17 20 12 10 7 4 0
13 0 14 3 2 5 3 2 0 20 1 0 5 7 0 21 10 0 0 0 0 0 0 0 0 0 0 0 0 0 0 0 0 0 0 0 6 14 11 7 5 2 0
0 0 3 6 0 10 0 9 5 1 0 0 0 0 0 0 0 11 0 0 0 0 0 0 0 0 0 0 0 0 0 0 0 0 0 0 0 0 8 8 5 3 3
0 0 3 5 2 6 0 0 3 0 0 0 0 0 0 0 0 28 4 0 1 0 0 0 0 0 0 0 0 0 0 0 0 0 0 0 0 0 0 3 2 3 3
0 0 1 0 1 0 0 1 7 3 0 0 0 0 0 0 0 33 25 1 14 0 0 1 0 0 0 0 0 0 0 0 0 0 0 0 0 0 0 0 0 0 0
0 0 0 4 1 1 1 2 3 31 8 0 0 0 0 0 4 3 32 24 28 24 6 1 0 0 0 0 0 0 0 0 0 0 0 0 0 0 0 0 0 0 0
0 0 0 4 3 1 1 2 2 1 1 1 0 0 0 0 0 0 5 4 0 15 0 0 0 0 0 0 0 0 0 0 0 0 0 0 0 0 0 0 0 0 0
0 0 0 0 3 3 8 6 7 2 1 0 1 0 0 0 0 0 0 0 0 1 0 0 2 1 0 0 0 0 0 0 0 0 0 0 0 0 0 0 0 0 0
0 0 0 0 4 4 0 1 2 1 3 2 3 1 0 0 0 0 0 0 0 1 1 1 1 0 3 0 0 0 0 0 0 0 0 0 0 0 0 0 0 0 0
0 0 0 0 1 1 2 1 1 1 2 1 1 0 0 0 0 0 0 0 0 15 41 15 2 2 0 0 0 0 0 0 0 0 0 0 0 0 0 0 0 0 0
0 0 0 1 1 1 3 1 0 0 0 1 0 0 0 0 0 0 0 0 5 16 40 18 8 1 13 5 0 0 0 0 0 0 0 0 0 0 0 0 0 0 0
0 0 0 0 2 4 2 2 0 0 0 0 0 0 0 0 0 0 0 4 5 0 2 46 29 13 17 43 13 0 0 0 0 0 0 0 0 0 0 0 0 0 0

GFSSE_con_sbcape_066.txt.gz
CAPE
1088 1319 1375 1470 1528 1502 1426 1326 1263 1421 1504 1450 1410 1334 1277 1251 1154 1024 975 929 993 1222 937 783 1038 925 794 712 850 911 798 637 468 484 435 456 285 196 233 285 346 176 611
1119 1484 1361 1498 1614 1621 1500 1499 1411 1562 1658 1596 1504 1350 1211 1114 1012 957 957 983 1149 1249 745 746 914 770 676 607 767 668 580 457 380 413 392 203 157 217 196 197 398 303 486
1192 1613 1444 1478 1666 1756 1704 1679 1648 1803 1810 1695 1548 1397 1288 1214 1051 917 875 1012 1193 1167 757 633 743 736 477 634 555 453 341 208 129 123 30 9 26 79 65 65 157 141 145
1149 1472 1690 1537 1674 1784 1747 1740 1739 1864 1875 1747 1517 1449 1366 1295 1535 1434 1263 1145 1202 1061 580 388 745 567 574 516 295 224 166 92 47 34 4 20 23 44 23 20 16 17 17
1148 1409 1800 1627 1656 1718 1767 1740 1715 1763 1808 1712 1518 1568 1536 1673 1677 1582 1414 1322 1338 1282 861 707 560 597 555 291 205 164 77 18 10 5 2 10 16 29 17 10 8 12 12
1056 1445 1723 1658 1679 1757 1799 1794 1760 1701 1662 1620 1504 1678 1770 1781 1720 1594 1342 1319 1249 1185 937 663 564 643 257 139 125 40 0 0 0 1 6 9 3 13 16 11 14 10 23
881 1226 1527 1621 1754 1785 1824 1823 1749 1607 1594 1624 1605 1719 1779 1732 1575 1362 1131 1099 1037 1136 975 774 640 398 166 59 16 4 0 0 0 0 0 4 11 15 17 8 12 12 10
910 909 1161 1391 1762 1710 1550 1417 1559 1414 1469 1540 1566 1686 1756 1488 1249 1159 1076 973 992 735 618 453 158 75 21 0 2 0 0 0 0 0 1 8 31 23 18 12 16 7 5
999 827 890 1129 1253 762 1062 1011 797 658 829 772 119 745 1160 989 930 1015 981 900 639 480 451 237 97 12 10 0 0 0 0 0 0 0 0 5 21 10 20 17 13 15 22
381 815 734 692 626 141 71 163 115 226 151 17 5 2 104 551 771 735 637 582 464 367 256 165 41 23 2 1 0 0 0 0 0 0 0 1 21 21 19 15 17 18 18
448 211 279 400 224 41 0 16 34 72 155 51 1 0 1 100 290 428 337 340 310 139 121 81 10 15 0 0 0 0 0 0 0 0 0 39 23 20 16 16 19 16 15
234 112 178 222 71 17 1 0 0 0 5 2 0 1 0 61 178 293 267 211 125 116 90 40 0 0 0 0 0 0 0 0 0 0 2 38 22 17 13 19 15 15 12
81 79 60 88 133 101 2 4 2 0 0 0 0 0 0 122 157 199 124 65 53 81 7 0 0 0 0 0 0 0 0 0 0 0 5 30 25 13 16 19 14 13 11
181 36 38 36 136 35 1 1 1 0 0 0 2 0 13 45 84 57 22 9 11 0 0 0 0 0 0 0 0 0 0 0 0 0 5 20 24 15 13 12 12 9 9
110 66 50 55 60 42 2 2 1 0 7 0 37 1 25 57 32 16 12 3 0 0 0 0 0 0 0 0 0 0 0 0 0 0 0 11 15 16 10 12 8 5 5
1 17 15 47 35 22 1 1 0 9 14 15 68 33 58 7 3 6 1 0 0 0 0 0 0 0 0 0 0 0 0 0 0 0 0 0 9 18 17 7 6 4 4
0 0 11 7 19 2 1 0 8 2 6 17 25 7 17 12 0 0 0 0 0 0 0 0 0 0 0 0 0 0 0 0 0 0 0 0 0 3 12 12 3 3 1
0 0 0 16 13 4 3 2 1 0 0 0 0 0 1 2 0 0 0 0 0 0 0 0 0 0 0 0 0 0 0 0 0 0 0 0 0 0 0 5 8 9 1
0 0 1 2 2 1 2 1 0 0 0 0 0 0 7 0 0 0 0 0 0 0 0 0 0 0 0 0 0 0 0 0 0 0 0 0 0 0 0 0 0 0 4
0 0 0 0 1 0 4 4 2 1 0 0 0 0 1 0 13 3 0 0 0 0 0 0 0 0 0 0 0 0 0 0 0 0 0 0 0 0 0 0 0 0 0
0 0 0 1 1 1 1 1 3 2 1 1 0 0 0 0 0 19 0 0 2 0 0 0 0 0 0 0 0 0 0 0 0 0 0 0 0 0 0 0 0 0 0
0 0 0 1 1 1 1 0 0 0 0 1 0 0 0 0 0 4 11 1 13 2 0 0 0 0 0 0 0 0 0 0 0 0 0 0 0 0 0 0 0 0 0
0 0 0 1 1 0 0 0 0 0 1 1 1 2 0 0 0 0 6 0 4 0 0 0 0 0 0 0 0 0 0 0 0 0 0 0 0 0 0 0 0 0 0
0 0 0 0 0 0 0 0 1 1 2 4 0 0 2 0 0 0 0 0 2 5 0 0 0 0 0 2 0 0 0 0 0 0 0 0 0 0 0 0 0 0 0
0 0 0 0 0 1 2 0 1 1 1 0 1 1 1 0 0 0 0 0 0 4 0 0 0 0 0 0 0 0 0 0 0 0 0 0 0 0 0 0 0 0 0
0 0 0 0 0 0 8 2 1 0 0 0 0 0 0 0 0 0 0 1 0 0 0 0 0 0 0 1 0 0 0 0 0 0 0 0 0 0 0 0 0 0 0

GFSSE_con_sbcape_069.txt.gz
CAPE
969 1070 1329 1466 1464 1402 1262 1344 1314 1354 1486 1617 1646 1598 1526 1489 1428 1333 1233 1282 1329 1406 1082 936 1436 1258 906 908 777 736 823 733 651 629 650 587 474 350 368 374 482 289 672
967 1205 1320 1545 1562 1408 1304 1466 1450 1483 1570 1641 1641 1608 1529 1448 1362 1262 1314 1384 1394 1402 945 1018 1510 1305 866 848 911 755 648 515 485 529 557 417 387 384 390 339 499 421 624
1237 1328 1326 1495 1646 1623 1491 1603 1689 1669 1687 1625 1588 1540 1471 1384 1310 1269 1302 1362 1346 1347 1139 1043 1007 1009 881 863 748 664 560 437 342 252 92 12 102 275 293 374 495 388 435
1359 1387 1328 1512 1647 1744 1657 1668 1750 1842 1779 1673 1565 1491 1393 1350 1303 1274 1301 1296 1313 1329 1193 1138 1107 929 717 698 525 387 349 229 138 48 0 7 24 95 56 50 107 197 243
1276 1437 1376 1534 1603 1742 1729 1727 1771 1784 1724 1604 1527 1519 1382 1267 1251 1345 1300 1247 1304 1318 1194 1045 894 733 600 391 310 255 147 61 16 0 0 10 9 34 31 20 13 13 13
993 1478 1532 1455 1532 1764 1785 1764 1743 1756 1545 1504 1473 1463 1505 1623 1573 1490 1303 1248 1240 1165 1267 1069 680 462 390 291 144 85 37 0 0 0 0 8 7 26 11 13 20 20 16
861 1280 1561 1374 1501 1729 1844 1795 1681 1690 1511 1382 1419 1438 1636 1701 1697 1563 1350 1354 1249 1161 1195 944 608 365 348 144 66 17 0 0 0 0 0 1 3 15 10 14 14 12 11
818 1005 1386 1523 1486 1636 1718 1410 1393 1533 1488 1392 1469 1547 1638 1574 1494 1394 1319 1140 978 914 707 544 323 296 119 50 6 0 0 0 0 0 0 0 22 14 20 15 8 15 13
693 822 1040 1466 1679 1364 1282 1254 877 875 910 1070 977 704 849 923 1154 1157 1202 1075 948 657 517 358 257 43 89 23 0 0 0 0 0 0 0 8 22 30 18 13 12 12 9
522 520 696 737 387 140 344 805 472 144 73 45 183 296 282 221 517 765 809 886 745 531 386 222 45 22 64 0 0 0 0 0 0 0 0 14 27 25 25 21 18 18 16
335 289 199 270 126 71 171 500 401 105 0 15 139 88 6 7 172 304 400 401 474 250 209 80 10 28 18 0 0 0 0 0 0 0 0 34 29 29 28 23 23 15 12
221 9 18 40 30 15 113 66 128 0 7 7 4 5 2 4 111 106 242 304 249 177 108 34 9 14 0 0 0 0 0 0 0 0 0 39 27 26 24 21 11 12 15
45 0 0 4 40 2 1 1 1 4 17 1 0 0 0 4 101 95 108 116 88 90 5 0 0 0 0 0 0 0 0 0 0 0 7 36 32 24 22 20 16 11 6
4 0 1 13 34 33 2 1 1 0 1 0 0 0 4 4 44 100 100 16 3 0 0 0 0 0 0 0 0 0 0 0 0 0 8 31 32 18 23 22 14 9 10
13 0 0 0 14 21 1 1 1 0 1 1 0 0 4 23 74 73 36 6 0 0 0 0 0 0 0 0 0 0 0 0 0 0 0 22 29 30 22 17 12 10 7
2 1 0 0 48 47 9 1 1 0 1 0 3 0 39 42 86 22 11 0 0 0 0 0 0 0 0 0 0 0 0 0 0 0 0 3 18 31 24 11 9 8 11
15 0 0 0 30 53 13 1 2 3 2 0 2 0 17 92 72 13 0 0 0 0 0 0 0 0 0 0 0 0 0 0 0 0 0 0 0 6 19 15 5 5 6
0 0 1 0 0 20 1 1 1 1 0 4 24 38 8 75 33 2 0 0 0 0 0 0 0 0 0 0 0 0 0 0 0 0 0 0 0 0 1 7 11 5 3
0 0 1 1 0 1 5 2 1 0 0 0 1 1 24 5 0 0 0 0 0 0 0 0 0 0 0 0 0 0 0 0 0 0 0 0 0 0 0 0 1 3 6
0 0 0 0 1 1 3 1 1 1 1 0 0 0 0 7 0 0 0 0 0 0 0 0 0 0 0 0 0 0 0 0 0 0 0 0 0 0 0 0 0 0 0
0 0 1 0 2 1 2 3 1 1 1 0 0 0 0 12 0 0 0 0 0 0 0 0 0 0 0 0 0 0 0 0 0 0 0 0 0 0 0 0 0 0 0
0 0 0 0 2 1 2 2 5 4 1 0 0 0 0 0 6 0 0 0 0 0 0 0 0 0 0 0 0 0 0 0 0 0 0 0 0 0 0 0 0 0 0
0 0 0 0 0 1 0 0 0 0 1 1 1 1 0 0 0 2 0 0 0 0 2 0 0 0 0 0 0 0 0 2 0 0 0 0 0 0 0 0 0 0 0
0 0 0 1 0 0 0 0 0 0 0 0 1 1 2 0 0 0 5 0 0 12 11 3 0 0 0 0 0 0 0 0 0 0 0 0 0 0 0 0 0 0 0
0 0 1 0 0 0 0 0 0 0 0 0 0 1 2 1 0 0 0 0 0 14 16 10 1 0 1 1 0 0 0 0 0 0 0 0 0 0 0 0 0 0 0
0 0 0 0 0 0 0 0 0 0 0 2 5 3 3 1 0 0 0 0 0 4 2 2 2 0 0 4 0 0 0 0 0 0 0 0 0 0 0 0 0 0 0

GFSSE_con_sbcape_075.txt.gz
CAPE
968 1104 1088 924 1019 1401 1512 1509 1611 1777 1757 1754 1811 1820 1814 1856 1815 1715 1570 1545 1774 1774 1611 1269 1515 1431 1106 1039 1323 1201 1100 984 888 971 963 1045 811 775 757 906 790 635 891
1053 1291 1108 1021 1038 1501 1548 1607 1718 1819 1877 1951 1940 1896 1903 1910 1816 1626 1601 1673 1741 1830 1556 1455 1724 1760 1251 1072 1185 1061 966 864 789 849 887 922 778 695 693 839 751 650 853
1313 1300 1312 971 1277 1565 1620 1647 1885 2117 2102 2114 2058 1998 1980 1967 1790 1681 1755 1723 1722 1740 1770 1484 1468 1317 1053 1187 1026 961 898 795 741 739 728 450 585 701 679 776 787 799 651
1462 1427 1524 1153 1320 1584 1627 1754 1745 2171 2321 2254 2184 2118 2073 1937 1838 1839 1824 1766 1805 1801 1610 1496 1502 1235 1210 1060 925 883 808 685 537 589 614 642 552 617 542 524 581 641 597
1464 1434 1465 1118 1049 1362 1633 1726 1712 1750 2061 2195 2156 2214 2137 2018 2023 2024 1826 1800 1780 1717 1835 1504 1363 1254 1080 862 749 641 491 251 148 407 556 521 612 566 568 520 439 483 545
1563 1448 1224 1237 1234 1275 1682 1696 1834 1486 1527 2013 2066 2133 2148 2148 2166 2001 1788 1832 1847 1868 1849 1643 1292 1080 818 637 489 344 162 33 73 224 295 252 246 211 172 192 288 167 306
1468 1589 1606 1343 1335 1454 1698 1667 1743 1688 1264 1765 1963 1958 1999 2043 2042 1612 1538 1692 1524 1732 1699 1462 1185 892 641 466 303 98 5 0 54 80 58 66 44 32 16 18 15 20 21
1748 1342 1424 1394 1489 1463 1524 1588 1467 1421 1380 1466 1743 1829 1832 1601 1540 1337 1175 1135 1398 1548 1366 1150 876 710 532 293 97 9 0 0 0 5 7 16 38 20 18 11 10 8 14
1838 1908 1325 1322 1618 1454 1381 1413 1099 975 994 1336 1220 1010 641 511 595 677 884 1072 1241 1142 1089 872 662 483 376 168 37 0 0 0 0 0 2 9 28 22 20 17 17 16 16
1638 1814 1643 1196 1441 1810 1870 596 646 672 615 624 453 328 126 121 156 330 510 909 830 941 695 655 473 366 221 68 3 0 0 0 0 0 6 18 37 13 20 28 17 17 17
1413 1486 1170 1052 1516 1354 1820 682 558 594 633 394 451 127 93 183 98 102 159 301 620 428 391 424 349 204 82 14 0 0 0 0 0 2 4 14 39 25 31 23 28 19 16
1505 1358 1324 1216 929 921 1113 772 1081 938 993 764 273 66 313 169 93 43 62 207 237 197 192 256 202 50 30 31 0 0 0 0 0 2 10 21 32 40 37 31 19 18 17
1434 1234 1117 772 650 598 335 597 676 831 983 583 155 78 250 256 110 109 64 110 81 148 276 251 167 98 49 12 0 0 0 0 0 1 12 20 56 31 23 20 18 16 16
1112 1187 962 608 477 175 217 123 322 273 284 224 276 122 175 306 85 45 43 107 92 68 252 257 169 41 6 0 0 0 0 0 1 4 3 32 51 35 21 17 19 16 24
1010 979 591 363 320 186 54 24 47 108 164 35 73 7 8 178 183 79 34 166 35 4 168 122 28 5 0 0 0 0 0 0 0 6 18 26 38 21 24 26 21 26 17
760 838 304 203 275 145 46 4 6 45 42 12 10 7 31 175 201 46 100 135 4 0 12 12 20 7 0 0 0 0 0 0 1 14 9 23 17 33 49 22 24 17 17
635 713 165 183 150 55 26 4 6 4 3 6 5 5 34 123 74 33 132 64 1 0 0 0 0 2 0 0 0 0 0 0 1 9 13 19 10 14 23 33 27 17 18
582 418 143 36 64 29 2 3 5 4 2 3 3 6 7 50 126 55 65 32 1 0 0 0 0 0 0 0 0 0 0 0 2 2 6 14 21 19 12 19 21 27 18
462 436 58 59 50 24 3 4 3 9 5 5 5 3 2 10 69 91 30 3 0 0 0 0 0 1 2 0 0 0 0 0 1 0 5 14 25 23 21 13 8 8 25
414 340 84 78 30 6 7 10 14 19 13 19 10 3 2 18 50 28 8 2 1 1 0 0 0 0 8 0 0 0 0 4 2 3 5 9 18 22 23 24 22 14 7
314 100 50 64 32 6 3 13 12 5 7 2 24 44 3 6 70 1 0 0 0 0 0 0 0 0 0 0 2 7 5 6 1 2 2 5 8 6 12 18 20 19 10
167 124 59 92 59 62 10 2 4 5 4 2 18 6 81 24 5 0 0 0 0 16 0 0 0 0 2 1 10 12 13 10 8 1 0 0 3 1 0 0 3 6 6
161 140 37 44 90 50 18 18 5 8 6 5 2 3 6 2 2 0 1 0 0 0 0 0 0 0 0 1 0 26 14 47 6 6 3 0 1 0 6 0 0 0 0
278 164 17 7 27 30 15 8 5 5 13 8 3 1 3 3 3 1 0 0 0 0 0 0 0 0 0 0 0 0 43 22 61 13 0 0 0 0 7 9 22 12 5
203 62 2 1 6 12 16 5 6 10 28 8 6 3 2 3 1 2 1 0 0 0 0 0 0 0 3 30 10 5 3 2 42 80 48 0 0 0 27 47 45 31 44
123 7 1 1 4 10 14 14 21 18 1 4 6 18 9 2 3 1 1 0 0 0 0 0 0 0 7 23 37 68 30 15 0 5 0 17 32 0 33 58 80 62 43

GFSSE_con_sbcape_078.txt.gz
CAPE
888 1196 1169 1415 1522 1573 1626 1639 1747 1803 1777 1759 1868 1902 1863 1896 1899 1886 1881 1832 1804 1801 1586 1427 1316 1152 1141 1087 1095 1370 1354 1264 1136 1189 1083 1144 1031 933 875 1017 913 839 967
1306 1412 972 1206 1513 1588 1658 1736 1840 1945 1933 1968 1944 2001 1959 1984 1974 1903 1902 1915 1842 1975 1682 1468 1340 1367 1293 1416 1446 1291 1199 1111 1063 1004 1055 1074 1031 891 808 958 938 866 988
1689 1947 1474 1143 1423 1719 1783 1826 2036 2184 2127 2100 2073 2049 2072 2089 2065 1847 1794 1960 1977 1976 1907 1582 1617 1552 1443 1348 1209 1174 1100 1046 999 953 996 859 867 907 860 943 884 929 952
1535 2040 1940 1227 1438 1797 1891 1986 2119 2296 2318 2212 2106 2131 2173 2158 2015 1844 1826 1932 2000 2108 2182 1822 1579 1547 1367 1240 1117 1056 1006 956 803 731 895 802 737 846 808 771 848 803 799
1647 1896 2001 1274 1359 1769 1900 1944 1961 2201 2232 2182 2194 2304 2301 2168 2050 1969 1862 1951 2093 2151 2227 1909 1594 1502 1265 1029 960 923 834 774 780 815 528 559 705 814 753 803 739 722 726
1762 1828 1387 1128 1180 1699 1826 1917 1835 1772 2026 2131 2133 2297 2324 2202 2115 1918 1865 1987 2177 2169 2050 1766 1437 1359 991 826 746 646 467 454 470 599 638 642 638 637 644 518 624 685 577
2010 2046 1989 1021 1177 1415 1842 1941 1882 1709 1638 2063 2142 2173 2165 2105 1982 1612 1795 1860 1924 1956 1833 1607 1455 1086 856 674 562 313 224 215 646 533 434 532 482 451 376 282 219 169 133
2226 2260 2228 1458 1400 1425 1582 1688 1760 1565 1288 1728 2023 1848 1842 1583 1652 1371 1295 1623 1664 1301 1241 1372 1115 920 699 512 208 55 7 40 292 249 249 127 200 209 91 40 32 101 23
2398 2386 2390 1837 1764 1321 1338 1459 1412 1252 1145 1120 1486 1169 922 646 852 703 688 820 1107 1038 1191 1126 923 721 532 244 62 4 0 6 228 140 115 35 61 23 14 7 10 11 15
2604 2680 1947 1869 1918 2099 2000 1123 1159 938 872 930 748 512 353 351 335 260 221 429 554 972 1019 906 710 506 274 79 1 0 0 0 152 103 63 58 72 21 11 11 7 11 16
2394 2511 2283 1847 1879 2033 2196 1931 954 891 791 570 501 297 279 615 294 383 280 424 486 521 580 571 387 214 103 30 0 0 1 86 59 48 80 24 30 27 25 20 18 21 20
2250 2300 2341 1846 1749 1977 1889 2145 1991 1710 1243 1051 1047 881 1006 507 379 494 279 339 286 230 303 242 154 43 100 210 91 1 117 66 38 29 63 46 26 32 32 25 20 22 18
1948 2008 2142 2325 2209 2126 1864 1756 2042 1636 1394 1371 1173 842 859 555 328 78 151 396 296 195 298 245 258 386 335 250 172 146 78 65 35 24 10 29 50 39 32 28 25 18 19
1885 1886 1913 1717 1674 1724 1612 1338 1547 1605 1524 1481 1240 938 518 442 234 145 124 207 144 244 183 471 685 423 331 182 183 98 52 25 25 16 19 33 61 33 26 28 23 15 17
1796 1808 1853 1535 1226 1141 1054 1032 978 1438 983 888 1194 1102 574 382 424 328 334 233 98 137 117 590 350 291 250 225 173 100 23 19 14 6 28 26 47 48 31 23 20 17 22
1669 1854 1884 1540 1325 1369 1147 752 781 753 917 608 722 966 888 534 333 184 146 243 109 38 89 345 246 286 237 209 177 69 22 6 6 10 18 29 18 49 51 39 33 25 25
1591 1780 1812 1331 967 1132 1132 570 369 346 491 546 336 568 325 246 319 125 105 158 90 44 71 234 244 201 181 165 136 67 7 3 3 9 18 29 17 19 48 58 42 24 22
1555 1695 1556 1022 1210 1211 730 332 120 98 259 397 239 273 179 189 258 200 115 78 18 1 47 185 172 161 154 162 124 37 16 12 3 10 18 47 25 14 18 33 40 40 29
1577 1720 1560 1141 1025 848 488 196 53 36 97 57 55 54 136 199 188 217 135 117 6 0 1 145 173 192 150 153 120 59 48 27 9 1 31 56 28 23 23 14 24 27 36
1516 1752 1470 840 851 652 440 127 31 137 55 16 8 15 17 28 92 75 161 18 20 1 1 125 194 173 180 165 54 76 76 53 32 21 31 26 27 18 24 35 25 21 13
1569 1699 1396 810 710 492 293 61 44 170 81 34 26 21 23 12 4 96 35 3 9 0 0 30 172 175 150 150 46 70 54 23 33 17 26 21 12 16 23 31 25 14 1
1508 1586 1278 926 512 392 264 13 25 16 50 107 75 59 85 185 90 4 3 4 1 1 0 97 169 154 148 134 96 81 35 40 27 27 33 40 17 6 11 18 19 14 10
1443 1516 1187 931 849 518 441 184 317 38 44 52 41 38 53 221 25 7 4 4 2 2 2 75 150 166 110 124 124 48 57 40 29 35 19 22 14 17 5 6 5 3 2
1265 1394 1165 1009 576 645 441 207 158 28 11 43 23 5 32 20 4 1 1 2 2 13 8 54 90 163 147 112 119 66 74 43 44 79 77 60 24 16 23 23 9 15 24
1139 1305 1210 981 514 519 290 133 116 31 24 54 17 11 15 9 6 1 2 2 2 4 90 161 118 138 117 109 85 123 123 109 118 77 72 74 70 23 47 87 42 86 88
1045 1214 975 719 341 392 305 150 62 12 34 111 23 30 8 5 5 5 3 2 0 0 51 76 26 38 80 81 73 72 104 107 108 108 84 117 113 113 78 87 159 210 167

GFSSE_con_sbcape_081.txt.gz
CAPE
506 1563 1304 1586 1667 1729 1741 1868 1802 1773 1770 1785 1918 1941 1950 2002 1987 1988 2007 1946 1904 2044 2085 1823 1613 1219 1094 1118 1127 1528 1507 1355 1269 1331 1282 1338 1075 957 943 1078 951 892 1031
1006 1316 1188 1556 1689 1801 1824 1848 1942 1919 1900 1942 2019 2037 2028 2059 2081 2041 2029 1939 1960 2166 2097 1929 1556 1267 1330 1256 1602 1465 1352 1215 1122 1144 1186 1146 1055 948 833 972 1100 952 1188
1419 1347 1351 1459 1740 1852 1904 1916 2076 2167 2080 2047 2078 2105 2121 2147 2172 2097 2014 2001 2039 2280 2129 1647 1529 1522 1441 1553 1418 1362 1306 1175 1043 1046 892 851 929 1094 1011 936 1075 1058 946
1362 1815 1474 1256 1678 1897 1935 1984 2076 2356 2307 2184 2150 2163 1897 2220 2206 1767 2053 2013 2158 2150 1894 1732 1742 1761 1564 1417 1287 1252 1199 1063 981 1044 811 772 874 973 906 866 969 983 919
874 1527 1981 1257 1528 1904 1996 2044 2112 2335 2297 2178 2113 2277 2253 2292 2262 1872 1718 2085 2069 2292 1951 1758 1915 1645 1378 1161 1110 1107 1048 927 646 559 684 803 906 992 1014 912 862 797 835
922 1199 1149 1160 1449 1831 2021 2067 2180 2196 2215 2130 2094 2255 2360 2304 2171 1514 1416 2057 2132 2281 2094 1962 1654 1478 1140 1002 995 997 907 838 416 653 650 653 744 775 771 798 966 863 819
1285 1631 2147 1136 1209 1720 2003 2092 1993 1927 2098 2125 2137 2157 2190 2190 2037 1315 1587 1861 1991 1818 1880 1627 1648 1243 1029 926 889 803 719 622 649 620 776 678 771 770 746 624 558 651 584
1726 1965 2345 1302 1268 1446 1807 1941 1860 1745 1720 1990 2039 1860 2010 1449 1396 966 1186 1323 1270 1252 1108 1448 1260 1076 929 813 660 519 368 319 442 592 523 680 564 590 459 412 301 390 88
2083 2298 2625 2001 1618 1213 1401 1616 1755 1708 1514 1341 1815 1172 1258 727 642 500 721 748 889 699 1033 1100 1038 871 799 513 321 119 55 24 380 249 303 335 450 347 197 177 130 50 13
2294 2479 2684 2402 2338 2191 2016 1382 1416 1483 1116 1126 1358 943 781 637 379 351 317 222 254 543 678 927 595 581 413 172 62 0 0 0 231 79 83 98 323 47 22 27 30 17 16
2253 2556 2355 2310 2416 2398 2170 1890 1288 1257 1108 883 820 558 450 924 578 378 58 37 138 300 282 438 351 232 60 40 12 0 0 77 92 84 61 58 48 6 15 11 16 15 13
2082 2412 2831 2149 2521 2400 1888 2453 2091 2015 1627 1412 956 1107 1128 1168 604 128 0 0 219 276 363 289 188 37 68 159 46 1 159 188 64 83 24 3 4 19 18 8 14 16 16
1964 2244 2408 2409 2475 2389 1978 2411 2428 2048 1744 1852 1403 1423 1207 1266 506 540 121 274 424 426 546 172 126 495 458 349 204 155 145 52 56 78 3 0 37 29 23 20 24 22 20
1801 2053 2176 2480 2356 2180 1832 2403 2189 1934 1906 1705 1466 1289 1294 1160 715 481 520 502 485 574 308 211 291 670 297 246 205 124 104 39 51 70 0 0 52 40 32 25 23 26 18
1431 1941 2209 2252 2047 1913 1962 1952 2070 1956 1860 2001 1488 1341 1209 879 658 195 226 293 270 425 242 185 220 580 339 181 154 83 35 43 43 57 1 2 42 59 32 35 27 23 22
1168 1856 2168 2258 1876 1735 1624 1496 1576 1904 1724 1695 1435 1369 1094 1054 746 441 115 300 515 337 114 93 137 280 347 140 131 60 55 30 7 16 15 32 21 46 45 35 28 29 26
467 1660 2234 2350 2003 1891 1761 1355 1377 1327 1416 1118 1182 1240 984 934 859 663 506 400 232 122 63 69 100 266 253 132 130 97 48 11 2 13 23 25 23 19 34 49 66 35 35
395 1647 2227 2087 1887 1817 1570 1325 898 1117 1264 933 1006 1029 853 628 706 178 133 142 150 70 69 70 85 272 149 140 35 69 33 9 7 10 16 17 19 19 15 45 67 49 42
790 1717 2245 2047 1755 1767 1529 885 656 727 599 660 767 667 586 466 361 271 267 54 60 69 66 52 68 280 159 93 38 59 50 21 9 8 21 29 2 12 21 30 32 30 38
1065 1817 2221 1982 1856 1654 1234 676 737 379 259 261 201 216 432 426 163 334 109 16 36 28 45 38 75 188 146 119 32 53 88 47 19 18 22 22 17 22 15 15 12 9 14
1369 1949 2211 1947 1772 1463 1125 888 656 688 414 272 161 74 84 169 344 353 50 9 6 33 5 26 58 143 137 106 79 45 98 81 68 29 25 8 22 17 38 45 11 2 0
1484 1942 2125 1805 1610 1334 1041 717 494 460 575 421 290 187 48 61 186 33 47 4 13 15 2 1 57 92 153 113 35 54 60 49 50 31 9 15 28 32 26 27 13 2 6
1390 1970 2029 1751 1448 1184 937 658 432 174 295 164 298 372 143 269 242 192 14 7 18 1 0 1 32 78 104 106 124 55 39 32 36 53 41 31 54 33 34 16 5 1 3
1318 1787 1955 1747 1430 1183 946 611 454 346 107 312 223 251 200 146 255 142 13 4 6 1 1 0 47 76 89 116 137 140 94 31 48 55 46 33 31 25 39 15 8 4 3
1254 1739 1890 1693 1464 1181 1030 848 534 298 285 274 130 149 48 30 6 2 1 3 3 2 1 0 43 80 114 120 161 211 174 131 85 88 42 72 80 19 17 43 11 24 22
1095 1856 1790 1688 1463 1239 1187 791 471 300 266 325 158 126 18 15 6 2 1 3 5 5 2 0 43 107 141 162 179 160 141 122 102 84 106 104 134 97 69 86 52 59 85

GFSSE_con_sbcape_087.txt.gz
CAPE
1086 1232 1614 1768 1697 1640 1557 1501 1493 1614 1742 1863 1895 1887 1928 2013 2040 1981 2007 2087 2103 2151 2262 2056 1892 1730 1534 1355 1599 1599 1383 1164 1148 1263 1316 1402 1358 1236 1424 1308 1136 974 1317
1139 1247 1505 1779 1847 1823 1717 1599 1578 1716 1882 2006 2008 2027 2048 2041 2060 2016 2000 2179 2223 2434 2040 1731 1661 1597 1468 1527 1559 1485 1416 1253 1127 1092 1218 1353 1494 1371 1224 1249 1133 1090 1269
1210 1318 1416 1656 1905 2000 1932 1816 1781 1931 2050 2106 2126 2142 2149 2128 2137 2048 1973 2089 2337 2475 2141 1808 1621 1619 1613 1503 1394 1368 1318 1265 1207 1099 1091 757 1003 1438 1196 1323 1254 1222 1117
1340 1389 1479 1577 1762 1961 2014 1923 1903 2092 2147 2198 2194 2265 2252 2228 2208 2066 1916 2029 2362 2466 2311 1745 1604 1653 1560 1438 1276 1252 1239 1184 1106 955 709 748 1027 1289 1228 1143 1080 1125 1107
1113 1387 1570 1622 1718 1810 1868 2028 1985 2093 2108 2129 2190 2373 2358 2290 2106 1983 1916 2075 2351 2391 2175 1816 1854 1778 1459 1187 1130 1135 1044 897 711 490 489 585 824 1088 1201 1006 1074 1109 1019
987 1542 1374 1480 1627 1795 1858 1888 2057 2103 2011 2024 2081 2288 2389 2261 2175 1967 1762 1923 2409 2297 2075 1948 2148 1611 1128 1020 1004 920 730 639 388 339 452 760 704 960 1070 969 1054 1046 905
1404 1165 1245 1391 1635 1809 1921 1947 1956 2094 2087 2008 2090 2108 2271 2161 2034 1840 1699 1602 2073 2014 1462 1792 1785 1205 1057 1006 895 709 550 477 296 344 362 395 632 1028 960 986 935 995 897
1597 1172 1165 1403 1615 1757 1831 1800 1864 2042 2117 2085 2111 2141 2228 2045 1730 1407 1466 1224 1076 838 807 1104 1075 1067 999 991 719 536 428 447 341 359 368 390 831 961 964 741 735 719 668
2024 1251 1135 1338 1517 1586 1624 1578 1664 1958 2112 2113 2098 2086 2059 1843 1384 1034 872 596 282 299 268 418 877 929 958 742 528 411 224 243 203 269 319 371 824 835 819 589 476 370 353
2202 1533 1120 998 1095 1173 1207 1470 1495 1551 1468 1546 1731 1734 1935 1466 1027 753 490 470 483 181 110 164 519 718 782 414 329 199 185 264 191 134 102 361 872 677 608 529 334 167 77
2432 2097 1516 1253 1166 1050 1043 1229 1463 1561 1450 1408 1412 1311 1098 843 667 639 45 164 239 6 137 204 215 334 223 197 136 136 4 0 81 65 107 519 907 797 648 413 269 121 29
2147 2489 1973 1787 1661 1481 1653 1157 1014 1308 1136 973 1004 603 734 494 338 305 63 240 178 133 166 143 155 113 66 22 22 14 0 0 5 51 154 400 809 539 571 393 231 106 40
2023 2545 2021 1870 2092 1999 1540 1055 1099 1081 1005 913 806 572 807 515 173 215 166 189 71 109 55 88 102 81 65 37 2 0 0 0 0 44 126 243 518 355 277 192 85 34 28
2086 2445 2115 1727 2214 2026 1545 1526 1470 1366 1108 964 844 764 803 386 123 3 0 1 16 47 98 52 51 96 73 56 30 9 1 3 0 10 58 63 135 98 46 76 56 38 27
1217 2354 2257 1840 2065 1859 1543 1531 1418 1578 1389 1158 932 772 765 391 305 15 0 0 26 62 88 80 57 139 164 94 55 43 0 0 1 10 16 19 13 32 14 20 29 23 26
0 1936 2319 2050 1985 1843 1592 1306 1242 1316 1114 1173 925 834 783 606 283 108 14 2 24 69 159 107 85 94 120 123 62 69 0 0 0 6 5 0 0 1 10 18 14 27 20
0 477 2331 1970 1972 1839 1415 1374 1178 1139 1102 1004 906 814 796 718 532 286 199 79 35 93 86 59 21 26 33 56 29 8 0 0 0 0 0 0 0 0 4 36 41 28 15
0 254 2271 2126 1848 1401 1329 1101 1067 920 1016 859 856 749 713 692 607 230 174 61 33 34 51 49 35 33 30 38 22 7 2 0 0 0 0 0 0 0 2 29 43 45 41
0 230 2117 1835 1541 1216 1110 934 867 861 901 681 765 832 725 624 444 199 34 34 50 22 7 4 3 20 41 55 34 2 0 0 0 2 0 0 0 0 0 11 20 25 44
0 675 1948 1675 1457 949 992 553 370 585 826 530 556 725 832 482 324 32 9 9 0 1 0 0 2 10 46 19 84 5 0 0 0 0 0 0 0 0 0 3 8 14 18
0 1643 1872 1649 1499 1003 720 507 337 374 666 475 377 448 450 276 159 0 11 22 0 0 8 3 27 25 39 4 0 0 0 0 0 0 0 0 0 0 0 0 0 0 0
20 1893 1914 1736 1481 771 603 417 234 245 426 273 220 287 375 169 56 8 22 3 2 3 16 19 7 17 17 13 0 1 2 5 15 0 1 0 0 0 0 0 0 0 0
907 1930 1677 1563 1410 733 437 363 266 229 280 223 183 125 197 199 72 34 1 1 1 3 4 14 8 8 21 29 6 0 0 2 15 12 1 1 0 0 0 0 0 0 0
1926 1945 1579 1450 1375 665 484 412 443 469 406 251 183 161 46 43 97 55 41 1 1 4 13 5 0 0 9 13 1 0 0 0 0 7 1 0 0 0 0 0 0 0 0
1564 1935 1569 1487 1339 831 549 379 378 346 242 86 99 125 53 8 11 1 0 4 7 11 14 25 2 4 5 1 0 0 2 15 5 0 0 0 0 0 0 0 0 0 0
1329 1804 1554 1435 1357 852 526 440 419 296 245 138 79 51 6 0 1 1 0 1 15 14 11 18 4 0 0 5 12 5 16 26 14 13 0 0 0 0 0 0 0 0 0

GFSSE_con_sbcape_090.txt.gz
CAPE
992 1316 1542 1610 1664 1644 1563 1488 1489 1531 1639 1693 1768 1949 2075 2059 2011 1993 2102 2081 1980 2252 2441 1826 1958 1957 1791 1504 1785 1582 1519 1385 1228 1456 1507 1665 1438 1317 1307 1444 1367 1242 1549
1029 1428 1584 1640 1728 1799 1731 1613 1624 1733 1892 1931 1869 1932 2046 2083 2041 2097 2157 2197 2300 2300 2192 1804 1932 1895 1552 1610 1497 1444 1342 1266 1298 1354 1570 1394 1445 1275 1242 1326 1259 1283 1402
1179 1446 1660 1696 1798 1867 1890 1838 1899 2025 2108 2099 2057 2005 2060 2145 2117 2124 2193 2290 2342 2455 2094 1799 1774 1868 1696 1639 1503 1491 1399 1320 1274 1324 1337 875 1162 1331 1286 1375 1386 1388 1225
1263 1443 1627 1768 1883 1931 1876 1885 1991 2168 2157 2232 2220 2174 2164 2229 2166 2087 2125 2233 2428 2487 2201 1944 1909 1889 1653 1495 1406 1387 1281 1136 1008 944 745 783 1225 1332 1262 1239 1266 1234 1237
1334 1456 1553 1769 1972 1970 1905 1897 1977 2120 2153 2181 2241 2341 2333 2350 2322 2172 2023 1988 2495 2536 2295 1984 1899 1663 1442 1198 1192 1203 1149 864 750 460 292 702 1015 1292 1301 1241 1278 1191 1203
1362 1430 1459 1604 1799 2004 2018 1959 1994 2025 1959 1978 2111 2390 2464 2469 2435 2152 1929 2051 2528 2376 2296 2197 2051 1243 1077 968 1021 1043 818 506 348 362 572 843 741 1145 1097 1168 1241 1123 1023
1221 1266 1354 1542 1685 1872 2058 2103 2029 1965 1910 1937 2057 2227 2375 2446 2247 2106 1807 1898 2200 1751 1565 1612 1377 923 1009 864 910 693 398 350 295 328 402 543 753 1108 1082 1098 1138 1125 1090
1192 1154 1214 1434 1625 1829 1909 1863 1951 1998 1908 1961 1991 2069 2267 2221 2119 1957 1731 1520 1444 996 878 1030 926 816 828 856 673 364 292 367 289 302 377 442 987 1040 1068 914 969 1024 955
1094 1078 1150 1409 1622 1636 1697 1672 1744 1938 1989 1973 1998 2012 2086 2040 1852 1671 1534 1213 953 782 684 701 571 618 523 631 415 251 283 283 208 223 365 552 976 1055 1070 892 814 682 609
1063 1072 1038 1108 1282 1246 1276 1498 1690 1888 1976 1979 1956 1903 1886 1915 1688 1165 994 919 724 684 596 533 333 331 385 306 229 149 227 266 224 214 274 436 1025 892 822 627 558 428 316
1344 1125 992 978 974 980 987 1269 1546 1658 1746 1771 1623 1564 1492 1252 907 804 420 692 356 334 414 348 177 115 127 206 110 104 142 87 131 128 75 617 881 812 733 620 578 406 204
1708 1279 1051 916 944 919 1261 1163 1170 1382 1177 1227 1207 1101 887 635 385 254 128 449 62 63 179 255 186 123 145 105 65 13 0 0 36 71 225 459 996 897 795 575 528 275 143
2060 1809 1453 1160 1094 1115 1356 804 783 1110 902 791 813 526 370 251 380 83 21 198 59 165 137 147 88 96 105 33 38 0 0 0 0 25 228 393 848 776 708 486 304 213 127
2121 2232 1925 1712 1580 1494 1382 894 821 839 764 659 457 470 463 251 166 138 118 77 117 66 57 9 14 31 88 57 24 0 0 0 0 27 127 261 460 659 603 487 261 152 61
1833 2411 2103 2102 2028 1825 1473 1121 1046 993 860 722 403 666 467 127 22 66 3 79 150 103 103 2 2 89 114 76 18 6 0 0 6 26 68 164 234 402 469 324 173 67 31
1732 2258 2208 1875 2246 1899 1637 1377 1228 1186 1047 693 470 630 409 235 45 26 0 85 138 97 71 16 0 41 146 94 28 1 0 0 0 0 6 3 21 73 229 241 136 60 36
0 1987 2304 1978 2032 1893 1532 1384 1032 919 944 880 599 517 489 138 80 22 1 12 93 76 68 66 17 36 28 77 34 0 0 0 0 0 0 0 0 0 3 43 41 40 26
0 1171 2430 2262 2002 1738 1506 1263 908 782 789 803 584 531 480 293 219 130 76 2 28 207 80 28 4 6 0 29 19 0 0 0 0 0 0 0 0 0 0 12 32 49 39
0 4 2290 2242 2063 1739 1232 1145 810 713 553 402 483 520 427 428 323 284 207 141 40 71 72 9 10 14 16 23 24 7 0 0 0 0 0 0 0 0 0 6 24 26 40
0 85 2124 2140 2016 1688 1162 794 554 579 477 486 272 515 358 371 237 239 199 62 143 106 5 2 0 0 9 30 106 44 0 0 0 0 0 0 0 0 0 0 9 11 24
0 608 1761 2030 1690 1434 1073 689 529 731 511 277 220 230 342 335 268 150 6 25 158 11 0 0 0 0 9 41 84 0 0 0 0 0 0 0 0 0 0 0 0 0 6
0 386 1828 1829 1390 1490 1109 827 554 272 383 452 144 183 199 172 86 63 41 29 29 0 2 2 0 0 6 29 0 0 1 0 0 0 0 0 0 0 0 0 0 0 0
0 1295 1710 1658 1375 1252 801 92 69 23 72 164 246 163 158 113 30 36 62 50 1 1 2 2 0 0 19 1 0 0 1 0 0 0 0 0 0 0 0 0 0 0 0
0 1045 1674 1674 1413 818 320 276 213 240 196 254 334 124 113 127 21 11 34 13 0 2 1 1 1 4 27 1 1 0 0 0 0 0 0 0 0 0 0 0 0 0 0
455 1417 1672 1640 1076 560 559 247 171 144 117 158 174 149 48 2 34 27 19 6 1 0 0 4 6 0 4 1 0 0 0 0 0 0 0 0 0 0 0 0 0 0 0
0 1561 1591 1496 938 598 446 239 208 184 134 182 191 171 82 36 22 14 38 27 1 0 6 17 16 1 5 0 0 0 0 0 0 0 0 0 0 0 0 0 0 0 0

GFSSE_con_sbcape_096.txt.gz
CAPE
663 1076 1454 1662 1734 1685 1503 1469 1469 1512 1846 2114 2225 2298 2143 1955 1931 1891 1945 2213 2357 2577 2541 2004 2108 1956 2167 2000 2256 2116 1885 1701 1684 1585 1678 1781 1534 1501 1653 1726 1592 1270 1533
694 1178 1425 1663 1842 1839 1693 1542 1583 1662 1882 2163 2256 2347 2284 2135 2085 2014 2117 2318 2369 2598 2327 2014 2044 2189 2045 2190 1794 1875 1781 1512 1471 1478 1555 1893 1790 1586 1572 1572 1520 1364 1424
1033 1291 1446 1569 1868 1952 1883 1786 1796 1937 1969 2144 2256 2298 2345 2347 2224 2136 2161 2229 2368 2541 2205 1891 1827 1858 1886 1663 1449 1602 1594 1482 1417 1498 1662 1007 1084 1476 1542 1585 1638 1495 1397
1148 1296 1399 1656 1665 1984 1915 1943 1972 2147 2145 2145 2208 2287 2348 2389 2343 2235 2141 2158 2517 2529 2315 1887 1801 1828 1947 1438 1403 1465 1515 1560 1495 1514 908 838 1116 1461 1321 1477 1470 1458 1468
1333 1371 1501 1786 1917 1993 1970 2001 2084 2090 2018 2088 2168 2296 2367 2415 2379 2323 2151 2339 2621 2591 2276 2010 1990 2046 1486 1190 1224 1350 1451 1410 1303 780 803 737 1039 1350 1348 1367 1458 1449 1471
1436 1508 1597 1718 1906 1987 2028 2078 2131 1993 1857 1912 2120 2333 2426 2485 2499 2354 2186 2359 2785 2608 2508 2332 1736 1729 1167 1103 1183 1242 1163 1002 618 540 572 841 820 1355 1413 1360 1465 1468 1382
1440 1511 1571 1684 1829 1961 2130 2166 2119 1930 1809 1889 2093 2261 2395 2481 2473 2243 2097 2328 2642 2522 2336 2202 1748 1327 1094 1113 1164 1008 744 626 389 355 535 603 712 1394 1263 1265 1380 1390 1354
1367 1443 1587 1717 1813 1940 2038 2050 2003 1853 1828 1887 2017 2142 2399 2387 2262 2153 2067 2234 2339 1972 1790 1638 1339 1144 1064 1115 1005 692 461 481 318 289 303 384 1009 1249 1326 1222 1304 1337 1349
1049 1349 1581 1768 1872 1797 1844 1838 1847 1789 1805 1885 1974 2049 2219 2224 2093 2005 2004 2142 1973 1541 1439 1375 1128 1029 1050 1005 596 403 358 323 247 291 314 329 1288 1503 1253 1176 1182 1275 1187
843 1175 1364 1417 1726 1651 1586 1649 1697 1753 1788 1837 1895 1961 2040 1982 1953 1906 1859 1870 1687 1230 1250 1198 917 982 913 637 221 192 223 238 141 172 238 442 973 1397 1180 924 983 1079 1013
654 644 926 1090 1258 1421 1538 1483 1641 1742 1807 1846 1880 1868 1853 1521 1631 1634 1531 1577 1346 976 1020 918 770 664 536 254 168 145 148 122 89 109 157 509 1053 1312 1169 1037 976 975 866
577 411 762 781 899 1038 1264 1356 1430 1672 1803 1774 1693 1552 1310 1231 1122 1103 1023 1311 1018 709 817 601 627 323 185 62 83 101 76 89 69 54 165 595 1215 1200 1101 916 940 895 792
1144 710 484 498 654 645 918 1177 1315 1222 1298 1259 1335 1263 1055 789 722 457 497 475 339 441 277 168 12 2 0 47 50 54 42 63 84 49 163 499 880 1186 1065 800 663 581 491
1555 1347 943 585 528 613 929 1063 1177 1187 978 1066 1033 786 1038 1025 824 168 312 34 4 1 2 0 1 0 0 21 57 37 12 40 41 19 84 297 719 1081 1013 622 623 580 437
674 1540 1352 843 709 764 781 889 1028 1182 1149 1087 792 714 1121 1034 903 408 222 49 0 0 0 0 0 1 4 86 114 11 9 11 19 13 98 132 299 817 1033 797 693 540 442
0 699 1651 1151 914 709 842 869 855 956 991 806 775 988 1034 857 648 372 295 91 22 0 0 0 0 3 74 93 14 7 7 17 18 11 78 70 170 262 636 689 525 370 367
0 0 1038 1613 1164 882 970 786 752 779 676 574 641 830 691 563 383 169 64 31 2 0 0 1 0 0 1 2 3 24 8 40 16 8 45 24 80 134 219 400 456 370 315
0 0 0 1617 1568 1218 1123 1166 963 763 737 656 562 678 564 383 156 87 32 25 0 0 2 0 0 2 13 0 7 17 15 24 5 1 3 5 0 0 101 215 208 241 255
0 0 0 1004 1775 1686 1484 1448 1254 980 891 655 595 627 434 239 102 69 39 18 2 2 5 3 3 0 8 3 3 23 6 27 6 10 1 0 0 0 0 14 46 37 63
0 0 0 266 1722 1995 1954 1664 1467 1202 1105 993 643 650 457 232 63 65 57 19 14 4 4 2 2 1 8 15 32 29 5 7 17 15 2 2 0 0 0 0 0 0 3
0 0 0 13 1553 2045 2215 1775 1524 1354 1318 1217 893 718 583 348 203 208 115 15 12 18 1 0 6 7 2 11 4 1 1 1 1 1 1 0 0 0 0 0 0 0 1
0 0 0 0 885 2007 2026 1955 1684 1645 1360 1302 1029 757 714 477 327 301 193 87 13 1 2 18 20 12 7 23 5 0 0 2 1 1 1 0 0 0 0 0 0 0 0
0 0 0 0 266 1790 1980 1940 813 990 684 609 701 541 376 424 277 254 182 100 76 42 35 30 19 2 16 24 0 0 1 0 3 1 1 0 0 0 0 0 0 0 0
0 0 0 0 0 1703 1947 1848 1499 1535 1253 1072 794 517 218 178 260 212 152 115 56 113 131 37 7 0 0 1 1 0 0 0 0 2 1 1 0 0 0 0 0 0 0
0 0 0 0 5 1489 1900 1673 1346 1387 1221 876 776 1 185 148 58 155 131 68 143 111 81 28 4 1 0 2 2 0 0 0 0 0 0 1 0 0 0 0 0 0 0
0 0 0 0 336 1563 1760 1459 1058 1166 388 737 711 423 307 108 110 161 185 142 87 53 45 10 4 3 2 4 1 0 0 0 0 0 0 0 0 0 0 0 0 0 0

GFSSE_con_sbcape_099.txt.gz
CAPE
701 1593 1536 1743 1778 1627 1535 1465 1547 1890 2016 2051 2040 1918 1932 2029 1933 1818 1863 2106 2234 2467 2389 2230 2229 1850 1807 1910 2220 2009 1814 1738 1777 1816 1743 1701 1571 1440 1571 1827 1625 1335 1575
905 1724 1516 1765 1853 1785 1727 1558 1529 1935 2288 2368 2211 2086 2071 2105 1992 1942 2096 2241 2375 2626 2641 2157 2054 2155 2288 2166 2277 1871 1721 1551 1422 1600 1766 1984 1846 1638 1664 1640 1420 1464 1659
1262 1744 1768 1750 1874 1875 1864 1790 1795 2055 2394 2502 2461 2270 2182 2210 2111 2076 2153 2241 2540 2788 2716 2094 1970 2231 2374 2033 1888 1773 1616 1458 1463 1577 1677 1416 1380 1720 1636 1595 1690 1723 1737
1488 1779 1853 1741 1877 1911 1860 1881 1979 2235 2378 2460 2523 2498 2336 2325 2250 2231 2245 2289 2626 2795 2584 2141 2059 2201 2024 1640 1624 1627 1517 1425 1376 1531 1435 1285 1157 1759 1579 1534 1519 1518 1561
1624 1779 1890 1708 1826 1939 1893 1935 2037 2198 2157 2250 2372 2602 2598 2532 2484 2438 2264 2359 2772 2800 2624 2231 2406 2329 1559 1354 1370 1438 1481 1406 1303 1319 1442 1307 1271 1518 1517 1642 1684 1578 1455
1675 1787 1671 1577 1769 1930 1940 2013 2076 2010 1916 2030 2212 2505 2689 2736 2651 2465 2268 2626 2907 2851 2714 2580 2521 2030 1279 1129 1206 1361 1374 1284 1057 1495 1340 1271 1213 1496 1465 1446 1541 1524 1324
1742 1869 2031 1642 1812 1946 2028 2066 2007 1848 1829 1941 2122 2284 2527 2656 2618 2344 2285 2474 2806 2599 2511 2524 2181 1585 1218 1139 1215 1222 1109 907 1337 1510 1403 1283 1207 1612 1425 1469 1510 1500 1438
1754 1921 2107 1761 1815 1915 1989 1986 1886 1741 1753 1899 2063 2154 2372 2432 2382 2251 2259 2343 2579 2381 2134 2026 1640 1447 1251 1239 1119 889 705 774 1161 1413 1487 1314 1198 1385 1482 1310 1416 1376 1342
1645 1906 2113 2295 2157 1741 1844 1821 1717 1655 1704 1851 1977 2119 2199 2135 2134 2165 2204 2119 2323 2111 1853 1718 1465 1269 1278 1243 934 585 581 617 1110 1462 1487 1415 1303 1409 1362 1285 1289 1251 1243
1357 1549 1710 1876 2018 2231 2381 1634 1613 1572 1619 1708 1856 1993 2101 1995 1935 1991 2035 2043 2151 1698 1574 1461 1275 1156 1232 1108 655 435 451 408 1070 1248 1525 1450 1034 1116 1280 1248 1160 1117 1144
1172 899 1275 1540 1687 1866 1957 2149 1557 1537 1595 1673 1843 1831 1934 2249 2274 2179 2067 1992 1647 1405 1333 1234 1115 1038 994 611 461 356 319 869 552 682 1362 831 1066 1175 1230 1384 1097 969 1006
1303 1024 1058 1151 1335 1561 1452 1683 2301 2322 2254 2226 2254 2395 2400 2391 2322 2162 1866 1563 1335 1088 1036 846 832 818 578 1341 1090 398 1207 783 511 353 1230 402 962 1068 1133 1055 979 950 864
1178 1255 1001 801 1005 1127 1194 1234 1752 1802 1827 1991 1914 1916 2388 2472 2260 2203 2352 2112 2194 1048 1674 988 1121 1271 1210 1239 1087 1041 598 461 283 340 531 245 561 1136 1090 931 845 842 730
1679 1353 1320 1132 687 799 894 1114 1353 1485 1667 1723 1482 1707 1659 1913 2066 1955 1801 1892 2067 1612 1360 1614 1312 1308 1009 978 1038 789 339 274 167 217 299 138 230 1114 1059 904 899 690 588
0 653 1748 1333 1113 933 809 1030 1175 1341 1390 1393 1497 1452 1870 1692 1543 1414 1433 1237 1599 1298 1061 1100 1009 1010 892 851 930 659 327 238 60 116 205 138 145 631 1141 979 809 693 569
0 0 781 1701 1487 1290 1418 1156 1072 1236 1461 1343 1363 1386 1763 1627 1563 1300 898 923 732 744 624 539 321 623 693 635 457 286 291 213 12 40 106 199 58 350 752 1262 889 798 596
0 0 0 697 1947 1614 1512 1596 1434 1315 1211 1107 1172 1454 1516 1559 1508 1197 921 793 636 420 286 36 15 31 334 616 584 202 258 31 3 15 67 79 80 69 312 363 503 649 496
0 0 0 0 984 1970 1884 1544 1721 1476 1247 1103 980 1225 1502 1342 1190 958 866 705 720 319 61 4 5 6 107 106 75 85 425 25 5 23 16 10 708 465 110 174 228 390 375
0 0 0 0 0 1413 1922 2083 1893 1487 1473 1184 1217 1117 1362 1195 840 754 640 560 678 341 142 23 10 13 68 116 127 125 130 65 35 63 10 20 356 430 539 67 105 156 183
0 0 0 0 0 257 1838 1998 2023 1745 1763 1754 1430 1123 1143 1195 645 545 404 428 572 372 160 61 4 12 102 130 142 141 127 93 66 62 20 3 28 327 342 282 295 171 52
0 0 0 0 0 0 1807 1843 1485 1379 1547 1635 1601 1260 1212 1019 592 372 249 259 330 334 175 106 11 13 30 86 38 10 7 21 36 61 35 35 1 0 50 225 240 196 79
0 0 0 0 0 0 527 1860 1870 1472 1592 1826 1604 1273 1218 930 572 301 261 234 246 207 183 152 60 8 30 75 24 2 6 4 3 46 45 20 1 0 0 20 54 65 74
0 0 0 0 0 0 6 1657 2001 1804 1811 1484 1559 1316 1250 1036 592 426 393 354 248 239 159 169 138 28 20 79 8 8 3 2 3 4 8 32 3 0 0 0 1 0 2
0 0 0 1 2 0 1 1186 1846 1508 1356 1706 1810 1450 1245 741 446 318 377 433 263 219 184 244 165 77 73 62 42 93 2 1 3 6 4 2 1 2 0 0 1 0 1
0 0 0 0 0 1 21 872 2113 1716 1990 2033 1890 1312 1009 976 448 66 0 134 239 250 268 302 110 91 67 71 11 0 0 0 0 1 9 8 2 1 0 0 0 3 0
0 0 1 2 2 0 55 953 1918 1802 1840 1843 1538 1324 1410 840 109 20 57 217 220 200 316 393 208 111 89 78 12 2 0 0 0 9 5 9 3 3 1 0 0 0 9

GFSSE_con_sbcape_102.txt.gz
CAPE
1199 2092 1564 1757 1726 1731 1699 1789 1950 1962 1919 1901 1935 1920 2009 2111 1996 1957 2091 2319 2331 2579 2654 2502 2568 2384 1969 1850 1986 2094 1998 1846 1890 1926 1918 1876 1555 1567 1605 1793 1624 1332 1657
1428 2405 1550 1752 1755 1804 1837 1775 1960 2084 2056 2154 2087 2070 2129 2182 2066 2044 2200 2428 2476 2725 2535 2538 2436 2213 2081 2407 2335 2012 1849 1690 1758 1795 1942 1980 1706 1666 1650 1692 1621 1435 1685
1545 2369 2008 1712 1769 1872 1950 1928 2171 2414 2487 2476 2296 2247 2319 2316 2189 2137 2268 2375 2639 2874 2837 2418 2043 2091 2662 2532 2061 1797 1836 1617 1620 1779 1911 1487 1487 1813 1639 1669 1700 1749 1672
1577 2254 2305 1698 1746 1870 1896 1939 2200 2652 2722 2631 2488 2398 2487 2432 2308 2341 2344 2388 2681 3063 2952 2295 2220 2741 2607 2194 1859 1721 1678 1560 1568 1701 1538 1183 1339 1748 1653 1630 1544 1610 1590
1761 2030 2090 1705 1707 1841 1864 1919 2106 2472 2568 2636 2613 2567 2585 2587 2510 2513 2386 2560 3020 3177 3068 2450 2627 2736 1960 1722 1682 1607 1571 1463 1519 1415 1309 1153 1292 1649 1652 1571 1606 1644 1496
1812 1910 1577 1596 1712 1816 1877 1921 2046 2109 2245 2420 2589 2698 2719 2703 2671 2618 2423 2746 3208 3136 3037 2942 2889 2110 1544 1453 1513 1517 1426 1391 1346 1497 1219 1237 1307 1654 1615 1736 1503 1409 1385
2075 2074 2307 1373 1685 1819 1938 1969 1976 1875 1981 2233 2501 2635 2700 2786 2746 2496 2393 2745 2900 3052 2975 2801 2581 1829 1400 1361 1477 1440 1380 1280 1482 1372 1096 1445 1371 1983 1629 1530 1563 1312 1314
2446 2363 2588 1678 1660 1771 1873 1903 1837 1732 1788 2036 2319 2503 2706 2700 2552 2339 2410 2464 2781 2789 2523 2401 2103 1601 1388 1367 1384 1295 1142 1259 1344 1196 994 1153 1596 1837 1664 1537 1280 1306 1499
2552 2530 2625 2662 2309 1609 1751 1807 1714 1631 1690 1805 2064 2343 2557 2464 2320 2261 2364 2426 2395 2361 2199 2171 1701 1440 1391 1360 1222 1031 970 1161 1442 1209 1147 1179 1499 1704 1551 1417 1324 1467 1468
2439 2599 2651 2652 2529 2709 2526 1570 1546 1572 1588 1669 1838 2032 2154 2189 2196 2154 2227 2266 2309 2136 2047 1863 1381 1363 1328 1291 1028 777 793 951 1435 1436 1427 1163 1298 1426 1377 1363 1338 1370 1329
2216 2389 2301 2216 2200 2305 2704 2412 1530 1438 1475 1569 1765 1817 1953 2429 2695 2607 2332 2147 2221 1901 1865 1506 1286 1305 1232 1154 821 553 464 1607 1723 1646 1559 1032 1359 1287 1378 1337 1282 1300 1266
2172 2226 2349 2325 2165 2090 1888 2242 2598 2724 2453 2366 2286 2395 2431 2404 2574 2174 2114 1963 1878 1539 1430 1378 1165 959 1033 1784 1483 593 1513 1251 1732 1262 1062 881 1250 1252 1048 1025 1199 1197 1030
1293 2040 2106 2412 2527 2470 2052 2121 2166 2545 2635 2763 2744 2753 2646 2634 2728 2548 2598 2564 2596 1456 2090 1451 1583 1690 1445 1542 1678 1305 1223 1240 1264 988 841 327 563 1138 819 865 867 749 888
0 124 1731 2095 2376 2416 2316 2040 1998 2159 2258 2224 2396 2676 2956 2791 2685 2643 2398 2421 2519 2314 2086 2030 1740 1690 1694 1491 1444 1398 1177 1232 902 614 472 91 67 758 853 837 1087 1012 933
0 0 9 1599 2170 2255 2315 2039 2104 2026 2237 2303 2258 2107 2329 2348 2618 2488 2243 2399 2466 2158 2270 2050 1936 1781 1786 1524 1397 1235 1076 1141 801 565 272 57 58 335 663 837 1144 964 708
0 0 0 15 1373 2010 2090 2071 1999 1931 2061 2018 1859 2020 2191 2245 2553 2219 2319 2238 2175 2158 2218 2058 1920 1879 1766 1498 1325 1141 1111 918 814 529 216 156 36 115 429 1057 1257 992 772
0 0 0 0 5 1324 1949 2020 1978 1800 1892 1948 1789 1996 2044 2300 2377 2268 1862 1834 2090 2053 2091 1925 1851 1722 1451 1210 1207 1055 962 763 612 570 201 113 127 7 181 333 691 942 835
0 0 0 0 0 0 1017 1595 2086 2093 2042 1908 1862 1829 1944 2184 2156 2215 1720 1827 1581 1706 1384 1238 1002 849 866 1198 1109 1134 887 771 511 499 41 9 77 148 17 28 214 354 520
0 0 0 0 0 0 1 959 1584 2242 2401 2204 1956 1886 2115 2214 2117 2157 1808 1647 1569 1419 1305 958 817 691 796 1110 943 743 655 527 443 178 7 13 24 68 88 81 116 124 159
0 0 0 0 0 0 0 60 1119 1461 2335 2335 2169 1950 2040 2386 2164 2036 1879 1605 1429 1219 1421 1156 825 512 573 576 309 170 298 485 317 111 30 46 53 37 117 151 57 41 84
0 0 0 0 0 0 0 0 567 1306 1934 1952 2259 2235 2087 2109 2123 1880 1729 1349 1183 1157 1143 919 608 361 454 570 319 123 71 208 126 75 42 49 26 22 37 551 427 292 157
0 0 0 0 0 0 0 0 18 1027 1303 1596 1988 2631 2154 2087 2169 1831 1490 1137 1109 1124 983 1027 758 205 384 473 139 47 26 7 135 91 82 68 88 4 37 147 249 190 246
0 0 0 2 2 1 4 1 0 726 1507 1762 1929 2402 2342 2214 1961 1702 1311 947 976 1002 1129 1141 775 424 256 244 198 205 24 148 9 32 72 106 34 11 4 1 1 125 119
0 0 0 0 0 0 5 8 6 159 1481 1703 1817 2146 2144 1834 1620 1438 1070 809 720 897 955 1081 815 701 498 246 211 414 358 53 125 10 3 125 179 49 34 9 2 9 49
0 0 0 0 1 1 1 4 20 156 1833 1742 1921 1988 1811 1664 1432 1349 919 855 198 792 859 1040 1074 1132 908 382 240 237 277 204 312 100 18 6 30 25 77 22 12 0 0
0 1 1 0 1 2 4 5 8 481 1061 1979 1912 1850 1678 1482 1363 1281 1152 1180 809 661 705 589 800 1036 862 619 340 231 348 203 243 92 102 30 10 7 34 9 6 6 0

GFSSE_con_sbcape_105.txt.gz
CAPE
982 2026 1621 1792 1859 1974 2014 2157 2194 1892 1968 2032 1990 2056 2135 2174 2217 2242 2292 2373 2361 2608 2751 2476 2530 2285 2077 1993 1896 1828 1812 1768 1819 2014 1932 1753 1489 1635 1641 1876 1681 1234 1650
1622 2302 1487 1724 1871 2024 2077 2157 2207 2134 2123 2166 2129 2202 2238 2267 2224 2293 2403 2529 2590 2789 2826 2351 2322 2220 2138 2423 2206 2106 1838 1740 1865 1935 1966 1932 1632 1674 1624 1824 1381 1381 1731
1797 2783 1895 1633 1863 2065 2146 2274 2342 2368 2286 2292 2314 2297 2395 2424 2314 2344 2493 2538 2712 2881 2807 2489 2465 2335 2471 2639 2229 1910 1836 1796 1809 1851 1991 1442 1449 1781 1551 1543 1613 1690 1824
1854 2247 2224 1642 1790 2022 2051 2251 2428 2557 2497 2481 2404 2490 2544 2519 2422 2429 2515 2529 2869 2968 3027 2762 2483 2576 2891 2521 2012 1813 1786 1713 1689 1800 1525 1491 1310 1757 1731 1568 1569 1697 1734
1470 2079 2575 1656 1649 1925 1988 2180 2475 2633 2629 2541 2483 2602 2685 2651 2582 2597 2525 2585 2851 3151 3066 2611 2456 2914 2475 2142 1774 1702 1685 1574 1581 1539 1454 996 1382 1683 1807 1722 1619 1689 1459
1803 2088 1538 1571 1564 1783 1906 2087 2375 2538 2533 2515 2504 2696 2805 2753 2709 2654 2496 2693 3029 3450 3259 2911 3011 2592 1933 1748 1686 1619 1520 1464 1379 1438 1485 1311 1421 1909 1805 1922 1804 1479 1399
2399 2143 2515 1549 1592 1733 1933 2033 2121 2237 2361 2490 2530 2598 2733 2754 2715 2577 2432 2770 3101 3235 3171 2739 2700 2005 1595 1576 1621 1536 1380 1410 1570 1249 1119 1211 1628 1943 1805 1605 1627 1468 1170
2860 2446 2951 1661 1630 1687 1802 1808 1854 1949 2155 2387 2533 2572 2732 2690 2599 2483 2437 2758 2710 2802 2568 2689 2434 1812 1533 1487 1497 1395 1284 1292 1383 1466 1036 990 1705 1840 1822 1739 1416 1393 1433
2799 2990 2865 2979 2082 1567 1642 1643 1610 1625 1866 2135 2382 2521 2685 2628 2500 2357 2444 2580 2715 2596 2434 2428 2127 1738 1486 1390 1377 1233 1182 1288 1426 1163 971 1273 1692 1915 1844 1667 1479 1313 1443
2523 2751 3113 3053 2692 2577 2334 1505 1477 1490 1556 1758 2057 2309 2469 2444 2328 2220 2297 2425 2539 2417 2340 2315 2072 1557 1380 1262 1182 1005 1047 1085 1520 1395 877 841 1575 1765 1687 1636 1506 1348 1216
2293 2618 3044 2980 2966 2904 2804 2225 1498 1439 1446 1509 1712 1861 2061 2819 2913 2733 2377 2231 2307 2230 2075 1979 1516 1436 1283 1202 1030 807 667 1457 1215 1297 1107 1055 1190 1748 1647 1696 1478 1042 1287
1811 2395 2726 2787 2702 2793 2725 2960 2505 2278 2056 2009 1896 2134 2340 2311 2593 2433 2380 1973 2138 1971 1858 1582 1402 1364 1195 1733 1619 709 1408 1285 1724 1391 1294 789 939 1613 1709 1214 905 1141 872
22 2272 2428 2851 2740 2591 2594 2670 2790 2918 2674 2684 2613 2662 2477 2573 2805 2420 2495 2527 2763 1818 2413 1965 1972 2049 1782 1552 1888 1658 1401 1613 1498 1431 938 636 836 1653 1305 890 1081 1257 820
0 0 1843 2288 2766 3085 2979 2724 2813 2831 2886 2739 2703 3310 3245 2935 2971 2820 2166 2637 2856 2557 2415 2523 2345 2170 1968 1902 1830 1784 1790 1562 1327 1202 327 62 147 991 1138 765 589 904 732
0 0 0 566 1871 2580 2797 2787 2718 2661 2629 2695 2732 2928 2669 2540 2927 2407 2379 2201 2545 2062 2613 2401 2123 2147 2117 1856 1855 1651 1585 1599 1456 738 831 0 27 125 843 735 780 707 763
0 0 0 0 27 1237 2128 2623 2575 2556 2476 2505 2437 2646 2707 2807 2871 2347 2351 2205 1965 2256 2840 2380 2332 2205 2215 2079 1954 1690 1657 1586 1327 1033 733 301 2 4 435 813 860 700 976
0 0 0 0 0 0 966 1790 2281 2304 2214 1987 2106 2523 2350 2488 3029 3008 2437 2531 2052 2223 2718 2600 2657 2404 2137 1803 1782 1873 1486 1631 1320 1041 1026 549 91 16 136 237 343 189 1084
0 0 0 0 0 0 0 198 1415 1590 2374 2107 2102 2435 2347 2410 2955 3130 2459 2259 2285 2189 2436 2466 2397 2392 2035 1965 1599 1454 1653 1457 1199 1035 965 720 180 208 68 154 0 86 731
0 0 0 0 0 0 0 0 212 1729 2096 2348 2402 2531 2644 2464 2432 2934 2619 2237 2411 2140 2266 2068 2126 2075 2015 1752 1523 1395 1411 1247 1196 830 619 442 152 152 315 52 40 39 11
0 0 0 0 0 0 0 0 0 113 1779 2181 2167 2759 2924 2867 2838 2932 2324 2359 2242 1806 2132 1653 1517 1611 1514 1623 1262 930 1035 1077 923 583 460 215 90 135 188 173 39 29 29
0 0 0 0 0 0 0 0 0 0 507 1539 1905 2363 2997 2824 2983 2687 2383 2443 2197 1651 2033 1542 1454 1495 1283 1315 1059 591 748 723 834 536 297 145 17 3 118 88 28 56 94
0 0 0 0 0 0 0 0 0 3 18 663 1683 2160 2644 2607 2678 2183 2308 2283 2157 1791 2059 1542 1432 1262 1190 975 670 105 16 3 141 389 206 53 30 8 38 86 93 95 107
0 0 0 0 0 0 2 1 0 0 17 218 1840 1971 2256 2785 2723 2176 2345 2381 2012 1849 1734 1505 1407 1047 916 810 521 353 57 144 6 127 229 139 51 10 9 22 32 145 222
0 0 0 0 0 0 3 5 7 6 0 14 1043 1675 2158 2448 2248 2326 2493 2006 1780 1810 1652 1509 1380 1224 1240 691 709 651 763 443 218 11 20 166 106 51 21 35 41 8 15
0 0 1 2 2 4 6 6 6 9 12 125 535 1823 2330 2565 2300 2347 2437 1943 1610 1504 1491 1311 1237 1359 1450 985 641 441 919 658 394 250 6 17 59 95 64 48 26 12 2
0 4 8 6 3 6 3 4 6 9 11 36 617 1616 2261 2636 2138 2064 1842 1717 1588 1802 1397 1277 1427 1672 1675 1362 1139 879 773 443 246 337 322 100 35 66 58 40 45 21 6

GFSSE_con_sbcape_111.txt.gz
CAPE
1422 1550 1784 1982 2011 1918 1798 1725 1698 1731 1896 1947 1899 1936 2075 2050 1962 2004 2124 2356 2529 2693 2671 2336 2551 2394 2105 1857 1619 1546 1648 1589 1701 1848 1746 1960 1727 1794 1879 1906 1637 1562 1713
1469 1562 1672 1911 2050 2100 1909 1712 1730 1858 2064 2087 2027 2075 2146 2069 2053 2106 2136 2334 2568 2826 2538 2304 2183 2065 2057 2098 1444 1321 1486 1516 1629 1732 1836 1777 1925 1861 1754 1860 1582 1743 1839
1523 1655 1626 1778 2028 2201 2180 1896 1866 2080 2225 2203 2200 2201 2243 2198 2208 2196 2121 2300 2631 2810 2514 2348 2228 2156 2303 2180 1639 1326 1339 1541 1596 1665 1822 1357 1733 2078 1616 1842 1842 1857 1913
1643 1513 1593 1641 1890 2073 2163 2120 1956 2268 2361 2289 2313 2320 2332 2273 2297 2298 2184 2216 2637 2990 2851 2334 2234 2404 2408 2126 1747 1465 1427 1512 1526 1570 1417 1149 1337 1807 1686 1825 1667 1850 1846
2395 1620 1649 1570 1757 1905 2022 2150 2135 2176 2223 2227 2294 2452 2417 2356 2430 2434 2218 2293 2668 3202 3091 2414 2610 2721 2270 2080 1780 1461 1437 1446 1465 1420 701 718 1133 1773 1771 1913 1907 1813 1793
2085 1902 1423 1516 1686 1788 1906 2053 2172 2192 2093 2091 2213 2448 2495 2446 2483 2435 2183 2392 2775 3019 3080 3326 2814 2343 2180 2051 1715 1385 1380 1358 1305 1171 499 706 101 1190 1575 1523 1654 1657 1582
2290 1865 1352 1404 1629 1748 1912 2046 2121 2162 2086 2070 2197 2344 2427 2439 2410 2264 2132 2350 2582 2905 2995 2829 2452 2363 2044 1682 1618 1367 1342 1286 1179 625 459 29 0 0 874 1573 1678 1520 1680
2543 2061 1438 1440 1587 1666 1760 1936 2108 2146 2082 2020 2132 2287 2411 2345 2233 2116 2044 2208 2392 2694 2677 2411 2384 2154 1813 1482 1425 1417 1269 1235 1188 595 388 319 20 250 886 1646 1614 1556 1651
2511 2035 1603 1612 1591 1547 1616 1704 1975 2067 2079 2020 2062 2204 2372 2280 2168 2072 2026 2122 2295 2415 2425 2307 2274 1944 1411 1242 1312 1363 1257 1179 995 407 690 353 505 692 1513 1934 1641 1463 1205
2347 2348 1823 1640 1447 1320 1279 1464 1653 1902 2003 2042 2044 2126 2262 2200 2105 2077 1975 2028 2237 2290 2348 2165 2057 1886 1347 1115 1109 1187 1161 1143 923 737 597 686 796 1096 1799 1497 1622 1194 1149
2237 2160 2488 2125 1737 1420 1291 1241 1357 1595 1802 1977 2041 2050 1841 1950 1979 2000 1884 1881 2095 2138 2176 2098 1995 1811 1411 1061 959 952 873 792 954 813 339 689 889 411 1871 1545 1620 1539 1412
1509 2027 1919 2370 2108 1876 1982 1355 1079 1251 1264 1426 1716 1703 1915 1995 1958 2145 1891 1748 1840 1937 1934 1860 1803 1566 1227 864 735 758 598 813 961 846 542 632 1060 1513 2301 1800 1517 1406 1309
1170 2325 2125 2246 2220 2328 2250 1363 1215 1172 1084 1133 1334 1535 1815 2123 2107 1985 1863 1660 1460 1688 1599 1441 1384 1119 1002 936 790 635 583 756 781 757 575 748 1070 1495 1498 1518 1530 1431 1330
0 1524 2402 2178 1873 1755 1757 2216 1734 1464 1186 1239 1227 1389 1530 1640 1687 2029 1807 1643 1524 1596 1536 1404 1227 1123 1149 1126 1040 887 793 797 809 661 399 350 687 1428 1450 1793 1797 1276 949
0 0 0 1098 1360 1638 1751 1877 2303 2032 1629 1555 1430 1477 1716 1545 1685 1588 1781 1838 1770 1667 1534 1459 1312 1341 1277 1248 1179 1027 1060 932 867 566 225 321 529 1027 1590 1384 1278 1393 987
0 0 0 0 0 0 23 484 1363 1523 1582 1800 1772 1647 1763 1849 1655 1713 1633 1527 1855 1849 1658 1567 1349 1407 1404 1305 1128 1028 1005 917 859 371 111 27 136 170 443 1154 1566 1305 1009
0 0 0 0 0 0 0 0 0 80 1213 1141 1464 1584 1951 1801 1683 1738 1519 1341 1755 1791 1623 1516 1148 1199 1312 1148 1078 958 886 856 806 517 51 0 0 0 0 396 1176 1245 1054
0 0 0 0 0 0 0 0 0 0 0 44 1039 1415 1413 1733 1792 1812 1622 1306 900 1620 1193 1486 1323 1229 1178 1066 959 893 887 839 840 643 173 14 0 0 0 0 601 723 672
0 0 0 0 0 0 0 0 0 0 0 0 0 640 1340 1633 1562 1617 1533 1631 1166 1102 1194 1295 1223 1316 1138 997 846 867 877 859 801 583 345 132 35 21 0 4 0 155 163
0 0 0 0 0 0 0 0 0 0 0 0 0 0 880 1559 1738 1342 1278 1457 1349 1234 1006 1139 1426 1129 1307 1125 1087 834 649 816 673 476 381 278 74 9 0 0 0 0 22
0 0 0 0 0 0 0 0 0 0 0 0 0 0 0 283 1421 1564 1459 1406 1541 1529 1313 1078 1194 1268 891 871 608 376 137 408 516 474 461 260 99 4 0 0 0 0 0
0 0 0 0 0 0 0 0 0 0 0 0 0 0 0 0 0 1247 1589 1535 1656 1467 1223 991 1084 895 704 817 598 358 415 99 109 502 350 134 12 0 0 0 1 1 2
0 0 0 0 0 0 0 0 0 0 0 0 0 0 0 0 0 0 1121 1495 1618 1374 1264 988 629 633 366 633 361 211 160 150 13 16 325 242 42 0 0 0 1 1 6
0 0 0 0 0 0 0 0 0 0 0 0 0 0 0 0 0 0 15 910 1387 1269 1025 532 0 0 0 241 390 322 38 6 24 43 11 111 35 0 0 0 1 0 6
0 0 0 0 0 0 0 0 0 0 0 0 0 0 0 0 0 0 0 132 733 1066 832 22 0 37 233 421 14 463 443 105 14 1 3 55 45 11 0 0 0 0 0
0 0 0 0 0 0 0 0 0 0 0 1 1 2 2 0 0 0 0 4 611 699 768 432 168 328 459 462 473 534 466 404 413 183 6 0 65 19 1 1 0 0 1

GFSSE_con_sbcape_114.txt.gz
CAPE
1413 1578 1808 1830 1872 1832 1746 1644 1581 1672 1727 1806 1947 1978 1960 2088 2137 2129 2175 2288 2563 2849 2923 2687 2714 2339 2155 1770 1656 1650 1417 1494 1562 1680 1837 2035 1836 1858 1918 1926 1687 1609 1980
1410 1618 1790 1841 1904 1968 1890 1736 1679 1837 1952 1916 1986 1981 1938 1976 2085 2215 2267 2358 2576 2798 2577 2489 2394 2276 2273 2035 1494 1547 1494 1493 1513 1532 1670 1904 1938 1835 1828 1890 1672 1821 2161
1467 1610 1778 1897 1951 2007 1970 1883 1913 2077 2131 2061 2066 2009 1978 1992 2069 2129 2239 2434 2713 2812 2428 2264 2219 2240 2375 2120 1372 1317 1503 1494 1477 1611 1529 1228 1655 2165 1838 1903 1886 1952 2051
1520 1538 1692 1871 2018 1989 1822 1789 1973 2258 2245 2185 2183 2162 2061 2077 2089 2060 2098 2253 2647 2834 2505 2292 2177 2288 2546 2013 1509 1238 1340 1430 1387 1506 1094 1257 1497 2099 1895 1778 1971 2011 2052
1661 1510 1559 1791 1986 2041 1924 1779 1890 2175 2141 2136 2173 2304 2222 2229 2273 2102 1932 2186 2745 2950 2622 2202 2315 2760 2218 1906 1534 1250 1253 1303 1328 1353 654 795 1261 1776 2009 1981 1996 2028 1629
1910 1498 1497 1542 1776 1960 2036 1985 1866 1991 1964 1990 2106 2321 2348 2386 2441 2250 1944 2234 2706 3122 3100 2744 2789 2534 2078 1864 1639 1276 1198 1188 1251 762 593 729 1196 2122 1852 1886 1723 1743 1606
2037 1520 1325 1437 1629 1800 1970 2048 2040 1902 1856 1916 2082 2222 2283 2379 2409 2152 1941 2188 2592 2943 2990 3173 2639 2177 2070 1953 1619 1305 1153 1109 1032 436 280 0 0 1474 1654 1918 1838 1735 1555
1915 1560 1305 1389 1568 1680 1807 1880 1979 1972 1876 1886 2023 2172 2264 2211 2135 2011 1926 2038 2180 2422 2452 2503 2231 2182 2058 1709 1590 1321 1110 1074 991 504 453 0 0 650 1499 2059 1792 1525 1614
1910 1508 1382 1421 1510 1505 1591 1726 1877 1952 1940 1904 1947 2090 2209 2064 1926 1870 1877 1934 2013 2178 2368 2296 2116 2069 1912 1644 1389 1375 1159 1030 528 478 501 73 22 486 1146 2132 1817 1559 1758
1966 1536 1345 1322 1360 1316 1297 1475 1728 1881 1900 1863 1849 1949 2050 1953 1851 1808 1747 1833 1956 2030 2258 2190 2009 2017 1640 1276 1206 1194 1132 934 467 440 600 337 585 958 1339 2237 1919 1611 1719
2191 1765 1367 1339 1227 1096 1110 1212 1454 1791 1855 1824 1801 1815 1759 1861 1807 1790 1654 1646 1810 1857 1947 2031 1941 1815 1587 1181 1056 1036 973 667 613 493 315 551 834 1143 1778 1791 1837 1510 1480
1912 2048 1870 1548 1347 1107 1361 1184 1122 1417 1566 1683 1841 1791 1790 1753 1732 1909 1755 1569 1618 1632 1641 1758 1786 1616 1316 967 792 866 602 605 632 527 299 418 1096 1655 1082 1887 1729 1476 1267
6 1670 2017 1994 1589 1393 1641 993 894 951 974 1176 1501 1456 1611 1434 1736 1755 1641 1449 1248 1362 1359 1410 1384 1224 1070 848 616 555 512 534 518 531 590 459 1116 1476 1205 2261 1848 1545 986
90 1691 1795 1683 1791 1710 1605 1233 941 911 783 904 1009 1234 1372 1502 1690 1847 1743 1469 1232 1293 1359 1375 1361 1197 996 866 742 622 550 520 474 449 347 342 690 1615 2056 1878 1821 1689 1255
0 322 871 784 389 765 1634 1673 1683 1275 985 903 870 1051 1334 1522 1563 1759 1811 1519 1367 1290 1344 1268 1201 1090 1040 986 985 854 730 623 607 459 173 324 330 1007 1500 1755 1834 1756 1621
0 0 0 0 0 0 0 0 90 739 1023 979 1076 980 1224 1246 1359 1414 1693 1606 1491 1407 1300 1272 1147 1126 1099 1070 1012 839 910 775 662 525 192 10 71 243 988 1393 1752 1682 1832
0 0 0 0 0 0 0 0 0 0 0 149 984 996 1133 1363 1305 1354 1284 1357 1680 1567 1382 1296 1134 1023 1063 985 1024 856 758 734 604 397 135 4 4 61 336 664 1199 1497 1689
0 0 0 0 0 0 0 0 0 0 0 0 0 4 668 1395 1488 1118 1265 1192 1092 1573 1471 1414 1276 1032 1089 1038 985 708 563 544 512 338 56 3 0 0 0 0 265 934 1301
0 0 0 0 0 0 0 0 0 0 0 0 0 0 0 207 904 1150 1128 898 698 893 1184 1408 1345 1100 995 910 924 507 505 509 469 366 152 24 0 0 0 0 13 548 802
0 0 0 0 0 0 0 0 0 0 0 0 0 0 0 0 0 463 942 1046 725 484 699 899 1297 1075 1005 966 882 611 462 439 386 410 259 117 9 0 9 0 0 14 219
0 0 0 0 0 0 0 0 0 0 0 0 0 0 0 0 0 0 134 918 748 842 883 650 723 656 647 723 382 175 90 323 405 379 228 162 90 28 73 2 0 0 0
0 0 0 0 0 0 0 0 0 0 0 0 0 0 0 0 0 0 0 0 854 996 764 438 730 712 774 492 820 672 333 258 174 244 267 235 187 95 24 1 0 0 0
0 0 0 0 0 0 0 0 0 0 0 0 0 0 0 0 0 0 0 0 0 387 1143 1000 416 613 562 246 10 70 30 250 86 11 197 163 139 56 10 0 0 0 0
0 0 0 0 0 0 0 0 0 0 0 0 0 0 0 0 0 0 0 0 0 0 222 948 442 432 84 0 1 1 3 5 5 11 1 200 91 57 1 0 0 0 0
0 0 0 0 0 0 0 0 0 0 0 0 0 0 0 0 0 0 0 0 0 0 0 695 334 0 0 0 0 0 0 14 0 0 2 64 107 58 10 3 0 0 0
0 0 0 0 0 0 0 0 1 0 0 1 1 2 2 3 0 0 1 1 2 2 0 253 341 25 0 0 0 0 53 196 5 0 0 7 16 34 26 1 0 0 0

GFSSE_con_sbcape_117.txt.gz
CAPE
1236 1552 1624 1802 1876 1819 1693 1566 1510 1604 1922 2052 2079 2239 2350 2381 2310 2254 2345 2490 2527 2631 2847 2473 2473 2195 1861 1321 1389 1483 1517 1459 1446 1640 1985 2170 1897 1920 1776 1883 1732 1275 1614
1229 1674 1662 1792 1924 1961 1826 1666 1680 1760 2008 2156 2096 2161 2243 2227 2231 2286 2448 2595 2766 2945 2585 2445 2309 2157 1976 1431 1514 1400 1405 1319 1338 1474 1923 2106 2091 1892 1674 1801 1724 1595 1603
1385 1741 1738 1786 1966 2037 1981 1859 1951 2029 2090 2205 2106 2040 2181 2249 2214 2228 2358 2584 2866 3052 2718 2380 2291 2233 2194 1608 1316 1414 1430 1372 1386 1453 1755 1381 1611 1772 1770 1823 1972 2142 1828
1503 1670 1818 1808 1957 1982 1909 1899 2028 2245 2194 2199 2135 2054 2116 2249 2321 2292 2288 2447 2736 2931 2710 2499 2417 2383 2392 1591 1191 1289 1390 1398 1387 1351 1029 1318 1578 1876 1859 1782 1887 1938 2040
1514 1591 1741 1839 1912 1900 1829 1848 1974 2166 2120 2107 2115 2167 2152 2215 2342 2377 2272 2468 2855 2989 2596 2227 2264 2684 2019 1544 1167 1101 1273 1304 1289 1124 699 1028 1295 1499 1702 1869 2002 2236 1982
1454 1464 1665 1760 1833 1845 1775 1771 1918 1950 1876 1904 2045 2194 2252 2297 2301 2250 2103 2513 2902 2946 2755 2616 2782 2308 1790 1494 1179 1091 1072 1157 1179 895 533 684 1091 1571 1768 1742 1791 2000 1777
1530 1367 1363 1631 1792 1942 1964 1838 1825 1858 1765 1814 1991 2129 2201 2336 2314 1983 1896 2318 2784 2905 2878 2731 2553 2096 1759 1495 1319 1059 969 1012 807 445 358 498 899 1863 1919 1778 1807 1795 1725
1686 1331 1276 1409 1639 1864 1995 1931 1747 1768 1739 1770 1887 2030 2163 2177 2149 1983 1866 2020 2386 2755 2737 2589 2373 2035 1816 1687 1404 1086 924 931 813 314 175 0 2 1300 2097 1836 1506 1649 1733
1638 1372 1222 1412 1537 1627 1752 1810 1820 1738 1708 1721 1800 1938 2039 1942 1903 1898 1892 1924 2038 2416 2299 2526 2127 1890 1783 1572 1381 1089 879 925 672 325 374 0 2 601 1820 1916 1661 1830 1751
1606 1333 1176 1220 1384 1309 1278 1440 1557 1700 1700 1677 1713 1848 1936 1834 1726 1751 1758 1810 1901 2018 2118 2235 2012 1858 1812 1587 1233 1106 958 862 524 264 218 129 224 356 922 2087 1923 1884 1904
1967 1385 1147 1169 1199 1107 1091 1226 1416 1568 1608 1596 1639 1697 1675 1681 1575 1526 1519 1562 1762 1745 1955 2130 1913 1845 1618 1246 1006 881 733 513 429 283 200 323 712 971 1215 1887 2121 1899 1893
2100 1908 1308 1146 1081 978 1253 1149 1180 1351 1527 1502 1565 1483 1611 1668 1526 1602 1520 1417 1531 1550 1564 1847 1838 1636 1314 864 721 712 442 428 420 448 329 301 788 1272 1380 1927 1987 1877 1828
1768 1864 1691 1326 1193 1114 1283 885 833 967 1191 1447 1383 1531 1642 1338 1387 1517 1551 1342 1179 1237 1240 1320 1391 1271 1100 894 599 494 356 316 332 350 446 472 667 1456 1636 1978 1948 2075 1760
0 377 1772 1730 1621 1371 1507 966 716 890 827 890 1134 1215 1347 1431 1381 1332 1440 1406 1210 1142 1250 1225 1345 1373 1093 893 644 480 366 258 230 288 254 467 429 1313 1785 1824 1972 1736 1791
5 973 845 149 325 1068 1217 1007 1306 891 722 679 727 992 1170 1234 1334 1244 1323 1305 1216 1141 1144 1168 1323 1297 1100 872 690 546 430 311 283 237 178 297 243 885 1730 1774 2111 1780 1659
0 0 0 0 0 0 0 0 0 26 271 785 682 653 863 1045 1175 1279 1442 1226 1236 1108 1071 1113 1178 1205 1210 1034 900 681 601 453 314 268 187 140 134 267 875 1683 2085 1932 2018
0 0 0 0 0 0 0 0 0 0 0 0 0 17 274 748 1025 1046 1115 1449 1522 1191 1063 1094 938 952 1032 978 1005 756 696 614 523 324 194 30 54 20 161 457 1093 1485 1576
0 0 0 0 0 0 0 0 0 0 0 0 0 0 0 0 19 776 1007 1024 1182 1100 962 1110 1099 1106 1081 970 909 711 640 604 504 343 173 55 23 26 0 114 573 865 1126
0 0 0 0 0 0 0 0 0 0 0 0 0 0 0 0 0 0 50 937 922 774 830 1123 1170 1220 1101 990 921 732 510 498 504 420 283 96 0 14 0 0 24 55 432
0 0 0 0 0 0 0 0 0 0 0 0 0 0 0 0 0 0 0 4 327 370 583 534 856 926 839 838 803 734 457 404 416 444 326 178 48 3 0 0 0 0 19
0 0 0 0 0 0 0 0 0 0 0 0 0 0 0 0 0 0 0 0 0 81 433 284 395 442 531 429 308 73 45 86 155 287 250 216 127 46 17 1 0 0 0
0 0 0 0 0 0 0 0 0 0 0 0 0 0 0 0 0 0 0 0 0 0 0 418 437 481 277 315 511 367 265 61 19 152 124 191 214 130 90 68 20 0 0
0 0 0 0 0 0 0 0 0 0 0 0 0 0 0 0 0 0 0 0 0 0 0 0 339 626 624 134 289 224 0 146 21 0 133 106 192 162 157 44 17 0 0
0 0 0 0 0 0 0 0 0 0 0 0 0 0 0 0 0 0 0 0 1 1 1 0 0 364 560 88 0 0 0 0 0 0 0 10 87 106 139 58 14 4 0
0 0 0 0 0 0 0 0 0 0 2 1 0 0 0 1 0 0 1 1 0 0 0 2 0 1 404 443 0 1 1 0 0 0 0 0 36 194 86 35 3 0 0
0 0 0 0 0 0 0 0 0 0 0 2 1 4 4 2 3 4 6 6 6 6 5 2 2 12 141 55 1 0 0 0 1 0 0 0 0 48 193 68 7 0 0

GFSSE_con_sbcape_120.txt.gz
CAPE
1004 1154 1558 1817 1823 1724 1501 1423 1586 1701 2068 2320 2300 2259 2152 1961 1987 2070 2125 2362 2565 2677 2637 2400 2218 1851 1237 1236 1553 1608 1516 1350 1375 1873 2224 2224 1989 1849 1782 1712 1621 1418 1793
1286 1531 1581 1856 1932 1904 1695 1553 1654 1904 2132 2383 2469 2470 2321 2154 2138 2196 2318 2362 2653 2852 2753 2344 2361 2012 1473 1270 1330 1319 1332 1204 1255 1620 2227 2188 2124 1916 1725 1845 1541 1564 1740
1500 1668 1594 1847 1988 2032 1920 1841 1851 2135 2253 2310 2445 2483 2495 2466 2414 2358 2399 2429 2624 2939 2908 2267 2271 2214 1608 1394 1202 1271 1275 1258 1218 1585 2034 1503 1670 1936 1719 1922 1842 1808 1886
1512 1668 1657 1845 2016 2046 1917 1913 1987 2201 2345 2303 2338 2428 2459 2494 2479 2450 2431 2525 2799 2928 2868 2371 2199 2326 1920 1206 1106 1227 1271 1271 1242 1438 1178 1368 1590 2045 1766 1797 1906 1769 1924
1465 1639 1718 1833 1968 1985 1887 1907 1991 2125 2136 2165 2221 2405 2474 2499 2489 2467 2381 2565 2944 3098 2946 2395 2488 2652 1804 1131 946 1084 1275 1205 1235 870 949 1234 1435 1834 1812 1931 2073 2049 1794
1421 1574 1737 1792 1904 1939 1908 1900 1978 1930 1824 1906 1997 2294 2462 2555 2539 2399 2265 2576 2972 3055 2994 2814 2715 2334 1601 1187 936 937 1128 1121 1179 628 630 978 1197 1643 1821 2091 1991 1875 1733
1332 1379 1515 1691 1809 1888 1956 1963 1939 1853 1735 1769 1930 2084 2258 2437 2484 2258 2201 2513 2763 2830 2722 2571 2542 1847 1494 1217 1005 904 906 999 795 575 393 487 964 1686 1719 1877 1641 1889 1799
1517 1238 1378 1648 1804 1901 1841 1777 1816 1826 1727 1717 1834 1958 2187 2212 2169 2059 2097 2402 2551 2529 2406 2331 2146 1719 1483 1224 1077 882 806 867 655 312 187 156 465 1522 1729 1367 1417 1546 1799
1544 1298 1209 1508 1819 1940 1982 1815 1669 1744 1724 1681 1728 1872 1989 1989 1923 1798 1903 2119 2343 2361 2367 2156 2015 1810 1570 1406 1205 943 758 758 531 228 152 1 141 382 1703 1850 1468 1425 1730
1398 1223 1028 1122 1446 1485 1439 1644 1688 1656 1660 1618 1654 1741 1853 1815 1791 1796 1711 1826 2008 2271 2260 2297 2039 1754 1588 1440 1232 991 771 680 367 172 113 87 22 435 1573 2044 1780 1579 1378
1727 1279 958 1008 1185 1166 1152 1213 1404 1578 1626 1548 1575 1642 1608 1507 1447 1510 1563 1646 1800 1954 1934 2061 1897 1657 1523 1357 1077 962 812 434 339 91 42 114 431 658 1127 2044 1969 1729 1548
1354 1650 1045 951 1028 1027 1265 1205 1261 1315 1435 1448 1615 1547 1481 1628 1563 1406 1402 1482 1604 1493 1536 1731 1761 1554 1273 861 690 676 483 414 309 232 78 114 676 1170 1056 1732 1943 1856 1566
114 1457 1462 966 896 979 1261 985 872 987 1362 1398 1544 1592 1624 1544 1454 1386 1390 1209 992 1154 1102 1247 1361 1144 1037 751 378 315 309 331 266 252 365 285 530 1271 1593 1983 1963 1948 1554
0 257 1477 1201 1174 1132 1194 969 767 902 1002 1144 1328 1400 1374 1326 1323 1268 1289 1273 1153 1078 1102 1037 1262 1300 961 833 504 294 221 267 301 259 228 379 359 1018 1539 1911 2156 2065 2002
0 315 1164 1734 1582 1446 1579 1420 959 836 820 799 928 1151 1253 1236 1210 1193 1274 1216 1133 1042 1023 1009 1093 1246 1186 999 698 451 273 233 241 219 140 264 398 491 1347 1930 2111 1673 2290
0 3 0 1 12 0 0 0 0 0 119 447 357 523 725 857 904 976 1165 1244 1163 1021 930 1004 1005 1062 941 1011 903 593 455 309 200 174 114 154 173 197 707 1876 2261 2364 2338
0 0 0 0 0 0 0 0 0 0 0 0 0 0 0 1 11 134 881 1106 1210 1080 675 940 827 972 1004 887 826 860 659 382 239 193 155 118 146 53 84 687 1385 1854 2031
0 0 0 0 0 0 0 0 0 0 0 0 0 0 0 0 0 0 0 28 826 1298 967 890 888 907 969 887 828 815 681 635 415 313 253 169 102 97 82 43 295 757 1257
0 0 0 0 0 0 0 0 0 0 0 0 0 0 0 0 0 0 1 3 4 160 772 769 922 799 891 958 875 729 574 477 442 340 383 209 111 75 56 73 59 142 552
0 0 0 0 0 0 0 0 0 0 0 0 0 0 0 0 0 0 0 0 0 1 164 411 322 461 542 649 795 454 597 405 342 243 241 142 102 65 39 39 46 61 76
0 0 0 0 0 0 0 0 0 0 0 0 0 0 0 0 0 0 0 0 0 0 0 1 286 0 0 163 172 99 157 147 152 142 115 90 42 24 0 8 11 5 11
0 0 0 0 0 0 0 0 0 0 0 0 0 0 0 0 0 0 0 0 0 1 0 0 0 359 182 220 96 12 0 0 12 107 128 88 43 60 33 9 0 0 16
0 0 0 0 0 0 0 0 0 0 0 0 0 0 0 0 0 0 0 0 0 1 1 1 0 0 340 141 295 94 16 37 2 1 4 155 154 44 21 14 28 62 18
3 0 0 1 0 0 0 0 0 0 0 0 0 0 0 0 0 0 3 3 4 4 4 1 2 1 5 96 36 234 6 0 0 1 0 58 72 11 5 15 10 22 0
0 0 1 1 2 0 0 0 0 0 0 0 0 0 0 0 1 0 5 5 5 6 5 4 1 1 2 6 14 0 0 0 0 0 0 0 1 0 0 8 26 31 2
1 0 2 0 0 0 0 1 1 1 1 2 2 2 2 3 1 6 5 5 5 6 6 8 10 6 5 3 16 12 2 1 0 0 0 0 0 0 0 0 26 2 10

GFSSE_con_sbcape_123.txt.gz
CAPE
1336 1521 1624 1850 1821 1602 1469 1447 1530 2085 2253 2084 1965 1929 2039 2114 2011 1979 2182 2395 2354 2276 2422 1961 2002 2001 1666 1655 1931 1790 1610 1409 1738 2292 2264 2223 1905 1918 1672 1858 1753 1154 1667
1532 1838 1664 1849 1931 1803 1614 1564 1668 2072 2458 2376 2242 2077 2141 2124 2042 2078 2346 2472 2564 2486 2522 2065 2077 1617 1294 1391 1448 1424 1346 1201 1417 2045 2285 2109 2036 1931 1742 1589 1422 1385 1790
2075 2063 2040 1835 1961 1903 1841 1800 1907 2122 2585 2696 2547 2301 2233 2237 2176 2165 2313 2476 2650 2809 2804 2375 2211 1828 1366 1355 1183 1306 1275 1209 1377 1953 2227 1635 1797 2001 1752 1630 1803 1777 1938
2055 2094 2178 1873 2000 1944 1858 1842 1998 2289 2455 2700 2739 2584 2406 2326 2327 2310 2255 2423 2736 2909 2923 2445 2422 2190 1713 1180 1085 1228 1241 1186 1370 1742 1538 1490 1625 1941 1804 1567 1583 1723 1875
1951 2051 2026 1882 1996 1976 1901 1890 1951 2185 2230 2366 2627 2784 2725 2650 2617 2514 2287 2369 2814 3123 3079 2606 2619 2624 1581 977 926 1100 1185 1141 1191 1294 1584 1720 1729 1863 1807 1830 1687 1995 1900
1898 2099 1759 1801 1957 2010 1980 1989 1998 1980 1966 2012 2266 2694 2836 2864 2822 2587 2331 2574 2995 3077 3083 2764 2573 2459 1415 955 825 997 1100 1047 959 1358 1526 1639 1725 1866 1875 2121 1876 1743 1757
1973 2096 2200 1780 1908 2036 2127 2096 2008 1866 1813 1843 2011 2300 2609 2728 2700 2459 2339 2607 2917 2999 2901 2694 2254 2070 1471 1090 936 841 982 980 1383 1387 1454 1601 1867 1795 1910 1967 1993 1830 1835
2240 2141 2273 1882 1847 1971 2081 2047 1997 1897 1723 1762 1837 2049 2354 2488 2430 2271 2230 2471 2686 2741 2682 2511 2349 1861 1450 1181 973 742 783 895 1087 1527 1444 1397 1527 1700 1874 2127 1897 1857 1681
2398 2150 2257 2519 2388 1804 1805 1857 1859 1882 1787 1733 1764 1841 2044 2153 2243 2162 2168 2338 2492 2467 2376 2262 2160 1643 1409 1206 968 794 689 775 1218 1452 1207 1387 1109 1537 1846 2232 1878 1817 1780
2342 2348 2165 2121 2595 2729 2643 1592 1486 1615 1717 1703 1701 1762 1805 1858 1865 1884 1958 2118 2305 2240 2154 2097 1940 1595 1473 1286 1112 956 682 655 1193 1328 1341 1193 290 1078 1198 2208 2031 1804 1648
1783 2493 2321 2142 2209 2467 2497 2307 1643 1542 1587 1560 1675 1643 1786 2235 2195 2107 1834 1785 1932 2024 2033 2053 1817 1708 1552 1394 1298 1058 706 1344 1448 1209 1249 645 463 763 1057 2246 1978 1805 1757
0 63 2275 2290 2280 2247 2060 2247 2430 2463 2539 2562 2426 2390 2332 2182 2167 1973 1777 1468 1517 1550 1700 1774 1868 1535 1319 2006 1751 969 1502 1464 1464 1315 1289 290 613 1055 1100 2093 1964 1872 1756
0 0 29 2418 2334 2337 2335 2415 2256 2262 2259 2237 2311 2134 1999 2107 2188 1885 1672 1955 2153 1456 2109 1868 2233 2352 2300 2299 1986 1773 1561 1540 1425 1352 1062 257 528 1213 1417 1734 1946 2078 1821
0 0 0 1799 2412 2403 2415 2456 2019 1804 1649 1862 1859 2044 2229 2171 2010 1869 1735 1467 1526 1737 2009 2131 2069 2255 2402 2310 2302 1925 1696 1457 1337 1297 1224 436 314 961 1524 1977 2019 2136 1869
0 0 0 880 2543 2497 2460 2463 2297 1971 1221 1453 1591 1766 1953 1952 1984 1821 1708 1817 1886 1502 1358 1447 1831 1744 1588 1921 2074 2204 1831 1650 1514 1468 1442 500 234 417 1101 1538 1837 1861 2002
0 0 0 0 10 1535 1906 2033 1374 1003 727 752 620 782 1410 1379 1332 1471 1712 1761 1741 1561 1539 1644 1343 1386 1337 1505 1393 1663 2087 1791 1587 1554 1448 1238 179 142 347 953 1568 2013 1727
0 0 0 0 0 0 0 0 7 0 2 0 1 0 0 0 21 326 1143 1045 1571 1560 1318 1578 1153 1303 1159 1263 1402 1236 1262 1574 1646 1539 1520 1399 949 91 61 139 756 1407 1719
0 0 0 0 0 0 0 0 0 0 1 0 0 0 0 0 0 1 2 3 0 161 1598 1711 1131 947 851 1128 1096 1190 1174 1150 1008 1536 1497 1286 1261 1076 363 28 75 438 824
0 0 0 0 0 0 0 0 0 0 0 0 0 0 0 0 0 0 0 1 0 6 5 796 1388 1153 1033 1127 1269 1269 1324 1112 835 895 861 886 1245 1203 1265 629 35 41 104
0 0 0 0 0 0 0 0 0 0 0 0 0 0 0 0 0 0 0 0 0 0 0 124 246 791 1096 1237 1061 1013 1151 684 1184 828 944 873 878 855 1065 909 812 532 12
0 0 0 0 0 0 0 0 0 0 0 0 0 0 0 0 0 0 0 0 0 0 0 0 0 86 613 605 617 352 173 256 329 357 719 941 819 628 685 645 642 1271 769
0 0 0 0 0 0 0 1 2 1 0 0 0 0 0 2 3 1 4 5 5 4 2 0 0 0 439 290 301 367 86 232 199 232 606 532 631 805 359 492 614 959 776
0 0 0 0 0 0 0 0 0 0 0 0 0 0 1 4 5 8 4 1 1 4 3 1 6 7 5 224 545 263 17 3 218 76 101 294 694 835 139 779 924 843 768
0 0 0 0 1 2 1 0 0 0 1 6 5 4 4 5 9 2 4 6 7 10 8 7 7 2 7 12 54 447 773 195 254 161 48 413 686 323 442 1034 959 909 909
0 0 0 0 1 1 4 5 4 0 0 4 8 7 5 7 3 5 7 7 7 9 9 8 10 12 14 5 13 25 349 493 225 15 91 126 246 266 441 846 994 948 795
3 0 0 0 0 0 1 3 4 5 2 4 5 5 3 4 5 2 6 6 6 8 9 10 8 7 13 19 13 16 13 111 57 39 11 56 107 371 348 690 679 847 1020

GFSSE_con_sbcape_126.txt.gz
CAPE
1352 1846 1696 1810 1753 1750 1747 1760 2120 2204 2101 2079 2165 2244 2262 2255 2147 2160 2354 2377 2480 2921 2814 2146 2139 2052 2005 2183 2293 2052 1721 1842 2310 2417 2376 2106 1963 1809 1768 2073 1802 1126 1417
1830 2127 1671 1761 1790 1881 1912 1898 2179 2438 2431 2294 2242 2293 2350 2326 2183 2230 2491 2464 2541 2944 2778 2108 2088 2012 1859 1935 1874 1644 1481 1550 2061 2202 2356 2271 2044 1856 1781 1973 1880 1306 1731
1998 2200 2214 1762 1814 1935 2025 2099 2376 2753 2780 2555 2431 2420 2479 2346 2245 2295 2565 2511 2579 2835 2723 2053 1869 1696 1588 1665 1489 1420 1360 1469 1922 2156 2196 1816 1836 1966 1700 1668 1859 1971 1913
2468 2184 2499 1853 1886 1911 1943 2054 2346 2874 2999 2866 2602 2537 2532 2436 2313 2391 2539 2563 2755 2895 2960 2370 2150 1955 1821 1354 1328 1306 1293 1395 1709 2072 1769 1395 1583 1971 1750 1674 1780 1933 1908
2249 2215 2726 2001 1937 1940 1863 1974 2127 2525 2747 2870 2810 2749 2658 2560 2517 2470 2471 2554 2973 3196 3256 2822 2762 2607 1591 1094 1152 1216 1242 1288 1574 1534 1428 1540 1643 1907 1802 1557 1599 1867 2075
2461 2491 1850 1933 2027 2023 1965 1965 2088 2138 2240 2519 2704 2937 2879 2758 2722 2603 2381 2659 3107 3300 3318 3181 3048 2660 1525 1033 985 1153 1112 1161 1020 1499 1519 1620 1701 1990 1916 2020 1338 1619 1675
2638 2735 2781 1904 2028 2124 2218 2147 2032 1993 1931 2116 2458 2734 2897 2975 2903 2694 2372 2553 2981 3262 3274 3066 2701 2488 1661 1164 945 1022 1008 1002 1307 1334 1501 1649 1732 2126 2004 1927 2039 1921 1915
2955 2957 2925 2019 1874 2067 2173 2132 1997 1866 1825 1875 2070 2425 2764 2812 2764 2628 2417 2540 2862 2975 2930 2759 2440 2307 1822 1345 1036 802 864 833 1078 1343 1377 1547 1721 1962 1990 2323 2144 1844 1880
2529 3361 3360 3395 2890 1797 2008 2029 1983 1932 1758 1770 1791 1998 2320 2448 2452 2408 2357 2456 2714 2848 2818 2657 2405 2173 1797 1419 1081 721 683 858 1397 1280 1406 1528 1601 1790 2035 2363 2115 1814 1771
465 2383 3409 3507 3580 3536 3391 1916 1710 1831 1833 1733 1703 1738 1846 2032 2166 2198 2155 2252 2479 2529 2504 2463 2360 2145 1683 1379 1087 763 617 636 1212 1248 1410 1213 1449 1577 1892 2442 2150 1893 1681
0 0 1108 3192 3452 3619 3629 3120 1786 1510 1640 1649 1712 1655 1846 2239 2115 2271 2200 2000 2250 2278 2177 2176 2126 1892 1531 1353 1180 916 644 1352 1307 1328 1214 777 760 1328 1660 1801 2216 1936 1799
0 0 0 357 2695 3531 3269 3279 3347 3270 2970 2855 2784 2888 2828 2755 2640 2101 1833 1769 1802 1904 1832 1896 1888 1708 1451 2082 1941 1082 1728 1341 1539 1381 1210 704 813 1118 1237 1635 2143 1909 1738
0 0 0 0 1074 3169 3183 3359 3445 3286 3241 3263 3272 3086 2760 2610 2651 2576 2427 2429 2370 1420 2252 1878 2332 2564 2424 2251 1847 1797 1593 1655 1576 1444 1068 681 702 1239 1381 1718 2051 1960 1785
0 0 0 41 242 2109 3215 3430 3423 3319 3194 3177 3009 2927 2933 2919 2752 2816 2412 2151 2248 2205 2213 2368 2389 2420 2432 2373 2343 2040 2056 1760 1428 1313 1169 610 418 1036 1434 1710 1956 2076 1917
0 0 0 8 406 1294 2862 3365 3558 3460 3144 3008 2908 2855 2501 2691 2856 2557 2315 2366 2172 2259 2045 2117 2385 2136 2275 2232 2323 2187 2300 2118 1764 1407 1300 669 295 667 1297 1583 1786 2010 2032
0 0 0 0 1 0 12 1164 2828 3086 2834 2395 2113 2378 2395 2302 2353 2361 2375 2112 2204 2305 2327 2118 1718 2102 2139 1937 2171 2328 2207 2184 2048 1891 1576 1383 306 170 709 1308 1598 1772 2317
0 0 0 0 0 0 0 0 4 29 358 350 279 23 158 184 177 1612 2231 2136 2126 2230 2065 2089 1904 2115 1890 1777 1778 2081 2282 2323 1967 1791 2037 1669 1089 80 91 389 956 1387 1614
0 0 0 0 0 0 0 0 0 0 0 1 0 3 2 0 0 2 125 426 259 436 480 2130 2061 2076 1799 1574 1510 1458 1794 2222 2240 2018 1927 1960 1667 1448 200 54 150 550 915
0 0 0 0 0 0 0 0 0 0 0 0 0 0 0 0 0 0 0 11 35 12 73 99 916 1763 1821 1568 1605 1413 1430 1594 2228 1767 1867 1884 1848 1820 1495 288 91 67 267
0 0 0 0 0 0 0 0 0 0 0 0 0 0 0 2 2 0 0 0 2 1 82 140 251 486 844 1270 1105 975 902 1233 1630 1185 1275 1464 1711 1860 1836 1636 1076 897 4
0 0 0 0 0 0 0 0 0 0 0 0 0 0 0 3 7 5 3 2 1 0 3 8 8 195 879 1203 778 642 762 1090 406 291 89 14 252 1182 1593 2005 1790 1776 949
0 0 0 0 0 0 0 0 0 0 0 0 0 1 4 5 7 8 12 6 3 6 11 9 10 6 12 747 826 513 172 125 161 3 1 0 84 481 1003 1527 1508 1451 1484
0 0 0 0 0 0 0 0 0 0 0 0 0 0 2 7 11 3 9 9 10 8 7 1 2 15 10 8 546 970 469 328 367 121 0 128 337 707 1040 1197 1408 1506 1717
1 1 1 0 0 0 2 0 1 0 0 0 0 0 1 5 6 6 9 11 14 11 13 12 11 15 14 14 13 285 914 686 310 293 641 680 814 1020 1368 1168 1159 1153 1128
3 2 4 5 3 4 6 4 2 1 1 1 1 1 0 2 6 6 10 7 14 10 10 12 10 7 12 20 18 14 10 482 769 832 352 639 716 719 892 1285 1360 1311 1304
7 8 5 5 4 7 4 6 11 9 6 4 3 2 0 3 6 7 9 8 11 12 10 12 13 10 12 13 12 20 19 15 88 333 537 375 353 573 806 849 1102 1204 1421

GFSSE_con_sbcape_129.txt.gz
CAPE
1755 1791 1724 1941 2031 2079 2207 2325 2226 2111 2189 2261 2410 2413 2466 2554 2497 2490 2579 2570 2746 2854 2684 2289 2119 2222 2248 2043 2137 2138 2030 2370 2440 2392 2308 2013 1882 1849 1744 1926 1641 933 2054
1993 1963 1601 1835 2049 2174 2237 2366 2367 2340 2382 2415 2560 2564 2535 2507 2460 2552 2664 2695 2924 3021 2714 2236 2357 2262 2400 2578 2116 1794 1845 2107 2140 2296 2466 2214 1924 1852 1640 1762 1481 965 2041
2390 2533 1985 1661 2019 2195 2342 2528 2617 2679 2660 2559 2616 2640 2682 2599 2497 2606 2644 2671 2847 3359 2988 2290 2305 2213 2063 2009 1684 1541 1648 1922 2050 2077 2388 1680 1587 1842 1699 1631 1699 1845 1991
2610 2815 2220 1703 1925 2112 2211 2468 2745 3021 2956 2737 2697 2740 2761 2680 2539 2657 2672 2588 2814 3259 2950 2233 2159 2056 1905 1571 1412 1390 1523 1688 1934 1958 1767 1864 1602 1898 1662 1632 1757 1822 1856
2256 2235 2857 1941 1794 2001 2089 2322 2652 2984 2963 2829 2786 2890 2873 2748 2638 2714 2698 2651 2958 3280 2948 2320 2417 2477 1527 1252 1256 1238 1374 1454 1690 1563 1768 1625 1800 1882 1759 1683 1727 1804 2002
2149 2764 2027 1954 1880 1866 2009 2176 2412 2639 2669 2684 2738 2911 2969 2910 2790 2713 2610 2793 3265 3351 3480 3202 3218 2695 1450 1080 1149 1153 1196 1274 1246 1423 1208 1589 1996 2040 1834 2000 1785 1813 1823
2091 2817 3161 1967 2031 2072 2057 2067 2129 2163 2356 2543 2731 2902 2955 2987 2918 2748 2499 2688 3104 3369 3390 3324 3080 2748 1797 1174 1080 1102 1067 1115 1155 1462 996 1477 2061 2096 2046 1753 1907 1772 1894
2139 2797 3405 2088 2049 2136 2152 2081 1909 1847 1906 2160 2497 2751 3005 3001 2857 2765 2517 2493 2801 3086 3113 3004 2780 2570 2194 1439 1123 902 908 859 812 1414 920 1318 1998 2510 2076 2263 2104 1768 1901
1220 2581 3513 3855 2875 1841 2062 2077 1990 1929 1782 1843 1936 2250 2685 2790 2744 2701 2569 2469 2639 2838 2945 2896 2668 2330 2202 1686 1236 828 636 741 949 1051 941 1275 2139 2542 2120 2542 2256 1914 1819
0 114 1636 2876 3592 3877 3870 2038 2008 1976 1945 1774 1809 1780 1957 2233 2429 2418 2409 2319 2517 2705 2667 2672 2570 2264 2111 1762 1301 921 593 637 932 1215 931 1287 2045 2222 2232 2780 2323 2015 1733
0 0 0 364 1545 2951 3666 3361 1919 1783 1881 1795 1750 1646 1732 2064 2082 2357 2344 2156 2232 2340 2142 2341 2343 2292 2121 1697 1270 981 622 987 1021 998 859 1068 1958 1961 2061 2606 2367 1965 1750
0 0 0 107 506 1689 2266 2688 3704 3615 3014 2887 2747 2777 2833 2620 2457 2110 1786 1793 1902 2039 1955 1907 1952 1922 1705 1616 1329 1001 1440 1206 1135 944 730 875 1600 1664 1904 2276 2103 2111 1797
0 0 0 100 1449 948 1652 2002 2514 2762 3079 3204 3746 3615 3613 3359 3102 3134 2811 2450 2373 1748 2475 1846 1969 2042 1696 1715 1583 2297 1851 1440 1311 938 626 729 1388 1482 1458 2004 1894 2306 1894
0 0 0 0 21 984 1791 2209 2087 2145 2269 2362 2639 3341 3528 3478 3066 3165 2981 2914 2684 2520 2414 2594 2541 2507 2476 2564 2227 2844 2320 1624 1398 903 808 573 876 1490 1545 1677 1987 2206 1932
0 0 0 0 0 0 131 256 2585 3237 3082 3067 3071 3044 2948 3180 3381 3246 2999 2888 2854 2905 2772 2418 2452 2282 2190 2161 2167 2350 2617 2403 2109 1609 1205 435 503 984 1518 1605 1913 1913 2102
0 0 0 0 0 1 0 2 7 9 349 1214 673 198 282 735 2203 2737 2729 2589 2544 2494 2467 2616 2644 2583 2666 2482 2315 2174 2225 2402 2589 2228 1462 977 353 444 912 1680 2175 2392 2434
0 0 0 0 0 0 0 0 0 0 2 1 5 1 1 0 0 1 496 1730 1789 1847 2034 2380 2341 2341 2245 2289 2256 2578 2623 2476 2299 2432 2408 1431 792 205 367 707 1369 1847 2148
0 0 0 0 0 0 0 0 0 0 0 0 0 0 0 0 0 0 0 44 216 236 467 1392 1853 1242 1663 2198 2147 2153 2011 2537 2398 2314 2262 2306 2019 1530 153 172 415 873 1316
0 0 0 0 0 0 0 0 0 0 0 0 0 0 0 0 0 0 0 22 62 42 318 492 794 884 1558 1293 901 1751 1478 1586 2108 2403 2059 1827 2087 1642 1818 185 81 143 400
0 0 0 0 0 0 0 0 0 0 0 0 0 0 0 0 1 0 0 1 1 1 2 122 582 668 603 650 954 999 956 1470 1868 1716 1357 1241 846 348 757 1117 868 283 33
0 0 0 0 0 0 0 0 0 0 0 0 0 0 0 1 7 5 3 3 2 1 4 6 11 15 24 613 823 1252 830 737 1107 455 133 52 1 12 197 718 1272 1598 889
2 0 0 0 0 0 0 0 0 0 0 0 0 0 0 2 4 2 7 7 8 6 7 11 11 12 1 2 580 330 470 662 632 462 155 87 70 0 12 133 512 1519 1775
6 7 5 4 2 0 0 0 0 0 0 0 0 0 0 4 5 7 6 5 3 10 9 7 11 10 14 5 0 199 385 191 457 898 411 356 130 44 5 6 92 482 1021
4 4 3 4 2 2 3 2 1 0 0 4 1 1 1 2 6 7 6 6 5 5 8 9 13 12 10 9 11 3 36 247 125 523 893 672 508 311 132 56 46 177 536
4 6 5 5 5 5 3 5 1 2 2 2 2 6 4 4 2 3 7 5 6 7 9 10 12 10 11 11 10 11 22 6 10 268 283 693 842 714 481 561 839 963 1079
3 3 3 2 3 6 7 6 6 7 5 3 5 5 9 6 8 6 4 7 5 9 12 12 10 10 11 13 13 15 16 17 19 13 30 114 351 462 902 1055 1419 1368 1264